[[{"header":{"parameterUnit":"m.s-1","parameterCategory":1,"la1":30.6,"la2":29.2853,"lo1":-89.7004,"lo2":-87.6739,"dy":0.0162,"dx":0.0183,"nx":112,"ny":82,"refTime":"2023-05-20T12:00:00:Z","depth":0,"parameterNumber":2,"parameterNumberName":"U-component_of_WINDS"},"data":[0.0,0.0,0.0,0.0,0.0,0.0,0.0,0.0,0.0,0.0,0.0,0.0,0.0,0.0,0.0,0.0,0.0,0.0,0.0,0.0,0.0,0.0,0.0,0.0,0.0,0.0,0.0,0.0,0.0,0.0,0.0,0.0,0.0,0.0,0.0,0.0,0.0,0.0,0.0,0.0,0.0,0.0,0.0,0.0,0.0,0.0,0.0,0.0,0.0,0.0,0.0,0.0,0.0,0.0,0.0,0.0,0.0,0.0,0.0,0.0,0.0,0.0,0.0,0.0,0.0,0.0,0.0,0.0,0.0,0.0,0.0,0.0,0.0,0.0,0.0,0.0,0.0,0.0,0.0,0.0,0.0,0.0,0.0,0.0,0.0,0.0,0.0,0.0,0.0,0.0,0.0,1.3901,1.6083,1.7564,1.8041,1.799,1.6614,1.3535,0.0,0.0,0.0,0.0,0.0,0.0,0.0,0.0,0.0,0.0,0.0,0.0,0.0,0.0,0.0,0.0,0.0,0.0,0.0,0.0,0.0,0.0,0.0,0.0,0.0,0.0,0.0,0.0,0.0,0.0,0.0,0.0,0.0,0.0,0.0,0.0,0.0,0.0,0.0,0.0,0.0,0.0,0.0,0.0,0.0,0.0,0.0,0.0,0.0,0.0,0.0,0.0,0.0,0.0,0.0,0.0,0.0,0.0,0.0,0.0,0.0,0.0,0.0,0.0,0.0,0.0,0.0,0.0,0.0,0.0,0.0,0.0,0.0,0.0,0.0,0.0,0.0,0.0,0.0,0.0,0.0,0.0,0.0,0.0,0.0,0.0,0.0,0.0,0.0,0.0,0.0,0.0,0.0,0.0,0.0,0.0,0.0,0.0,0.0,0.0,0.0,0.0,0.0,0.0,1.3486,1.5788,1.6848,1.7413,1.7501,1.7061,1.5978,1.4161,0.0,0.0,0.0,0.0,0.0,0.0,0.0,0.0,0.0,0.0,0.0,0.0,0.0,0.0,0.0,0.0,0.0,0.0,0.0,0.0,0.0,0.0,0.0,0.0,0.0,0.0,0.0,0.0,0.0,0.0,0.0,0.0,0.0,0.0,0.0,0.0,0.0,0.0,0.0,0.0,0.0,0.0,0.0,0.0,0.0,0.0,0.0,0.0,0.0,0.0,0.0,0.0,0.0,0.0,0.0,0.0,0.0,0.0,0.0,0.0,0.0,0.0,0.0,0.0,0.0,0.0,0.0,0.0,0.0,0.0,0.0,0.0,0.0,0.0,0.0,0.0,0.0,0.0,0.0,0.0,0.0,0.0,0.0,0.0,0.0,0.0,0.0,0.0,0.0,0.0,0.0,0.0,0.0,0.0,0.0,0.0,0.0,0.0,0.0,0.0,0.0,0.0,0.0,1.2879,1.414,1.6723,1.6936,1.7036,1.735,1.6572,1.5445,1.4032,1.3515,0.0,0.0,0.0,0.0,0.0,0.0,0.0,0.0,0.0,0.0,0.0,0.0,0.0,0.0,0.0,0.0,0.0,0.0,0.0,0.0,0.0,0.0,0.0,0.0,0.0,0.0,0.0,0.0,0.0,0.0,0.0,0.0,0.0,0.0,0.0,0.0,0.0,0.0,0.0,0.0,0.0,0.0,0.0,0.0,0.0,0.0,0.0,0.0,0.0,0.0,0.0,0.0,0.0,0.0,0.0,0.0,0.0,0.0,0.0,0.0,0.0,0.0,0.0,0.0,0.0,0.0,0.0,0.0,0.0,0.0,0.0,0.0,0.0,0.0,0.0,0.0,0.0,0.0,0.0,0.0,0.0,0.0,0.0,0.0,0.0,0.0,0.0,0.0,0.0,0.0,0.0,0.0,0.0,0.0,0.0,0.0,0.0,0.0,0.0,0.0,0.0,0.0,1.3744,1.4761,1.6967,1.6785,1.6697,1.7137,1.6271,1.5118,1.3778,1.3138,0.0,0.0,0.0,0.0,0.0,0.0,0.0,0.0,0.0,0.0,0.0,0.0,0.0,0.0,0.0,0.0,0.0,0.0,0.0,0.0,0.0,0.0,0.0,0.0,0.0,0.0,0.0,0.0,0.0,0.0,0.0,0.0,0.0,0.0,0.0,0.0,0.0,0.0,0.0,0.0,0.0,0.0,0.0,0.0,0.0,0.0,0.0,0.0,0.0,0.0,0.0,0.0,0.0,0.0,0.0,0.0,0.0,0.0,0.0,0.0,0.0,0.0,0.0,0.0,0.0,0.0,0.0,0.0,0.0,0.0,0.0,0.0,0.0,0.0,0.0,0.0,0.0,0.0,0.0,0.0,0.0,0.0,0.0,0.0,0.0,0.0,0.0,0.0,0.0,0.0,0.0,0.0,0.0,0.0,0.0,0.0,0.0,0.0,0.0,0.0,0.0,0.0,1.4344,1.5264,1.6459,1.6547,1.6534,1.6572,1.6032,1.509,1.3697,1.3059,0.0,0.0,0.0,0.0,0.0,0.0,0.0,0.0,0.0,0.0,0.0,0.0,0.0,0.0,0.0,0.0,0.0,0.0,0.0,0.0,0.0,0.0,0.0,0.0,0.0,0.0,0.0,0.0,0.0,0.0,0.0,0.0,0.0,0.0,0.0,0.0,0.0,0.0,0.0,0.0,0.0,0.0,0.0,0.0,0.0,0.0,0.0,0.0,0.0,0.0,0.0,0.0,0.0,0.0,0.0,0.0,0.0,0.0,0.0,0.0,0.0,0.0,0.0,0.0,0.0,0.0,0.0,0.0,0.0,0.0,0.0,0.0,0.0,0.0,0.0,0.0,0.0,0.0,0.0,0.0,0.0,0.0,0.0,0.0,0.0,0.0,0.0,0.0,0.0,0.0,0.0,0.0,0.0,0.0,0.0,0.0,0.0,0.0,0.0,0.0,0.0,0.0,1.3528,1.4455,0.0,1.5693,1.563,1.5969,1.5178,1.4367,1.3529,0.0,0.0,0.0,0.0,0.0,0.0,0.0,0.0,0.0,0.0,0.0,0.0,0.0,0.0,0.0,0.0,0.0,0.0,0.0,0.0,0.0,0.0,0.0,0.0,0.0,0.0,0.0,0.0,0.0,0.0,0.0,0.0,0.0,0.0,0.0,0.0,0.0,0.0,0.0,0.0,0.0,0.0,0.0,0.0,0.0,0.0,0.0,0.0,0.0,0.0,0.0,0.0,0.0,0.0,0.0,0.0,0.0,0.0,0.0,0.0,0.0,0.0,0.0,0.0,0.0,0.0,0.0,0.0,0.0,0.0,0.0,0.0,0.0,0.0,0.0,0.0,0.0,0.0,0.0,0.0,0.0,0.0,0.0,0.0,0.0,0.0,0.0,0.0,0.0,0.0,0.0,0.0,0.0,0.0,0.0,0.0,0.0,0.0,0.0,0.0,0.0,0.0,1.2749,1.3262,1.4048,0.0,1.513,1.5067,1.5392,1.4626,1.3852,1.3225,0.0,0.0,0.0,0.0,0.0,0.0,0.0,0.0,0.0,0.0,0.0,0.0,0.0,0.0,0.0,0.0,0.0,0.0,0.0,0.0,0.0,0.0,0.0,0.0,0.0,0.0,0.0,0.0,0.0,0.0,0.0,0.0,0.0,0.0,0.0,0.0,0.0,0.0,0.0,0.0,0.0,0.0,0.0,0.0,0.0,0.0,0.0,0.0,0.0,0.0,0.0,0.0,0.0,0.0,0.0,0.0,0.0,0.0,0.0,0.0,0.0,0.0,0.0,0.0,0.0,0.0,0.0,0.0,0.0,0.0,0.0,0.0,0.0,0.0,0.0,0.0,0.0,0.0,0.0,0.0,0.0,0.0,0.0,0.0,0.0,0.0,0.0,0.0,0.0,0.0,0.0,0.0,0.0,0.0,0.0,0.0,0.0,0.0,0.0,0.0,0.0,0.0,1.3327,1.3782,1.4286,1.484,1.489,1.489,1.4903,1.4387,1.3692,0.0,0.0,0.0,0.0,0.0,0.0,0.0,0.0,0.0,0.0,0.0,0.0,0.0,0.0,0.0,0.0,0.0,0.0,0.0,0.0,0.0,0.0,0.0,0.0,0.0,0.0,0.0,0.0,0.0,0.0,0.0,0.0,0.0,0.0,0.0,0.0,0.0,0.0,0.0,0.0,0.0,0.0,0.0,0.0,0.0,0.0,0.0,0.0,0.0,0.0,0.0,0.0,0.0,0.0,0.0,0.0,0.0,0.0,0.0,0.0,0.0,0.0,0.0,0.0,0.0,0.0,0.0,0.0,0.0,0.0,0.0,0.0,0.0,0.0,0.0,0.0,0.0,0.0,0.0,0.0,0.0,0.0,0.0,0.0,0.0,0.0,0.0,0.0,0.0,0.0,0.0,0.0,0.0,0.0,0.0,0.0,0.0,0.0,0.0,0.0,0.0,0.0,0.0,1.2146,1.289,1.3684,1.4274,1.3948,1.3873,1.4299,1.3785,1.3228,1.2673,0.0,0.0,0.0,0.0,0.0,0.0,0.0,0.0,0.0,0.0,0.0,0.0,0.0,0.0,0.0,0.0,0.0,0.0,0.0,0.0,0.0,0.0,0.0,0.0,0.0,0.0,0.0,0.0,0.0,0.0,0.0,0.0,0.0,0.0,0.0,0.0,0.0,0.0,0.0,0.0,0.0,0.0,0.0,0.0,0.0,0.0,0.0,0.0,0.0,0.0,0.0,0.0,0.0,0.0,0.0,0.0,0.0,0.0,0.0,0.0,0.0,0.0,0.0,0.0,0.0,0.0,0.0,0.0,0.0,0.0,0.0,0.0,0.0,0.0,0.0,0.0,0.0,0.0,0.0,0.0,0.0,0.0,0.0,0.0,0.0,0.0,0.0,0.0,0.0,0.0,0.0,0.0,0.0,0.0,0.0,0.0,0.0,0.0,0.0,0.0,0.0,0.0,1.2058,1.271,1.3323,1.3684,1.3433,1.3336,1.3697,1.3421,1.3141,1.2954,0.0,0.0,0.0,0.0,0.0,0.0,0.0,0.0,0.0,0.0,0.0,0.0,0.0,0.0,0.0,0.0,0.0,0.0,0.0,0.0,0.0,0.0,0.0,0.0,0.0,0.0,0.0,0.0,0.0,0.0,0.0,0.0,0.0,0.0,0.0,0.0,0.0,0.0,0.0,0.0,0.0,0.0,0.0,0.0,0.0,0.0,0.0,0.0,0.0,0.0,0.0,0.0,0.0,0.0,0.0,0.0,0.0,0.0,0.0,0.0,0.0,0.0,0.0,0.0,0.0,0.0,0.0,0.0,0.0,0.0,0.0,0.0,0.0,0.0,0.0,0.0,0.0,0.0,0.0,0.0,0.0,0.0,0.0,0.0,0.0,0.0,0.0,0.0,0.0,0.0,0.0,0.0,0.0,0.0,0.0,0.0,0.0,0.0,0.0,0.0,0.0,0.0,1.254,1.293,1.3198,1.3198,1.3198,1.3198,1.3198,1.3248,1.3345,1.3506,0.0,0.0,0.0,0.0,0.0,0.0,0.0,0.0,0.0,0.0,0.0,0.0,0.0,0.0,0.0,0.0,0.0,0.0,0.0,0.0,0.0,0.0,0.0,0.0,0.0,0.0,0.0,0.0,0.0,0.0,0.0,0.0,0.0,0.0,0.0,0.0,0.0,0.0,0.0,0.0,0.0,0.0,0.0,0.0,0.0,0.0,0.0,0.0,0.0,0.0,0.0,0.0,0.0,0.0,0.0,0.0,0.0,0.0,0.0,0.0,1.989,0.0,0.0,0.0,0.0,0.0,0.0,0.0,0.0,0.0,0.0,0.0,0.0,0.0,0.0,0.0,0.0,0.0,0.0,0.0,0.0,0.0,0.0,0.0,0.0,0.0,0.0,0.0,0.0,0.0,0.0,0.0,0.0,0.0,0.0,0.0,0.0,0.0,0.0,0.0,0.0,0.0,1.205,1.2669,1.3198,1.3198,1.3198,1.3198,1.3198,1.3634,1.3778,1.3531,1.3667,0.0,0.0,0.0,0.0,0.0,0.0,0.0,0.0,0.0,0.0,0.0,0.0,0.0,0.0,0.0,0.0,0.0,0.0,0.0,0.0,0.0,0.0,0.0,0.0,0.0,0.0,0.0,0.0,0.0,0.0,0.0,0.0,0.0,0.0,0.0,0.0,0.0,0.0,0.0,0.0,0.0,0.0,0.0,0.0,0.0,0.0,0.0,0.0,0.0,0.0,0.0,0.0,0.0,0.0,0.0,0.0,0.0,0.0,0.0,0.0,2.04,0.0,0.0,0.0,0.0,0.0,0.0,0.0,0.0,0.0,0.0,0.0,0.0,0.0,0.0,0.0,0.0,0.0,0.0,0.0,0.0,0.0,0.0,0.0,0.0,0.0,0.0,0.0,0.0,0.0,0.0,0.0,0.0,0.0,0.0,0.0,0.0,0.0,0.0,0.0,0.0,1.2098,1.2714,1.3198,1.3198,1.3198,1.3311,1.3609,1.3921,1.4237,1.4543,1.4396,0.0,0.0,0.0,0.0,0.0,0.0,0.0,0.0,0.0,0.0,0.0,0.0,0.0,0.0,0.0,0.0,0.0,0.0,0.0,0.0,0.0,0.0,0.0,0.0,0.0,0.0,0.0,0.0,0.0,0.0,0.0,0.0,0.0,0.0,0.0,0.0,0.0,0.0,0.0,0.0,0.0,0.0,0.0,0.0,0.0,0.0,0.0,0.0,0.0,0.0,0.0,0.0,0.0,2.4607,2.5013,2.564,2.5646,2.6154,2.6897,2.4464,2.2772,2.1693,0.0,0.0,0.0,0.0,0.0,0.0,0.0,0.0,0.0,0.0,0.0,0.0,0.0,0.0,0.0,0.0,0.0,0.0,0.0,0.0,0.0,0.0,0.0,0.0,0.0,2.1632,2.1945,0.0,0.0,0.0,0.0,0.0,0.0,0.0,0.0,0.0,0.0,0.0,0.0,1.2507,1.2969,1.3301,1.3198,1.3286,1.3559,1.4047,1.4261,1.4765,1.563,1.5073,1.4967,0.0,0.0,0.0,0.0,0.0,0.0,0.0,0.0,0.0,0.0,0.0,0.0,0.0,0.0,0.0,0.0,0.0,0.0,0.0,0.0,0.0,0.0,0.0,0.0,0.0,0.0,0.0,0.0,0.0,0.0,0.0,0.0,2.2324,2.2412,0.0,0.0,0.0,0.0,0.0,0.0,0.0,0.0,0.0,0.0,0.0,0.0,0.0,2.6166,2.6871,2.7847,2.8313,2.8291,2.927,2.9759,2.9807,2.9811,2.9857,2.9908,2.9543,0.0,2.4327,2.3407,0.0,0.0,0.0,0.0,0.0,0.0,0.0,0.0,0.0,0.0,0.0,0.0,0.0,0.0,0.0,0.0,0.0,0.0,0.0,0.0,0.0,0.0,2.3508,2.2817,2.3297,2.3767,0.0,2.0986,1.8841,1.8223,1.796,0.0,0.0,0.0,0.0,0.0,0.0,0.0,1.3215,1.3591,1.3648,1.3232,1.3659,1.4009,1.4072,1.4966,1.5542,1.568,1.6028,1.5981,1.5447,1.5277,0.0,0.0,0.0,0.0,0.0,0.0,0.0,0.0,0.0,0.0,0.0,0.0,0.0,0.0,0.0,0.0,0.0,0.0,0.0,0.0,0.0,0.0,0.0,0.0,0.0,0.0,0.0,0.0,0.0,2.3328,2.3928,2.3808,2.4065,2.397,0.0,0.0,0.0,0.0,0.0,0.0,0.0,0.0,0.0,2.7738,2.8207,2.8744,2.9357,2.9757,3.0194,3.0693,3.1135,3.1565,3.195,3.1941,3.1911,3.1847,3.1847,3.0382,2.7835,2.576,2.371,2.1795,0.0,0.0,0.0,0.0,2.0454,2.0986,2.126,2.1666,0.0,2.1113,0.0,0.0,0.0,0.0,0.0,0.0,0.0,0.0,0.0,0.0,2.3021,2.3543,2.3933,2.4113,2.3774,2.2459,2.1039,0.0,1.8788,1.7338,1.5171,0.0,0.0,0.0,0.0,0.0,1.4853,1.4904,1.4831,1.4631,1.4572,1.4676,1.4979,1.5417,1.5831,1.6132,1.6384,1.6366,1.6031,1.5774,1.5346,0.0,0.0,0.0,0.0,0.0,0.0,0.0,0.0,0.0,0.0,0.0,0.0,0.0,0.0,0.0,0.0,0.0,0.0,0.0,0.0,0.0,0.0,0.0,0.0,0.0,0.0,0.0,0.0,2.4905,2.5641,2.4938,2.5825,2.591,0.0,0.0,0.0,0.0,0.0,0.0,2.7191,2.7812,2.867,2.9814,3.0408,3.0959,3.148,3.1551,3.1931,3.2574,3.276,3.3133,3.3634,3.3634,3.3609,3.3564,3.3564,3.2737,3.1148,2.8307,2.5798,2.3655,2.2573,2.1983,2.1771,2.177,2.2355,2.318,2.3671,2.426,2.4705,2.4083,0.0,2.3227,2.2416,0.0,0.0,0.0,0.0,2.1358,2.2668,2.2757,2.2776,2.3923,2.419,2.4113,2.3896,2.3285,2.2468,0.0,2.0095,1.8448,1.641,0.0,0.0,0.0,0.0,1.6331,1.6289,1.6153,1.601,1.5914,1.554,1.5465,1.5885,1.5901,1.6082,1.6497,1.6522,1.6522,1.6522,1.609,1.5761,1.5583,0.0,0.0,0.0,0.0,0.0,0.0,0.0,0.0,0.0,0.0,0.0,0.0,0.0,0.0,0.0,0.0,0.0,0.0,0.0,0.0,0.0,0.0,0.0,0.0,0.0,0.0,0.0,0.0,0.0,2.5224,2.6666,0.0,0.0,0.0,0.0,2.7283,2.8115,2.9085,3.0227,3.02,3.0677,3.1828,3.1826,3.2231,3.3077,3.3895,3.4254,3.4183,3.5018,3.5397,3.5359,3.5359,3.5359,3.5372,3.5372,3.4853,3.3814,3.1244,2.795,2.4539,2.4468,2.3969,2.3378,2.4117,2.5239,2.6378,2.6407,2.6446,2.6274,2.5057,2.3768,2.2807,2.3138,2.2246,0.0,0.0,2.2557,2.2736,2.385,2.4114,2.4095,2.419,2.419,2.4208,2.417,2.281,2.1789,0.0,2.233,2.1526,1.977,0.0,1.8901,1.7498,1.7255,1.7206,1.7058,1.7021,1.687,1.6508,1.645,1.6415,1.6454,1.645,1.6484,1.6522,1.6522,1.6522,1.6522,1.6497,1.6191,1.5636,1.5439,0.0,0.0,0.0,0.0,0.0,0.0,0.0,0.0,0.0,0.0,0.0,0.0,0.0,0.0,0.0,0.0,0.0,0.0,0.0,0.0,0.0,0.0,0.0,0.0,0.0,0.0,0.0,0.0,2.7702,2.9246,0.0,0.0,2.86,2.8971,2.927,2.9718,3.0389,3.1404,3.1902,3.2621,3.3646,3.4063,3.4441,3.4807,3.5032,3.5128,3.5147,3.5397,3.5526,3.5493,3.5493,3.5493,3.5493,3.5493,3.5007,3.4083,3.2602,3.0554,2.8243,2.7151,2.6556,2.6322,2.6612,2.7344,2.8135,2.7616,2.7775,2.806,2.7077,2.6067,2.5227,2.5384,2.5059,2.4601,2.4407,2.4666,2.4942,2.4764,2.4556,2.4393,2.4393,2.4284,2.419,2.419,2.353,2.3005,2.3287,2.2183,2.087,1.9756,2.0288,2.0206,1.823,1.8699,1.9111,1.8797,1.8483,1.8216,1.807,1.7727,1.7396,1.7036,1.6988,1.6879,1.6522,1.6522,1.6522,1.6522,1.6522,1.6378,1.6191,1.6115,1.6174,0.0,0.0,0.0,0.0,0.0,0.0,0.0,0.0,0.0,0.0,0.0,0.0,0.0,0.0,0.0,0.0,0.0,0.0,0.0,0.0,0.0,0.0,0.0,0.0,0.0,0.0,3.0499,2.9908,3.1843,3.2667,3.1252,3.1253,3.1468,3.1764,3.1892,3.2338,3.3268,3.3755,3.4292,3.4916,3.5339,3.5603,3.5641,3.5545,3.5526,3.5584,3.5526,3.5493,3.5493,3.5493,3.5493,3.5493,3.5493,3.518,3.4564,3.3699,3.2506,3.1044,2.9063,2.8294,2.8294,2.8294,2.8832,2.9467,2.8929,2.9083,2.939,2.8563,2.7736,2.6986,2.6697,2.6601,2.6399,2.5463,2.5731,2.6104,2.5165,2.4766,2.4591,2.4591,2.4444,2.4303,2.4303,2.4057,2.3855,2.3714,2.2494,2.1296,2.0665,2.1348,2.1157,1.8717,1.9617,2.0147,1.9067,1.9051,1.9169,1.9169,1.8688,1.8224,1.7867,1.7368,1.6967,1.6795,1.6454,1.6337,1.6466,1.6479,1.6479,1.6479,1.6479,1.625,1.5756,0.0,0.0,0.0,0.0,0.0,0.0,0.0,0.0,0.0,0.0,0.0,0.0,0.0,0.0,0.0,0.0,0.0,0.0,0.0,0.0,0.0,0.0,0.0,2.7846,3.1012,3.2926,3.1803,3.4261,3.53,3.3424,3.3398,3.386,3.4719,3.471,3.5037,3.5892,3.5718,3.5603,3.5603,3.5545,3.5493,3.5493,3.5493,3.5493,3.5493,3.5493,3.5493,3.5493,3.5493,3.5493,3.5493,3.5493,3.5493,3.543,3.4526,3.368,3.2699,3.016,2.9159,2.914,2.914,2.9679,3.0398,3.0398,3.0398,3.0275,2.941,2.8582,2.7775,2.6928,2.6678,2.6455,2.5382,2.5697,2.6117,2.512,2.4837,2.4804,2.4804,2.4654,2.4495,2.4495,2.4339,2.4094,2.3774,2.3437,2.3117,2.2772,2.2695,2.181,1.9181,2.0051,0.0,1.7804,1.8815,1.9711,1.9675,1.9192,1.8841,1.8841,1.745,1.6802,1.7271,1.6386,1.602,1.6466,1.6436,1.6392,1.6392,1.6436,1.5656,1.3941,0.0,0.0,0.0,0.0,0.0,0.0,0.0,0.0,0.0,0.0,0.0,0.0,0.0,0.0,0.0,0.0,0.0,0.0,0.0,0.0,0.0,0.0,3.0937,3.0835,3.2837,3.4661,3.5586,3.6442,3.6733,3.6197,3.6064,3.6119,3.6357,3.6221,3.6276,3.6612,3.593,3.5565,3.5603,3.5545,3.5493,3.5493,3.5493,3.5493,3.5493,3.5493,3.5493,3.5493,3.5493,3.5493,3.5493,3.5493,3.5493,3.5391,3.3872,3.3487,3.3641,3.1737,3.0602,3.0044,3.0044,3.0198,3.0398,3.0398,3.0398,3.0359,3.0121,2.9467,2.8717,2.8486,2.8409,2.8236,2.7347,2.7278,2.7248,2.6351,2.5531,2.4956,2.4956,2.4708,2.4495,2.4495,2.4339,2.417,2.4074,2.3996,2.3671,2.2848,2.2695,2.2283,2.1003,2.1147,0.0,2.0141,2.0097,1.9753,1.8708,1.8327,1.7903,1.7411,1.6709,1.6579,1.7271,1.6655,1.638,1.6466,1.6479,1.6479,1.6479,1.6051,1.5555,0.0,0.0,0.0,0.0,0.0,0.0,0.0,0.0,0.0,0.0,0.0,0.0,0.0,0.0,0.0,0.0,0.0,0.0,0.0,0.0,0.0,0.0,3.166,3.3547,3.462,3.5678,3.6855,3.8223,3.8711,3.8926,3.8926,3.8495,3.804,3.7608,3.7115,3.6699,3.6367,3.5815,3.5526,3.5565,3.5526,3.5493,3.5493,3.5493,3.5493,3.5493,3.5493,3.5493,3.5488,3.5122,3.5161,0.0,3.5122,3.4968,3.4911,3.4257,3.3853,0.0,0.0,0.0,0.0,0.0,3.0398,3.0398,3.0398,3.0398,3.0398,3.0398,2.9813,2.9102,2.9102,2.9102,2.8852,2.7678,2.7621,2.7621,2.639,2.5597,2.5141,2.5141,2.4911,2.4693,2.4639,2.4461,2.4303,2.4209,2.419,0.0,2.3236,2.3117,2.2607,2.1084,2.1401,2.1376,2.02,2.0374,2.0203,1.9197,1.8928,1.8622,1.806,1.7234,0.0,0.0,0.0,1.6293,1.6436,1.6479,0.0,0.0,0.0,1.5511,1.4652,0.0,0.0,0.0,1.3496,1.3284,0.0,0.0,0.0,0.0,0.0,0.0,0.0,0.0,0.0,0.0,0.0,0.0,0.0,0.0,0.0,0.0,3.408,3.6119,3.8553,3.8965,3.9277,3.9961,4.0644,4.1016,4.0918,4.0195,3.9322,3.8317,3.7459,3.6613,3.5776,0.0,0.0,0.0,0.0,3.5493,3.5493,3.5493,3.5493,3.5493,3.5493,3.5493,3.5468,3.4699,3.4718,3.5334,3.4641,3.4295,3.4257,3.5026,3.4334,3.2622,3.1141,3.0968,3.1468,3.0698,3.0398,3.0398,3.0398,0.0,0.0,3.0398,2.989,2.9236,2.9236,2.9236,2.8909,2.7332,2.7371,2.7525,2.587,2.536,2.5303,2.5303,2.5152,2.4962,2.4855,2.467,2.4478,2.4303,2.4247,2.4152,2.384,2.3735,2.2894,2.0481,2.1301,2.1424,1.9383,2.0249,2.0846,2.0286,0.0,0.0,1.9558,1.8179,1.7558,1.8052,1.6701,1.602,1.6392,1.6392,1.612,1.5522,1.6032,1.5567,1.3993,1.4468,1.4107,1.3017,1.3488,1.3573,0.0,0.0,0.0,0.0,0.0,0.0,0.0,0.0,0.0,0.0,0.0,0.0,0.0,0.0,0.0,3.4749,3.7264,3.931,4.0527,4.1269,4.1484,4.1016,4.0488,3.9883,3.918,3.8848,3.8307,3.7335,3.7049,3.6781,3.6507,3.5872,0.0,3.5493,3.5493,3.5493,3.5493,3.5493,3.5493,3.5493,0.0,0.0,3.5474,3.5334,3.4968,3.4468,3.5026,3.4853,3.4199,3.4372,3.3468,3.191,3.1583,3.1121,3.0629,3.0456,3.0398,3.0398,3.0398,3.0398,3.0398,3.0398,3.0294,3.016,3.016,3.016,0.0,2.8909,2.8275,2.7659,2.6621,2.5832,2.5303,2.5303,2.5152,2.4998,2.4962,2.4836,2.4731,2.4685,2.4543,2.4426,2.4355,2.4001,2.3338,2.2306,2.2382,2.2344,2.1691,2.1549,2.1005,1.9798,1.9114,1.8679,1.8516,1.7637,1.737,1.8052,1.7021,1.638,1.6479,1.6479,1.6423,1.6293,1.5964,1.5588,1.5264,1.4869,1.4329,1.3637,1.3248,1.3065,0.0,0.0,0.0,0.0,0.0,0.0,0.0,0.0,0.0,0.0,0.0,3.0191,0.0,0.0,3.4807,3.7473,3.9383,4.084,4.168,4.2148,4.2109,4.1308,4.082,4.0215,3.9336,3.9199,3.8572,3.7198,3.7055,3.681,3.6238,3.5795,3.5584,3.5603,3.5545,3.5526,3.5565,3.5526,3.5493,3.5493,3.5493,3.5493,3.5488,3.5045,3.4853,3.4834,3.4391,3.3949,3.3526,3.316,3.2487,3.1718,3.1763,3.1244,3.0448,3.0448,3.0467,3.0506,3.0506,3.0506,3.0506,3.0506,3.0506,3.0506,3.0506,3.0206,2.9675,2.8837,2.8003,2.7149,2.6274,2.5736,2.5409,2.5409,2.532,2.5209,2.5075,2.4989,2.493,2.4814,2.4716,2.4607,2.4528,2.4265,2.3903,2.3282,2.3189,2.3038,2.2554,2.2303,2.1745,2.0671,2.0051,1.9582,1.9298,1.847,1.8011,1.8092,1.7353,1.6909,1.6909,1.6637,1.6522,1.6522,1.6194,1.5732,1.5141,1.4835,1.4247,1.3324,1.3324,1.32,0.0,0.0,0.0,0.0,0.0,0.0,0.0,0.0,2.9516,3.054,3.2115,3.345,3.4049,3.5684,3.7644,3.9803,4.1016,4.1855,4.2324,4.2266,4.1855,4.1035,4.0957,4.0605,3.9726,3.9648,3.8906,3.707,3.7092,3.6756,3.5746,3.5649,3.5631,3.5699,3.5612,3.5554,3.5622,3.5584,3.5545,3.5545,3.5545,3.5545,3.5526,3.4814,3.4776,3.5185,3.3603,3.3026,3.3154,3.2359,3.2011,3.1992,3.191,3.1328,3.0544,3.0505,3.0546,3.0595,3.0595,3.0595,3.0595,3.0595,3.0595,3.0595,3.0595,2.9995,2.9126,2.8335,2.7479,2.6593,2.5725,2.5502,2.5502,2.5502,2.5502,2.5436,2.5206,2.5149,2.5107,2.4936,2.4874,2.4785,2.462,2.4575,2.4355,2.3798,2.3692,2.3477,2.2873,2.2746,2.2468,2.189,2.1321,2.0797,2.0212,1.9398,1.8727,1.8302,1.7747,1.7435,1.7312,1.6879,1.6595,1.6522,1.6522,1.602,1.5062,1.5062,1.4433,1.3248,1.3742,1.36,2.1801,2.2239,2.3586,2.6068,2.6181,2.6922,0.0,0.0,3.3286,3.4938,3.6659,3.7655,3.699,3.8904,4.0701,4.1016,4.2383,4.3183,4.25,4.1777,4.1016,4.0156,4.0059,3.9707,3.8828,3.875,3.7988,3.6172,3.6756,3.6765,3.5741,3.5694,3.5698,3.5713,3.5679,3.567,3.568,3.568,3.568,3.568,3.568,3.568,3.568,3.5584,3.5128,3.437,3.334,3.3442,3.4257,3.3263,3.2935,3.2955,3.2204,3.1398,3.0675,3.0607,3.0594,3.0594,3.0594,3.0594,3.0594,3.0594,3.0594,3.0594,3.0594,2.9985,2.9123,2.834,2.7479,2.6605,2.5735,2.5507,2.5507,2.5507,2.5507,2.5477,2.5383,2.5374,2.5341,2.5273,2.5107,2.4974,2.4949,2.4836,2.4522,2.3801,2.3692,2.3566,2.3189,2.288,2.2669,2.2591,2.1622,2.0665,1.9854,1.9229,1.8855,1.8817,1.8302,1.7787,1.7312,1.7229,1.6993,1.6522,1.6522,1.6423,1.6293,1.6293,1.57,1.4525,1.456,1.3978,2.4477,2.536,0.0,0.0,3.0423,3.1762,3.494,3.6064,3.6781,3.8007,3.9629,4.0566,3.9726,4.0859,4.1894,0.0,4.248,4.2656,4.1816,4.0976,3.9746,3.7851,3.7187,3.7129,3.7773,3.7832,3.7324,3.6055,3.6309,3.6326,3.5896,3.5835,3.5838,3.5864,3.5756,3.5736,3.5819,3.5732,3.5699,3.5699,3.5699,3.5699,3.5679,3.5125,3.4149,3.284,3.2473,3.2269,3.2192,3.1814,3.1671,3.167,3.1414,3.1059,3.0702,3.0656,3.0717,3.076,3.076,3.076,3.076,3.076,3.076,3.0682,3.0174,2.9765,2.9196,2.7847,2.7203,2.6715,2.5842,2.5629,2.5629,2.5629,2.5629,2.5605,2.5537,2.5512,2.5505,2.5428,2.5349,2.525,2.5143,2.5042,2.4829,2.4404,2.4331,2.4192,2.371,2.3545,2.317,2.2451,2.1927,2.1319,2.0532,2.0246,2.0112,2.0112,1.939,1.8745,1.8207,1.7612,1.7034,1.6522,1.6522,1.6337,1.5964,1.5964,1.5555,1.4698,1.4698,1.4247,2.6676,0.0,0.0,3.24,3.4456,3.623,3.7973,3.9217,4.0181,4.082,4.1914,4.2441,4.1387,4.168,0.0,4.1758,4.1914,4.1777,4.0957,3.9883,3.8398,3.625,3.5019,3.4844,3.6094,3.666,3.668,3.6055,3.6445,3.6601,3.6367,3.6309,3.6309,3.6367,3.5985,3.5828,3.5937,3.5828,3.5788,3.5788,3.5788,3.5788,3.5768,3.5061,3.3838,3.2259,3.2516,3.2023,3.103,3.1047,3.105,3.1023,3.0944,3.0839,3.0722,3.0482,3.0599,3.0898,3.0898,3.0898,3.0859,3.0625,3.0547,3.0371,2.9512,2.9062,2.8613,2.7363,2.6836,2.6504,2.5859,2.5703,2.5702,2.5681,2.5673,2.5642,2.556,2.5534,2.5538,2.5466,2.5439,2.5401,2.5258,2.5209,2.5125,2.4995,2.4984,2.4804,2.421,2.4025,2.3462,2.2245,2.2096,2.1811,2.1055,2.0991,2.0926,2.0829,2.0181,1.9498,1.8858,1.7999,1.7271,1.671,1.6595,1.6281,1.5864,1.5864,1.5454,1.4698,1.488,1.456,0.0,0.0,3.1546,3.5018,3.7196,3.8945,4.0683,4.2363,4.3555,4.3574,4.3633,4.3164,4.1504,4.1211,4.0957,4.0117,4.0684,4.0937,4.0059,3.8457,3.7031,3.6113,3.4473,3.3457,0.0,3.5059,3.6035,3.5996,3.7578,3.8144,3.7305,3.7266,3.7266,3.7266,3.6426,3.5996,3.5996,3.5996,3.5996,3.5996,3.5996,3.5996,3.5995,3.5896,3.4948,3.3397,3.4106,3.3555,3.2146,3.2006,3.2038,3.207,3.123,3.0911,3.0797,2.9946,3.0176,3.0898,3.0898,3.0898,3.0762,2.9902,2.9648,2.9473,2.8594,2.7754,2.707,2.7012,2.6387,2.5723,2.5703,2.5703,2.5673,2.5619,2.5611,2.5575,2.5438,2.5411,2.5388,2.5312,2.5312,2.5293,2.5293,2.5354,2.5398,2.5379,2.5432,2.5249,2.4578,2.4022,2.3305,2.2218,2.2096,2.1811,2.1055,2.0991,2.0797,2.0348,2.028,1.9849,1.893,1.838,1.7827,1.7312,1.6752,1.6479,1.6466,1.6466,1.5876,1.4698,1.532,1.4949,3.0115,0.0,3.5932,3.9387,4.1112,4.2441,4.4199,4.457,4.4238,4.3086,4.1952,4.0486,3.8164,3.7754,3.7656,3.7363,3.8535,3.918,3.8301,3.7676,3.6348,3.3789,3.2969,0.0,0.0,0.0,0.0,3.5098,3.6211,3.6992,3.7285,3.7851,3.7891,3.7324,3.7012,3.6582,3.6016,3.5996,3.5996,3.5996,3.5996,3.5371,3.4238,3.482,3.3838,3.1685,3.3134,3.2845,3.1387,3.1906,3.1816,3.1309,3.1016,3.0909,3.0852,3.0563,3.0273,3.0039,3.0039,3.0039,2.998,2.9707,2.9219,2.8574,2.7695,2.7637,2.7614,2.6412,2.6694,2.7225,2.6597,2.6852,2.7132,2.6533,2.6392,2.6227,2.56,2.5468,2.5456,2.5441,2.5428,2.5428,2.5428,2.5418,2.5389,2.5349,2.5278,2.5152,2.4931,2.462,2.4155,2.3448,2.336,2.3111,2.2522,2.2262,2.2051,2.1893,2.1425,2.0733,1.9808,1.9339,1.8684,1.7867,1.7312,1.7034,1.7034,1.6256,1.5688,1.5276,1.4687,1.4179,3.309,3.6284,3.9435,4.2558,4.375,4.4453,4.5586,4.4707,4.3144,4.1406,3.9447,3.7348,3.5036,3.4375,3.4277,3.455,3.5566,3.6328,3.6367,3.6094,3.5215,3.332,3.2812,0.0,0.0,0.0,0.0,3.4629,3.6074,3.7168,3.7734,3.8594,3.8809,3.8242,3.7617,3.7031,3.6465,3.6152,3.5996,3.5996,3.5996,3.5391,3.4277,3.457,3.359,3.1739,3.2895,3.2441,3.0976,3.1836,3.1699,3.0898,3.0898,3.0898,3.0859,3.0547,3.0273,3.0019,2.9707,2.9394,2.9082,2.8769,2.8281,2.7675,2.6766,2.711,2.7547,2.6355,2.7065,2.7992,2.7295,2.7547,2.7788,2.7133,2.6768,2.639,2.5791,2.544,2.5241,2.5241,2.5241,2.5241,2.5241,2.5204,2.5182,2.5157,2.5117,2.5102,2.5091,2.4943,2.4659,2.4197,2.4133,2.3913,2.3348,2.3118,2.2902,2.2669,2.2113,2.1379,2.0442,1.9893,1.9133,1.8145,1.7585,1.7188,1.6993,1.6299,1.5688,1.5276,1.4675,1.4226,3.6367,3.9412,4.1986,4.4453,4.5039,4.498,4.4883,4.2891,4.0527,3.8652,3.6237,3.389,0.0,0.0,3.1054,3.1893,3.2206,3.291,3.4609,3.416,3.3965,0.0,0.0,0.0,0.0,0.0,0.0,3.4766,0.0,3.8574,3.8652,3.9492,3.9941,3.9902,3.8242,3.7363,3.7363,3.6504,3.6035,3.5996,3.5996,3.5976,3.5918,3.5078,3.4199,3.334,3.3379,3.2441,3.0976,3.1894,3.1719,3.0898,3.0957,3.0937,3.0801,2.9961,3.0156,3.0703,2.9824,2.8984,2.8164,2.7285,2.6952,2.6767,2.5925,2.6233,2.6875,2.6803,2.7437,2.8068,2.777,2.7749,2.7733,2.7438,2.6728,2.6124,2.601,2.5359,2.4771,2.4771,2.4771,2.4771,2.4771,2.4761,2.4801,2.4827,2.4974,2.5075,2.5109,2.4983,2.4801,2.4468,2.4436,2.4202,2.3622,2.3539,2.3303,2.2733,2.2346,2.1773,2.0925,2.0104,1.9207,1.8249,1.7626,1.7076,1.6595,1.6509,1.5888,1.4744,1.5276,1.4903,3.9375,4.209,4.4335,4.5644,4.5488,4.4668,4.3359,4.1094,3.8221,3.4521,3.2238,3.0169,0.0,0.0,0.0,3.0957,3.281,0.0,3.6387,3.6992,0.0,0.0,0.0,3.6055,3.5391,3.5918,0.0,0.0,3.7246,3.8203,3.9492,4.0391,4.0566,3.9922,3.8848,3.8262,3.8262,3.7402,3.6641,3.5996,3.5996,3.5664,3.5019,3.4805,3.3906,3.2539,3.3144,3.2441,3.1016,3.248,3.2226,3.0957,3.1601,3.1465,3.0879,3.0644,3.0293,2.9803,2.8888,2.8435,2.8142,2.7237,2.6486,2.6021,2.6391,2.6648,2.6768,2.655,2.7555,2.8479,2.756,2.8248,2.902,2.8289,2.7499,2.6744,2.6136,2.5177,2.4425,2.4425,2.4425,2.4425,2.4425,2.4439,2.4353,2.4116,2.4357,2.4698,2.5068,2.5153,2.5138,2.495,2.4913,2.479,2.4482,2.4286,2.408,2.3878,2.3178,2.253,2.2024,2.1113,2.0366,1.9763,1.8531,1.7827,1.7706,1.6446,1.5676,1.5365,1.4595,1.4086,4.1699,4.3906,4.5605,4.5703,4.4785,4.33,4.1179,3.8129,3.4845,3.1617,2.9292,0.0,0.0,0.0,0.0,0.0,0.0,0.0,3.4256,3.5878,3.6992,0.0,3.7637,0.0,3.7187,3.7578,3.8027,0.0,3.8437,3.8867,3.9844,4.0723,4.0976,4.0488,3.9629,3.8809,3.8047,3.7539,3.6855,3.5996,3.5996,3.5742,3.5254,3.4863,3.3984,3.2734,0.0,3.2129,3.0976,3.1914,3.1758,3.0957,3.1445,3.1328,3.0898,3.0898,3.032,2.943,2.8526,2.7961,2.7493,2.6572,2.5953,2.5698,2.6508,2.6929,2.7192,2.7393,2.832,2.9085,2.8349,2.8857,2.942,2.8801,2.7677,2.6596,2.6134,2.4872,2.3817,2.3817,2.3817,2.3817,2.3817,2.3817,2.3759,2.3557,2.38,2.4161,2.4556,2.4984,2.5216,2.5117,2.5185,2.5161,2.4947,2.4793,2.4645,2.4524,2.3966,2.3324,2.2649,2.1966,2.1175,2.0252,1.9266,1.8646,1.8416,1.7011,1.6232,1.5928,1.5039,1.4457,4.3594,4.5156,4.6094,4.5215,4.3516,4.1384,3.8756,3.4851,3.1237,2.9367,0.0,2.5566,2.5454,0.0,2.5933,2.6169,0.0,2.9316,3.1301,3.3572,3.5684,3.7441,3.8418,3.8945,3.8945,3.8945,3.9258,4.0019,4.0078,4.0078,4.0078,4.0781,4.1152,4.1035,4.041,3.918,3.7324,3.7402,3.6973,3.5996,3.5996,3.5996,3.5976,3.498,3.4121,3.3359,3.2422,0.0,3.0918,3.1016,3.0996,3.0918,3.1011,3.0987,3.0871,3.0856,3.0345,2.9496,2.8522,2.7634,2.6805,2.581,2.5495,2.563,2.6416,2.709,2.7694,2.8232,2.8906,2.9419,2.9116,2.9076,2.9054,2.8838,2.7345,2.5971,2.5835,2.4295,2.3021,2.3168,2.3122,2.3052,2.3117,2.3093,2.3069,2.3087,2.3216,2.3451,2.3775,2.452,2.5004,2.502,2.5185,2.5238,2.5056,2.5109,2.5077,2.4897,2.4612,2.4054,2.3178,2.2735,2.1881,2.0509,2.0039,1.9495,1.8904,1.7946,1.7149,1.6519,1.5971,1.541,4.5371,4.6074,4.6094,4.5215,4.2656,3.9624,3.6956,3.3025,0.0,0.0,0.0,2.5374,2.4655,2.5715,0.0,2.8608,0.0,0.0,0.0,0.0,3.75,0.0,0.0,0.0,0.0,0.0,0.0,0.0,0.0,4.0976,4.0976,4.1113,4.0879,4.0156,4.0684,3.9785,3.7324,3.8008,3.7578,3.5996,3.5996,3.5996,3.5957,3.4355,3.3535,3.332,3.1797,0.0,3.0957,3.168,3.1543,3.0956,3.1564,3.1362,3.0742,3.0678,3.0559,3.0185,2.8599,2.7941,2.7536,2.5928,2.5428,2.5543,2.619,2.6905,2.7343,2.6484,2.7267,2.8184,2.7311,2.7332,2.7585,2.7592,2.6577,2.5348,2.4401,2.2946,2.2061,2.296,2.2671,2.2398,2.2729,2.2504,2.2334,2.2453,2.2388,2.2479,2.288,2.359,2.416,2.4492,2.4689,2.4822,2.4768,2.518,2.5391,2.5294,2.4941,2.4632,2.439,2.3602,2.2799,2.2034,2.1193,2.0336,1.9462,1.8829,1.8076,1.7133,1.6519,1.5959,4.5957,4.6308,4.5976,4.4648,4.1758,3.8395,3.5265,0.0,0.0,0.0,0.0,2.4878,2.4923,0.0,0.0,0.0,0.0,0.0,0.0,0.0,0.0,0.0,0.0,0.0,0.0,0.0,0.0,0.0,0.0,4.1191,4.1191,4.1191,4.0801,3.9922,4.0742,3.9941,3.7324,3.8164,3.7734,3.5996,3.5996,3.5996,3.5957,3.4668,3.3828,3.334,3.203,0.0,3.0833,3.1219,3.112,3.0781,3.113,3.1013,3.0645,3.0617,3.0034,2.9135,2.829,2.7311,2.6293,2.5458,2.519,2.5386,2.645,2.683,2.6859,2.6767,2.7077,2.7227,2.6325,2.6518,2.701,2.7046,2.6222,2.5072,2.3689,2.2817,2.2329,2.2491,2.2259,2.1991,2.1849,2.1657,2.1566,2.1615,2.1573,2.168,2.2027,2.2225,2.2752,2.3834,2.3931,2.4124,2.4658,2.4943,2.5171,2.5383,2.5242,2.501,2.4709,2.4166,2.3621,2.3026,2.2055,2.1361,2.091,1.9758,1.8956,1.8478,1.7382,1.6744,4.5683,4.6152,4.584,4.3906,4.0703,3.7166,3.3782,2.97,0.0,0.0,2.4931,2.4667,2.534,0.0,0.0,0.0,0.0,0.0,0.0,0.0,0.0,0.0,0.0,0.0,0.0,0.0,0.0,0.0,0.0,0.0,4.1191,4.1191,4.0801,3.9922,4.0566,3.9766,3.7324,3.7988,3.7539,3.5996,3.5996,3.5993,3.5932,3.4881,3.401,3.3293,3.2182,0.0,0.0,3.0613,3.0605,3.0605,3.0586,3.0461,3.0294,3.0239,2.924,2.7876,2.7662,2.6541,2.5165,2.4891,2.4815,2.5061,2.618,2.6247,2.6081,2.6578,2.6519,2.6118,2.5401,2.5729,2.6254,2.6202,2.5462,2.4412,2.3315,2.2886,2.2613,2.2331,2.2049,2.172,2.1295,2.1006,2.0891,2.0986,2.0915,2.0977,2.1356,2.1081,2.14,2.2805,2.2996,2.3351,2.4134,2.4511,2.4834,2.5171,2.5373,2.5292,2.4829,2.4703,2.4347,2.3787,2.3048,2.247,2.2096,2.0799,1.9986,1.957,1.8377,1.7612,4.4433,4.5703,4.5683,4.3144,3.9355,3.5526,3.2755,0.0,0.0,2.5453,2.5354,2.5297,2.5311,0.0,0.0,0.0,0.0,2.7835,0.0,0.0,0.0,0.0,0.0,0.0,0.0,0.0,0.0,0.0,0.0,0.0,4.1191,4.1191,4.0801,3.9922,3.998,3.9141,3.7324,3.7383,3.6934,3.5996,3.5996,3.5977,3.5861,3.4179,3.3352,3.3131,3.1456,0.0,0.0,3.0598,3.0609,3.059,3.0521,3.0029,2.9302,2.9053,2.8389,2.7504,2.6522,2.6057,2.5718,2.4484,2.4223,2.436,2.4321,2.4547,2.4685,2.3856,2.4093,2.4527,2.4086,2.4196,2.4421,2.4346,2.3465,2.272,2.3157,2.2507,2.2106,2.3002,2.2205,2.1487,2.1839,2.1054,2.0512,2.0927,2.0655,2.0514,2.099,2.0655,2.0573,2.1179,2.1958,2.2515,2.2607,2.3894,2.463,2.4503,2.5138,2.5395,2.5156,2.5309,2.5065,2.4337,2.4418,2.3676,2.2096,2.2146,2.1269,1.9606,1.9462,1.8631,4.3359,4.5234,4.5664,4.3047,3.9146,3.5243,3.2601,0.0,2.5457,2.5361,2.5351,2.5322,2.5293,0.0,0.0,0.0,0.0,0.0,0.0,0.0,0.0,0.0,0.0,0.0,0.0,0.0,0.0,0.0,0.0,0.0,4.043,4.043,4.0019,3.9141,3.9121,3.8281,3.6523,3.7005,3.6798,3.5935,3.585,3.5546,3.5029,3.3801,3.2941,3.2348,3.1091,0.0,0.0,3.0506,3.0179,2.9679,2.9525,2.8983,2.8211,2.7975,2.7222,2.6268,2.5853,2.5465,2.4999,2.4032,2.3855,2.4068,2.4195,2.4225,2.4083,2.3432,2.3613,2.3667,2.2448,2.2831,2.3643,2.4153,2.3904,2.3557,2.3466,2.2847,2.2325,2.231,2.1595,2.0902,2.0645,2.0235,2.0001,2.0193,1.9798,1.9657,2.0153,1.9752,1.966,2.0177,2.0761,2.1471,2.2321,2.2965,2.3527,2.4013,2.4655,2.4987,2.4897,2.5176,2.518,2.4898,2.4521,2.4007,2.3301,2.2579,2.1854,2.1067,2.0051,1.9119,4.039,4.2851,4.3848,4.1484,3.7784,3.4138,0.0,0.0,2.5082,2.5264,2.5303,2.5283,2.5261,2.522,2.519,2.5168,2.5217,2.5768,0.0,0.0,0.0,0.0,0.0,0.0,0.0,0.0,0.0,0.0,0.0,0.0,0.0,3.9259,3.8822,3.8218,3.8198,3.7448,3.5925,3.6479,3.633,3.5495,3.5378,3.4889,3.4062,3.3175,3.2435,3.178,3.0871,0.0,0.0,3.033,2.978,2.8994,2.8802,2.8051,2.7091,2.6814,2.5998,2.5022,2.4875,2.4538,2.4068,2.3341,2.3203,2.3364,2.3377,2.3313,2.3124,2.271,2.2654,2.2492,2.1605,2.1882,2.2631,2.364,2.3731,2.3501,2.3113,2.2688,2.228,2.1769,2.1224,2.0627,2.0123,1.9716,1.9468,1.9468,1.9,1.8819,1.9194,1.8889,1.8858,1.9411,1.9726,2.04,2.1657,2.2166,2.2643,2.326,2.4003,2.4469,2.4519,2.4857,2.5191,2.5483,2.485,2.4501,2.4479,2.3343,2.2556,2.2051,2.0879,1.9778,3.4938,3.7871,3.9551,3.7793,3.4676,3.1584,0.0,0.0,2.4408,2.5159,2.5302,2.529,2.5203,2.5191,2.518,2.5113,2.5113,0.0,0.0,0.0,0.0,0.0,0.0,0.0,0.0,0.0,0.0,0.0,0.0,0.0,0.0,3.7722,3.7217,3.7217,3.7217,3.6717,3.5703,3.5703,3.5318,3.452,3.452,3.4007,3.307,3.2216,3.178,0.0,0.0,0.0,0.0,3.0103,2.9532,2.8782,2.8578,2.7481,2.5947,2.5486,2.478,2.3948,2.3401,2.323,2.3093,2.2354,2.2124,2.1984,2.1259,2.1323,2.1538,2.1134,2.0698,2.0655,2.1945,2.1496,2.1054,2.2392,2.2235,2.1731,2.1731,2.1709,2.1713,2.1713,2.1209,2.0783,2.0812,1.9749,1.8905,1.8905,1.8462,1.8111,1.8102,1.8107,1.8289,1.8834,1.8905,1.9307,2.0243,2.158,2.231,2.2113,2.3181,2.3898,2.4095,2.4492,2.5169,2.6172,2.5723,2.5454,2.5373,2.4703,2.3587,2.2096,2.2079,2.0878,3.1312,3.358,3.4715,3.3015,3.0812,2.8606,2.6864,0.0,2.3332,2.4115,2.4266,2.4454,2.5041,2.5057,2.4987,2.4974,2.4955,0.0,0.0,0.0,0.0,0.0,0.0,0.0,0.0,0.0,0.0,0.0,0.0,0.0,0.0,3.7107,3.6573,3.7184,3.6535,3.5746,3.4881,3.4792,3.4342,3.3532,3.3455,3.2961,3.2102,3.1092,3.0598,0.0,0.0,0.0,0.0,2.8419,2.7665,2.6843,2.6465,2.5616,2.4579,2.4049,2.3562,2.3088,2.2915,2.2859,2.2733,2.2007,2.1903,2.1906,2.0838,2.0843,2.1291,2.1769,2.0895,2.0294,2.2113,2.1671,2.0985,2.1826,2.1865,2.1693,2.1711,2.1368,2.1072,2.1073,2.0578,2.0103,2.0103,1.9136,1.8351,1.8303,1.7181,1.66,1.7368,1.7145,1.7281,1.8262,1.8693,1.9292,2.0207,2.0705,2.1199,2.1725,2.244,2.3241,2.4127,2.4912,2.5714,2.6535,2.6178,2.5975,2.5946,2.4766,2.3466,2.2079,2.1723,2.0908,0.0,2.9149,3.0221,2.9168,2.7558,0.0,0.0,0.0,2.2288,2.3193,2.3587,2.3921,2.4467,2.4739,2.4847,2.4818,2.4823,0.0,0.0,0.0,0.0,0.0,0.0,0.0,0.0,0.0,0.0,0.0,0.0,0.0,0.0,3.637,3.5886,3.6092,3.5828,3.5424,3.4879,3.4462,3.3846,3.3019,3.2532,3.1705,3.0574,2.9851,2.9311,0.0,0.0,0.0,0.0,2.7401,2.6585,2.5699,2.5295,2.4559,2.3648,2.3177,2.277,2.2479,2.2346,2.2198,2.1947,2.131,2.1007,2.0752,1.9995,1.996,2.0299,2.0876,2.024,1.9738,2.1237,2.1042,2.0508,2.0873,2.0731,2.0494,2.0187,2.0067,1.9985,1.9991,1.99,1.9709,1.9443,1.8685,1.7929,1.7389,1.63,1.5723,1.6173,1.6159,1.6436,1.7368,1.818,1.9046,2.0042,2.0464,2.1039,2.1811,2.234,2.3089,2.4173,2.4814,2.5776,2.7039,2.6611,2.6469,2.6646,2.4936,2.3876,2.3431,2.2194,2.1289,0.0,2.4652,0.0,0.0,0.0,0.0,0.0,0.0,0.0,2.2362,2.3107,2.3607,2.3676,2.4284,2.4783,2.4707,2.4679,0.0,0.0,0.0,0.0,0.0,0.0,0.0,0.0,0.0,0.0,0.0,0.0,0.0,0.0,3.567,3.5199,3.4327,3.5084,3.5411,3.5238,3.443,3.3583,3.2686,3.1666,3.0352,2.8769,2.8506,2.7975,0.0,0.0,0.0,0.0,2.6803,2.6079,2.5124,2.4864,2.4075,2.3076,2.2746,2.2371,2.1967,2.1672,2.1291,2.0861,2.0348,1.9564,1.8855,1.8855,1.8855,1.8869,1.8955,1.8955,1.9111,1.974,1.984,1.9733,1.9652,1.9095,1.8458,1.7763,1.8123,1.859,1.8621,1.9202,1.9519,1.8836,1.8366,1.7674,1.6436,1.5789,1.5262,1.4731,1.5152,1.5715,1.6318,1.7454,1.8623,1.98,2.073,2.1563,2.2248,2.2734,2.3347,2.4204,2.4437,2.5534,2.7624,2.7096,2.7001,2.7407,2.5356,2.4853,2.5712,2.3454,2.2187,2.0126,0.0,2.0945,2.1094,2.1306,2.1316,0.0,0.0,0.0,0.0,0.0,2.2731,2.337,2.4114,2.4629,2.4631,0.0,0.0,0.0,0.0,0.0,0.0,0.0,0.0,0.0,0.0,0.0,0.0,0.0,0.0,0.0,3.5965,3.518,3.4237,3.441,3.391,3.2622,3.2391,3.1751,3.0682,3.0428,2.9692,2.8528,2.7672,2.7156,0.0,0.0,0.0,2.5408,2.4725,2.4154,2.3647,2.3334,2.2885,2.2317,2.1989,2.1586,2.1234,2.1167,2.085,2.0345,1.9509,1.8808,1.8302,1.8302,1.8302,1.8484,1.9433,1.9622,1.9693,2.0092,1.9947,1.9454,1.8763,1.8238,1.7798,1.7623,1.7754,1.7857,1.7856,1.8446,1.8924,1.8709,1.7927,1.7151,1.6856,1.5205,1.4132,1.4411,1.4328,1.4787,1.6248,1.7028,1.8131,1.9849,2.0514,2.1253,2.224,2.239,2.3111,2.4612,2.5007,2.588,2.7373,2.7592,2.7611,2.7407,2.7078,2.6753,2.6355,2.5815,2.4978,1.918,1.9502,1.9842,1.9973,2.0628,2.1139,2.0729,0.0,0.0,0.0,0.0,2.2207,2.2632,2.3742,0.0,0.0,0.0,0.0,0.0,0.0,0.0,0.0,0.0,0.0,0.0,0.0,0.0,0.0,0.0,0.0,0.0,3.543,3.4545,3.3622,3.3133,3.2631,3.2119,3.1717,3.0983,2.9912,2.978,2.8848,2.7203,2.6747,2.6123,0.0,0.0,0.0,2.4086,2.3638,2.3147,2.2686,2.2521,2.2096,2.1562,2.1383,2.0895,2.0376,2.0376,1.9908,1.9217,1.8711,1.7961,1.7353,1.7576,1.7248,1.7061,1.8275,1.8763,1.8884,1.8754,1.8685,1.8483,1.7687,1.73,1.7002,1.6649,1.6853,1.7116,1.7104,1.7521,1.7966,1.8152,1.7324,1.6605,1.6516,1.5212,1.4265,1.4265,1.4169,1.451,1.5657,1.6658,1.7837,1.9391,2.053,2.1528,2.242,2.2763,2.342,2.4575,2.5072,2.595,2.7286,2.7652,2.7913,2.8096,2.7774,2.7658,2.7692,2.7067,2.641,1.8982,1.9805,2.0633,2.0588,2.1285,2.1981,2.1969,0.0,0.0,0.0,0.0,0.0,0.0,0.0,0.0,0.0,0.0,0.0,0.0,0.0,0.0,0.0,0.0,0.0,0.0,0.0,0.0,0.0,0.0,0.0,0.0,3.4487,3.359,3.2679,3.1661,3.1371,3.1914,3.1207,3.0424,2.9542,2.9195,2.781,2.5597,2.5819,2.5082,2.3588,0.0,0.0,2.3028,2.2961,2.2539,2.1927,2.1927,2.1456,2.0781,2.0781,2.0181,1.9353,1.9266,1.865,1.7936,1.7842,1.7138,1.6409,1.6831,1.6173,1.5568,1.6622,1.7362,1.7681,1.7047,1.7196,1.7389,1.6591,1.6384,1.6106,1.5359,1.58,1.629,1.6191,1.6595,1.7045,1.7387,1.6751,1.6178,1.6024,1.5465,1.4865,1.4277,1.4296,1.4592,1.5185,1.6441,1.7652,1.866,2.0483,2.1824,2.2369,2.3172,2.3837,2.4389,2.491,2.5806,2.7144,2.7406,2.7948,2.8913,2.8085,2.8193,2.9101,2.7975,2.7361,1.8679,1.9938,2.1152,2.0634,2.1622,2.2557,2.1896,0.0,0.0,0.0,0.0,0.0,0.0,0.0,0.0,0.0,0.0,0.0,0.0,0.0,0.0,0.0,0.0,0.0,0.0,0.0,0.0,0.0,0.0,0.0,0.0,3.3564,3.2615,3.158,3.0739,2.9798,2.8802,2.8866,2.8736,2.8353,2.7625,2.6483,2.502,2.5055,2.4405,2.3259,0.0,2.2531,2.2245,2.1905,2.1529,2.1165,2.1165,2.0618,1.9818,1.9818,1.9156,1.8274,1.7746,1.7424,1.7156,1.6602,1.6244,1.609,1.6169,1.588,1.5605,1.5829,1.6771,1.7551,1.722,1.7286,1.7193,1.6381,1.5879,1.5349,1.4541,1.5022,1.5342,1.4713,1.5654,1.6612,1.666,1.6578,1.6458,1.6434,1.5499,1.4802,1.4697,1.4351,1.4553,1.5678,1.653,1.7347,1.802,1.9835,2.1008,2.1157,2.2703,2.3837,2.4389,2.491,2.5644,2.6622,2.6874,2.7647,2.8887,2.8983,2.9265,2.9766,2.9552,2.9182,1.8566,1.9874,2.1159,2.1061,2.2337,2.351,0.0,0.0,0.0,0.0,0.0,0.0,0.0,0.0,0.0,0.0,0.0,0.0,0.0,0.0,0.0,0.0,0.0,0.0,0.0,0.0,0.0,0.0,0.0,0.0,0.0,0.0,3.1618,3.0686,2.9599,2.8444,2.7246,2.6782,2.6499,2.6374,2.6447,2.5594,2.3986,2.4289,2.3734,2.2583,0.0,2.1852,2.1502,2.1319,2.0975,2.0583,2.0333,1.9834,1.9111,1.8204,1.7585,1.704,1.6139,1.584,1.5739,1.5453,1.523,1.5117,1.5117,1.4727,1.4305,1.4492,1.5109,1.5685,1.542,1.5361,1.5188,1.4604,1.4578,1.4501,1.3754,1.4016,1.4342,1.4055,1.4501,1.5264,1.629,1.5979,1.58,1.6407,1.5708,1.5117,1.5117,1.4733,1.4778,1.5522,1.6092,1.6579,1.7113,1.9007,2.0686,2.1812,2.2656,2.3522,2.4348,2.4302,2.4753,2.5773,2.6387,2.6982,2.7624,2.8599,2.9173,2.9372,2.973,2.9751,1.8428,1.9532,2.0794,2.1236,2.257,0.0,0.0,0.0,0.0,0.0,0.0,0.0,0.0,0.0,0.0,0.0,0.0,0.0,0.0,0.0,0.0,0.0,0.0,0.0,0.0,0.0,0.0,0.0,0.0,0.0,0.0,0.0,3.0094,2.9368,2.8125,2.7022,2.6133,2.5063,2.4613,2.4792,2.5229,2.4534,2.2972,2.3362,2.2942,2.1811,2.1458,2.1134,2.0829,2.0616,2.0299,1.9919,1.9287,1.8655,1.7918,1.6536,1.6003,1.586,1.4824,1.4545,1.4587,1.4305,1.4132,1.4043,1.3891,1.3268,1.2654,1.3103,1.3164,1.3165,1.3526,1.3451,1.3199,1.304,1.33,1.344,1.2729,1.294,1.3235,1.3246,1.3438,1.4127,1.5722,1.541,1.5255,1.6123,1.5732,1.541,1.541,1.5109,1.5041,1.5342,1.5767,1.6305,1.6946,1.8548,2.0312,2.2132,2.2543,2.3172,2.4184,2.3791,2.3975,2.4982,2.5652,2.6179,2.6505,2.7738,2.8481,2.8769,2.937,2.9706,1.8074,1.8899,1.9962,2.0664,2.169,0.0,2.4803,2.4447,0.0,2.4765,0.0,0.0,0.0,0.0,0.0,0.0,0.0,0.0,0.0,0.0,0.0,0.0,0.0,0.0,0.0,0.0,0.0,0.0,0.0,0.0,0.0,0.0,0.0,2.7138,2.6079,2.534,2.5018,2.3897,2.3697,2.4431,2.3732,2.2985,2.218,2.2231,2.1803,2.1055,2.0583,2.0382,2.028,1.9419,1.9029,1.8902,1.7785,1.6696,1.568,1.5028,1.4835,1.4744,1.4097,1.4089,1.425,1.3061,1.2883,1.3095,1.2431,1.1671,1.1246,1.1991,1.113,1.0464,1.2505,1.2603,1.2272,1.257,1.2419,1.203,1.1219,1.1653,1.2053,1.1567,1.2756,1.3898,1.428,1.4945,1.541,1.5488,1.542,1.541,1.541,1.5342,1.5342,1.541,1.6005,1.7047,1.8436,1.8804,1.9541,2.0868,2.2025,2.2965,2.3638,2.3638,2.3859,2.4463,2.4533,2.5187,2.6505,2.6639,2.7245,2.8356,2.8769,2.9144,1.7944,1.8989,2.0194,2.0635,2.1364,0.0,0.0,2.4817,2.4606,2.4807,0.0,0.0,0.0,0.0,0.0,0.0,0.0,0.0,0.0,0.0,0.0,0.0,0.0,0.0,0.0,0.0,0.0,0.0,0.0,0.0,0.0,0.0,0.0,2.593,2.5358,2.4554,2.3536,2.2874,2.2539,2.266,2.2552,2.2135,2.1428,2.1428,2.1101,2.055,2.0382,1.9954,1.9383,1.9029,1.8468,1.7719,1.6612,1.5692,1.4937,1.4365,1.4143,1.4003,1.2928,1.2656,1.2632,1.1745,1.1748,1.2014,1.1467,1.0987,1.0707,1.0899,1.0085,0.9514,1.1058,1.1224,1.0949,1.0861,1.1072,1.1081,1.0387,1.0621,1.1001,1.1015,1.1673,1.2676,1.3988,1.4424,1.4809,1.5332,1.541,1.5293,1.5074,1.5262,1.5312,1.5049,1.5484,1.6255,1.7246,1.7821,1.8474,1.9371,2.074,2.1801,2.2405,2.2443,2.2692,2.3317,2.4043,2.4656,2.5187,2.6071,2.6749,2.7198,2.7954,2.8557,1.8172,1.9151,2.0286,2.0766,0.0,0.0,2.4646,2.5064,2.4996,2.5249,0.0,0.0,0.0,0.0,0.0,0.0,0.0,0.0,0.0,0.0,0.0,0.0,0.0,0.0,0.0,0.0,0.0,0.0,0.0,0.0,0.0,0.0,2.5634,2.4827,2.4406,2.3649,2.2536,2.2143,2.1703,2.1179,2.1272,2.1108,2.0797,2.0797,2.0449,1.9849,1.9849,1.9383,1.8612,1.8274,1.7342,1.6059,1.5283,1.4607,1.4061,1.3647,1.3389,1.3034,1.2101,1.1665,1.1366,1.0712,1.0677,1.0837,1.034,1.0046,0.9943,0.9844,0.9316,0.8957,0.9767,0.9895,0.9806,0.9635,0.9903,1.0083,0.9715,0.9782,1.0083,1.0582,1.0902,1.1645,1.3022,1.3703,1.4271,1.48,1.5187,1.5253,1.4875,1.5153,1.5303,1.501,1.5244,1.569,1.6436,1.6957,1.754,1.8235,1.9233,2.0276,2.1324,2.1347,2.1699,2.2352,2.3364,2.3934,2.4126,2.5272,2.6002,2.6371,2.7117,2.7783,1.8773,1.9345,2.011,0.0,0.0,0.0,2.4977,2.5231,2.5154,2.6344,0.0,0.0,0.0,0.0,0.0,0.0,0.0,0.0,0.0,0.0,0.0,0.0,0.0,0.0,0.0,0.0,0.0,0.0,0.0,0.0,0.0,2.4155,2.3908,2.3692,2.3045,2.2504,2.2106,2.1773,2.1138,2.0273,1.9813,1.984,2.028,2.028,1.9778,1.8878,1.8893,1.8574,1.7973,1.6844,1.5363,1.3815,1.3768,1.342,1.2881,1.2881,1.2452,1.1814,1.1765,1.1366,1.0661,1.002,0.9814,0.9666,0.9008,0.8804,0.8804,0.8804,0.8804,0.8804,0.8804,0.8804,0.8871,0.9109,0.899,0.8871,0.9169,0.9176,0.9362,0.9963,1.0551,1.0982,1.1262,1.2696,1.3772,1.3821,1.4723,1.5251,1.4848,1.512,1.54,1.541,1.541,1.569,1.6436,1.6522,1.6786,1.7543,1.7571,1.8496,2.0502,2.0595,2.0957,2.1683,2.2349,2.2978,2.3492,2.4111,2.4949,2.5984,2.632,2.6776,1.841,1.921,0.0,0.0,0.0,0.0,0.0,2.4724,0.0,0.0,0.0,0.0,0.0,0.0,0.0,0.0,0.0,0.0,0.0,0.0,0.0,0.0,0.0,0.0,0.0,0.0,0.0,0.0,0.0,0.0,0.0,2.3638,2.3293,2.3021,2.253,2.2099,2.1746,2.1046,2.0543,2.0277,1.9476,1.9166,1.9295,1.8929,1.8602,1.8327,1.8324,1.78,1.6789,1.5229,1.4261,1.3779,1.3324,1.3065,1.2822,1.2344,1.1972,1.1665,1.0712,1.0261,0.9969,0.9309,0.9113,0.9061,0.8857,0.8804,0.8804,0.8804,0.8804,0.8804,0.8804,0.8804,0.8811,0.8923,0.8864,0.8871,0.9169,0.9193,0.9361,0.9991,1.0224,1.0568,1.1179,1.1933,1.2732,1.3682,1.3981,1.4317,1.4714,1.4625,1.4746,1.5342,1.541,1.5468,1.569,1.6187,1.6388,1.6048,1.6533,1.7346,1.8412,1.9432,2.0047,2.0281,2.1884,2.2767,2.2964,2.3919,2.4556,2.4845,2.4329,2.4873,1.924,0.0,0.0,0.0,0.0,0.0,0.0,0.0,0.0,0.0,0.0,0.0,0.0,0.0,0.0,0.0,0.0,0.0,0.0,0.0,0.0,0.0,0.0,0.0,0.0,0.0,0.0,0.0,0.0,0.0,0.0,2.3193,2.2849,2.246,2.2102,2.1641,2.1078,2.0384,1.9942,1.9741,1.8731,1.8155,1.7921,1.8029,1.7868,1.739,1.6929,1.6237,1.5301,1.4253,1.3663,1.342,1.3065,1.2725,1.2403,1.1972,1.1466,1.0864,1.0064,0.9614,0.9361,0.8903,0.8804,0.8804,0.8804,0.8804,0.8804,0.8804,0.8804,0.8804,0.8804,0.8804,0.8804,0.8804,0.8804,0.8871,0.9169,0.9207,0.9356,0.9855,0.9829,0.992,1.0566,1.1123,1.1722,1.2679,1.3076,1.3673,1.469,1.4404,1.4408,1.5322,1.541,1.541,1.541,1.5806,1.5864,1.541,1.5813,1.6259,1.6684,1.7846,1.8691,1.9303,2.0759,2.1754,2.2312,2.2688,2.3154,2.3565,2.2475,2.2979,2.0715,0.0,0.0,0.0,0.0,0.0,0.0,0.0,0.0,0.0,0.0,0.0,0.0,0.0,0.0,0.0,0.0,0.0,0.0,0.0,0.0,0.0,0.0,0.0,0.0,0.0,0.0,0.0,0.0,0.0,0.0,2.2805,2.2442,2.2067,2.1672,2.1083,2.0258,1.9765,1.9265,1.8731,1.7695,1.69,1.6361,1.741,1.7277,1.6162,1.5085,1.4316,1.3793,1.3736,1.3369,1.2803,1.2803,1.2374,1.1679,1.1648,1.0855,0.9806,0.971,0.9316,0.8804,0.8804,0.8804,0.8804,0.8804,0.8804,0.8804,0.8804,0.8804,0.8804,0.8804,0.8804,0.8804,0.8804,0.8804,0.8871,0.9169,0.9196,0.9277,0.9662,0.9459,0.9349,0.9618,1.032,1.0909,1.125,1.2192,1.3321,1.4593,1.4321,1.4353,1.5322,1.5294,1.5235,1.541,1.5352,1.5294,1.541,1.541,1.541,1.541,1.6093,1.717,1.8581,1.9322,2.0307,2.1529,2.0889,2.114,2.2091,2.0697,2.102,0.0,2.0837,0.0,0.0,0.0,0.0,0.0,0.0,0.0,0.0,0.0,0.0,0.0,0.0,0.0,0.0,0.0,0.0,0.0,0.0,0.0,0.0,0.0,0.0,0.0,0.0,0.0,0.0,0.0,0.0,2.2822,2.2201,2.1786,2.1715,2.098,2.0318,1.9754,1.9298,1.8553,0.0,1.6892,1.6292,1.5715,1.5984,1.5764,1.5024,1.4306,1.3922,1.3747,1.329,1.2677,1.2048,1.2048,1.1625,1.0951,1.0404,1.0061,0.9717,0.9197,0.891,0.8804,0.8804,0.8804,0.8804,0.8804,0.8804,0.8804,0.8804,0.8804,0.8804,0.8804,0.8804,0.8804,0.8804,0.8804,0.8871,0.9169,0.9173,0.9302,0.9652,0.9659,0.9525,0.9342,0.9652,1.0243,1.1138,1.2197,1.3241,1.415,1.3641,1.3728,1.5264,1.4273,1.4034,1.5294,1.4815,1.4756,1.5352,1.541,1.541,1.541,1.612,1.6914,1.7805,1.9042,1.9851,2.0118,2.0429,2.0427,2.0073,1.8712,1.8874,0.0,0.0,0.0,0.0,0.0,0.0,0.0,0.0,0.0,0.0,0.0,0.0,0.0,0.0,0.0,0.0,0.0,0.0,0.0,0.0,0.0,0.0,0.0,0.0,0.0,0.0,0.0,0.0,0.0,2.2546,2.22,2.182,2.1392,2.0991,2.0314,1.9741,1.9272,1.8232,1.7395,1.6828,1.599,1.528,1.4675,1.4732,1.4365,1.3768,1.3121,1.2671,1.2319,1.2013,1.1674,1.1319,1.1335,1.093,1.0274,0.9913,0.9607,0.928,0.8903,0.8804,0.8804,0.8804,0.8804,0.8804,0.8804,0.8804,0.8804,0.8804,0.8804,0.8804,0.8804,0.8804,0.8804,0.8804,0.8804,0.8864,0.899,0.9025,0.9051,0.921,0.9274,0.9275,0.9207,0.9608,1.0086,1.074,1.168,1.263,1.3521,1.353,1.3839,1.4721,1.4085,1.3786,1.4204,1.4213,1.4392,1.4805,1.5177,1.541,1.541,1.54,1.5776,1.6472,1.759,1.8293,1.8597,1.8605,1.8608,1.8533,1.7101,1.7235,0.0,0.0,0.0,0.0,0.0,0.0,0.0,0.0,0.0,0.0,0.0,0.0,0.0,0.0,0.0,0.0,0.0,0.0,0.0,0.0,0.0,0.0,0.0,0.0,0.0,0.0,0.0,0.0,0.0,2.2218,2.154,2.1437,2.1013,2.0192,1.9706,1.9134,1.8493,1.708,1.6247,1.5928,1.488,1.4042,1.3431,1.3439,1.3135,1.257,1.1917,1.1286,1.0796,1.0796,1.073,1.0631,1.0629,1.021,0.9607,0.9607,0.928,0.8804,0.8804,0.8804,0.8804,0.8804,0.8699,0.8646,0.8752,0.8699,0.8646,0.8752,0.8804,0.8804,0.8804,0.8804,0.8804,0.8804,0.8804,0.8804,0.8804,0.8804,0.8804,0.8804,0.8804,0.8884,0.907,0.9606,1.0007,1.0206,1.1036,1.1994,1.2959,1.3584,1.3959,1.4182,1.3965,1.3545,1.307,1.3606,1.4025,1.4204,1.4932,1.541,1.541,1.4638,1.44,1.4906,1.5682,1.6394,1.6916,1.6409,1.6437,1.6921,1.5722,1.5732,0.0,0.0,0.0,0.0,0.0,0.0,0.0,0.0,0.0,0.0,0.0,0.0,0.0,0.0,0.0,0.0,0.0,0.0,0.0,0.0,0.0,0.0,0.0,0.0,0.0,0.0,0.0,0.0,2.1757,2.1529,2.1101,2.0682,2.0243,1.9702,1.9243,1.8276,1.6749,1.6499,1.5649,1.4163,1.3438,1.2763,1.2072,1.2052,1.2039,1.1893,1.12,1.0858,1.0789,1.0789,1.0473,0.9926,0.9948,0.9544,0.8949,0.8949,0.885,0.8804,0.8804,0.8804,0.8804,0.8804,0.8374,0.7943,0.8586,0.8374,0.799,0.8646,0.8804,0.8804,0.8804,0.8804,0.8804,0.8804,0.8804,0.8804,0.8804,0.8804,0.8804,0.8804,0.8804,0.8818,0.8858,0.9138,0.946,0.9836,1.0735,1.1772,1.2932,1.3086,1.3338,1.4123,1.2923,1.2389,1.2948,1.313,1.3485,1.4154,1.4932,1.541,1.541,1.4616,1.3941,1.3313,1.4038,1.4643,1.5032,1.4955,1.48,1.4569,1.4347,1.405,0.0,0.0,0.0,0.0,0.0,0.0,0.0,0.0,0.0,0.0,0.0,0.0,0.0,0.0,0.0,0.0,0.0,0.0,0.0,0.0,0.0,0.0,0.0,0.0,0.0,0.0,0.0,0.0,2.1244,2.0949,2.0252,2.0023,1.9531,1.8774,1.7922,1.714,1.6429,1.543,1.4185,1.2685,1.24,1.1918,1.1233,1.0846,1.0702,1.0667,1.036,1.0023,0.9655,0.9655,0.9528,0.9228,0.9228,0.9049,0.8804,0.8804,0.8804,0.8804,0.8804,0.8533,0.8209,0.8209,0.767,0.7235,0.7943,0.7937,0.783,0.8593,0.8804,0.8804,0.8804,0.8804,0.8804,0.8804,0.8804,0.8804,0.8804,0.8804,0.8804,0.8804,0.8804,0.8804,0.8804,0.9185,0.9444,0.9281,1.0193,1.1344,1.2401,1.241,1.2637,1.3468,1.2504,1.1772,1.1663,1.2089,1.2504,1.281,1.4016,1.4542,1.4064,1.3717,1.3119,1.2329,1.3078,1.3591,1.3726,1.4193,1.4067,1.3427,1.3427,1.275,0.0,0.0,0.0,0.0,0.0,0.0,0.0,0.0,0.0,0.0,0.0,0.0,0.0,0.0,0.0,0.0,0.0,0.0,0.0,0.0,0.0,0.0,0.0,0.0,0.0,0.0,0.0,0.0,2.0645,2.0221,1.9273,1.9223,1.875,1.7693,1.6844,1.6188,1.5727,1.4125,1.2793,1.1814,1.161,1.1166,1.0537,1.0022,0.9731,0.9535,0.9535,0.9288,0.8804,0.8573,0.8514,0.8508,0.833,0.8237,0.8262,0.8249,0.8256,0.8262,0.8262,0.7883,0.7402,0.7402,0.6907,0.6475,0.7182,0.7402,0.7557,0.8315,0.8646,0.8804,0.8804,0.8804,0.8804,0.8804,0.8804,0.8804,0.8804,0.8804,0.8804,0.8804,0.8804,0.8804,0.8804,0.9232,0.9399,0.8884,0.9831,1.0842,1.1621,1.1798,1.2085,1.2494,1.2089,1.1469,1.0688,1.1351,1.1834,1.1834,1.3114,1.3631,1.3014,1.2785,1.2436,1.1781,1.2201,1.2451,1.253,1.2921,1.2791,1.2262,1.2061,1.1166,0.0,0.0,0.0,0.0,0.0,0.0,0.0,0.0,0.0,0.0,0.0,0.0,0.0,0.0,0.0,0.0,0.0,0.0,0.0,0.0,0.0,0.0,0.0,0.0,0.0,0.0,0.0,0.0,1.968,1.9243,1.824,1.8173,1.7653,1.6506,1.6421,1.5596,1.3931,1.2579,1.1882,1.1814,1.1166,1.0517,0.9858,0.982,0.9429,0.8864,0.8864,0.8811,0.8745,0.8041,0.7747,0.7688,0.6998,0.6716,0.6691,0.6714,0.6725,0.6696,0.6696,0.6696,0.6642,0.6642,0.6145,0.5706,0.6421,0.6642,0.6804,0.7563,0.8268,0.8804,0.8804,0.8804,0.8804,0.8804,0.8804,0.8804,0.8804,0.8804,0.8804,0.8804,0.8804,0.8804,0.8804,0.9058,0.9103,0.8851,0.9646,1.0391,1.0547,1.1359,1.1761,1.1434,1.1639,1.1469,1.0688,1.1351,1.1834,1.1834,1.2573,1.3061,1.3,1.2266,1.1811,1.1774,1.1101,1.0911,1.1206,1.0412,1.0221,1.0516,0.9668,0.8881,0.0,0.0,0.0,0.0,0.0,0.0,0.0,0.0,0.0,0.0,0.0,0.0,0.0,0.0,0.0,0.0,0.0,0.0,0.0,0.0,0.0,0.0,0.0,0.0,0.0,0.0,0.0,0.0,0.0,1.8176,1.7066,1.7011,1.6506,1.5353,1.4937,1.3996,1.255,1.1616,1.0922,1.0517,1.0261,0.9814,0.9159,0.9145,0.9047,0.8752,0.8281,0.809,0.8094,0.7805,0.7427,0.6965,0.6678,0.6579,0.6604,0.6603,0.6593,0.6603,0.6588,0.6312,0.5873,0.5873,0.5437,0.5003,0.571,0.5919,0.6131,0.7337,0.7913,0.8212,0.8685,0.8804,0.8804,0.8804,0.8804,0.8804,0.8804,0.8804,0.8804,0.8804,0.8804,0.8804,0.8804,0.9018,0.9112,0.8824,0.9432,1.013,1.0677,1.0732,1.0997,1.1555,1.1279,1.0926,1.0624,1.0863,1.1052,1.1052,1.1779,1.2027,1.1483,1.1655,1.1586,1.1024,1.0168,1.0066,1.0701,1.0423,0.9743,0.8758,0.8461,0.765,2.0628,0.0,0.0,0.0,0.0,0.0,0.0,0.0,0.0,0.0,0.0,0.0,0.0,0.0,0.0,0.0,0.0,0.0,0.0,0.0,0.0,0.0,0.0,0.0,0.0,0.0,0.0,0.0,0.0,0.0,1.5915,1.5828,1.5285,1.4122,1.3464,1.2589,1.1466,1.0813,1.0269,0.9814,0.9562,0.9211,0.8804,0.8533,0.8427,0.8374,0.7628,0.7486,0.7641,0.7186,0.6663,0.6193,0.5958,0.5899,0.5894,0.5909,0.5896,0.5896,0.5882,0.555,0.5164,0.5164,0.4842,0.457,0.5003,0.5483,0.6077,0.7069,0.7694,0.8159,0.8685,0.8804,0.8804,0.8804,0.8804,0.8804,0.8804,0.8804,0.8804,0.8804,0.8804,0.8804,0.8804,0.9011,0.9105,0.8824,0.9305,0.987,1.0257,1.0124,1.0315,1.1157,1.0774,1.0454,1.0618,1.0624,1.0624,1.0624,1.1108,1.117,1.0624,1.1108,1.1038,1.0174,0.9606,0.9274,0.9238,0.921,0.8614,0.7508,0.7229,0.6461,0.0,0.0,0.0,0.0,0.0,0.0,0.0,0.0,0.0,0.0,0.0,0.0,0.0,0.0,0.0,0.0,0.0,0.0,0.0,0.0,0.0,0.0,0.0,0.0,0.0,0.0,0.0,0.0,1.6336,1.586,1.4744,1.4652,1.4029,1.2822,1.2101,1.1416,1.0762,1.0115,0.9762,0.9762,0.9106,0.8804,0.8752,0.8049,0.767,0.7616,0.6912,0.6988,0.7535,0.6114,0.5491,0.5381,0.4746,0.4519,0.4519,0.4519,0.4519,0.4519,0.4519,0.4519,0.4519,0.4519,0.4519,0.4519,0.4519,0.5445,0.6534,0.6588,0.761,0.8692,0.8752,0.8804,0.8804,0.8804,0.8804,0.8804,0.8804,0.8804,0.8804,0.8804,0.8804,0.8804,0.8804,0.9038,0.9084,0.8864,0.9299,0.9559,0.923,0.9506,0.9793,1.0087,1.0114,1.0241,1.0598,1.0624,1.0624,1.0624,1.0624,1.0624,1.0624,1.0561,1.0174,0.9338,0.9268,0.8409,0.6698,0.67,0.6668,0.6668,0.5771,0.5362,2.0308,0.0,0.0,0.0,0.0,0.0,0.0,0.0,0.0,0.0,0.0,0.0,0.0,0.0,0.0,0.0,0.0,0.0,0.0,0.0,0.0,0.0,0.0,0.0,0.0,0.0,0.0,0.0,1.5398,1.4858,1.4097,1.312,1.2434,1.2101,1.0965,1.0261,1.0064,0.9413,0.9061,0.9061,0.891,0.8533,0.7996,0.7777,0.7396,0.6858,0.6145,0.5905,0.6089,0.5679,0.5218,0.4746,0.4574,0.4519,0.4519,0.4519,0.4519,0.4519,0.4519,0.4519,0.4519,0.4519,0.4519,0.4519,0.4519,0.4791,0.5281,0.6332,0.6518,0.6654,0.7747,0.8396,0.8804,0.8804,0.8804,0.8804,0.8804,0.8804,0.8804,0.8804,0.8804,0.8804,0.8804,0.8871,0.8937,0.9075,0.9248,0.9419,0.9519,0.9633,0.9793,1.0087,1.0114,1.0241,1.0598,1.0624,1.0624,1.0624,1.0624,1.0624,1.0624,0.9983,0.953,0.9274,0.8091,0.7172,0.6711,0.6724,0.6342,0.5771,0.5498,0.47,0.0,0.0,0.0,0.0,0.0,0.0,1.8812,1.8874,0.0,0.0,0.0,0.0,0.0,0.0,0.0,0.0,0.0,0.0,0.0,0.0,0.0,0.0,0.0,0.0,0.0,1.6046,1.5564,1.5233,1.4674,1.3946,1.3034,1.2209,1.1566,1.0965,1.0218,0.9666,0.9361,0.8685,0.8321,0.8321,0.8049,0.767,0.7235,0.6902,0.6524,0.6091,0.5382,0.5101,0.5089,0.5089,0.4827,0.4519,0.4519,0.4519,0.4519,0.4519,0.4519,0.4519,0.4519,0.4519,0.4519,0.4519,0.4519,0.4519,0.4519,0.4677,0.5113,0.5932,0.6065,0.6312,0.7799,0.8271,0.8396,0.8745,0.8804,0.8804,0.8804,0.8804,0.8804,0.8804,0.8804,0.8804,0.8804,0.8804,0.8884,0.9173,0.9187,0.9316,0.9667,0.9552,0.9613,0.9907,0.9933,0.9926,0.9831,1.0292,1.0428,1.011,1.0428,1.0428,1.0047,0.9594,0.8947,0.8221,0.7242,0.6527,0.6141,0.6133,0.5877,0.5376,0.5389,0.4858,0.0,0.0,0.0,0.0,0.0,0.0,1.8553,1.8436,1.8305,0.0,0.0,0.0,0.0,0.0,0.0,0.0,0.0,0.0,0.0,0.0,0.0,0.0,0.0,0.0,1.55,1.4969,1.4617,1.4622,1.3962,1.3034,1.1765,1.1616,1.1015,0.9814,0.9658,0.9302,0.8699,0.7937,0.7563,0.7563,0.6912,0.6534,0.648,0.5814,0.5487,0.5378,0.4732,0.4519,0.4519,0.4519,0.4519,0.4519,0.4519,0.4519,0.4519,0.4519,0.4519,0.4519,0.4519,0.4519,0.4519,0.4519,0.4519,0.4519,0.4519,0.4897,0.5374,0.5362,0.6016,0.7003,0.8249,0.8178,0.7982,0.8633,0.8804,0.8804,0.8804,0.8804,0.8804,0.8804,0.8804,0.8804,0.8804,0.8804,0.8871,0.9169,0.9153,0.9254,0.9582,0.937,0.925,0.9484,0.9543,0.9309,0.8711,0.9675,1.004,0.9338,1.0047,1.011,0.9338,0.9204,0.8355,0.6719,0.6593,0.6207,0.5428,0.5428,0.5306,0.5119,0.5084,0.5014,0.0,0.0,0.0,0.0,0.0,0.0,1.8542,1.8606,1.8577,0.0,0.0,0.0,0.0,0.0,0.0,0.0,0.0,0.0,0.0,0.0,0.0,0.0,0.0,0.0,1.4869,1.435,1.3965,1.3996,1.287,1.1855,1.1065,1.0466,1.0064,0.9814,0.8718,0.8037,0.7937,0.7182,0.6804,0.6804,0.6696,0.6312,0.5706,0.5542,0.5218,0.4677,0.457,0.4519,0.4519,0.4519,0.4519,0.4519,0.4519,0.4519,0.4519,0.4519,0.4519,0.4519,0.4519,0.4519,0.4519,0.4519,0.4519,0.4519,0.4519,0.457,0.4677,0.4677,0.6049,0.7441,0.709,0.7824,0.8626,0.8752,0.8804,0.8804,0.8804,0.8804,0.8804,0.8804,0.8804,0.8804,0.8804,0.8804,0.8871,0.9169,0.901,0.9004,0.9243,0.9051,0.8782,0.8502,0.8595,0.8462,0.7968,0.8276,0.8742,0.9274,0.9466,0.9466,0.9338,0.8619,0.7762,0.6719,0.602,0.5572,0.5376,0.5376,0.4631,0.3215,0.3226,0.2423,0.0,0.0,0.0,1.886,0.0,0.0,0.0,1.8319,1.8182,0.0,0.0,0.0,0.0,0.0,0.0,0.0,0.0,0.0,0.0,0.0,0.0,0.0,0.0,0.0,1.3595,1.306,1.2624,1.2513,1.1787,1.1015,1.0364,0.9961,0.9503,0.8771,0.809,0.7509,0.7128,0.6421,0.6036,0.6036,0.5714,0.5332,0.5003,0.5003,0.4842,0.4519,0.4519,0.4522,0.4525,0.4519,0.4525,0.4477,0.4522,0.4519,0.4519,0.4519,0.4519,0.4519,0.4519,0.4519,0.4519,0.4519,0.4519,0.4519,0.4519,0.4519,0.4574,0.4916,0.5546,0.6284,0.6977,0.7138,0.7453,0.8514,0.8218,0.7805,0.8159,0.8271,0.8271,0.8271,0.8271,0.8389,0.8745,0.8212,0.8041,0.9049,0.8329,0.7944,0.8595,0.8111,0.7645,0.7406,0.7632,0.7512,0.6894,0.7476,0.8095,0.8608,0.8678,0.8678,0.8678,0.7827,0.6924,0.6083,0.5634,0.497,0.4023,0.4979,0.4919,0.4036,0.2217,0.0875,0.0,0.0,0.0,0.0,0.0,1.8669,0.0,0.0,0.0,1.6835,0.0,0.0,0.0,0.0,0.0,0.0,0.0,0.0,0.0,0.0,0.0,0.0,0.0,0.0,0.0,1.179,1.1275,1.0921,1.0673,1.0198,0.957,0.9422,0.8876,0.7723,0.745,0.7015,0.6367,0.5651,0.5328,0.5324,0.4732,0.4519,0.4519,0.4519,0.4519,0.4522,0.4522,0.4473,0.4484,0.4187,0.4079,0.4095,0.4356,0.4519,0.4519,0.4519,0.4519,0.4519,0.4519,0.4519,0.4519,0.4519,0.4519,0.4519,0.4519,0.4519,0.4632,0.5148,0.5026,0.5105,0.7015,0.6622,0.6173,0.8103,0.7564,0.6749,0.7346,0.7463,0.7505,0.7465,0.7395,0.7529,0.8453,0.7482,0.7067,0.8459,0.7488,0.6929,0.7775,0.7155,0.6578,0.6435,0.6702,0.6557,0.5904,0.6661,0.7337,0.7752,0.7767,0.7767,0.7767,0.692,0.6148,0.5446,0.5382,0.4703,0.3218,0.4657,0.5416,0.5343,0.1683,-0.0404,0.0,0.0,0.0,0.0,1.8784,0.0,0.0,0.0,1.7487,1.6962,0.0,1.5052,1.488,0.0,0.0,0.0,0.0,0.0,0.0,0.0,0.0,0.0,0.0,0.0,0.0,1.1153,1.0498,0.9914,0.9581,0.9137,0.8605,0.8176,0.7883,0.7723,0.6411,0.5701,0.5651,0.4948,0.4625,0.4625,0.4519,0.4519,0.4519,0.4519,0.4522,0.4477,0.4477,0.4484,0.4379,0.3016,0.2454,0.2623,0.3959,0.4519,0.4519,0.4519,0.4519,0.4519,0.4519,0.4519,0.4519,0.4519,0.4519,0.4519,0.4519,0.4519,0.4519,0.4577,0.4999,0.5579,0.6465,0.6602,0.672,0.7609,0.7215,0.6647,0.6728,0.6743,0.6752,0.6744,0.6202,0.6197,0.7603,0.7122,0.6658,0.6838,0.6714,0.6663,0.6738,0.6703,0.6413,0.5948,0.5895,0.5738,0.5269,0.5308,0.5826,0.6772,0.685,0.685,0.685,0.602,0.5509,0.5379,0.5399,0.5272,0.5068,0.5295,0.5433,0.5343,0.1683,-0.1751,0.0,0.0,0.0,0.0,0.0,0.0,0.0,0.0,1.6583,0.0,0.0,0.0,0.0,0.0,0.0,0.0,0.0,0.0,0.0,0.0,0.0,0.0,0.0,0.0,0.0,0.0,0.0,0.0,0.8685,0.863,0.8414,0.8378,0.7937,0.7074,0.6475,0.5764,0.4948,0.4625,0.4519,0.4519,0.4519,0.4519,0.4519,0.4525,0.4473,0.4421,0.3574,0.3697,0.4448,0.3819,0.3028,0.224,0.2912,0.319,0.319,0.319,0.319,0.319,0.3532,0.4027,0.4519,0.4519,0.4519,0.4519,0.4519,0.4519,0.4519,0.4519,0.4732,0.5105,0.576,0.5679,0.5671,0.6817,0.6196,0.5513,0.589,0.5958,0.5936,0.5977,0.5734,0.5701,0.6298,0.5841,0.5642,0.6473,0.5896,0.5529,0.589,0.5644,0.5266,0.5072,0.5065,0.4984,0.4857,0.4955,0.5439,0.6489,0.666,0.6465,0.5954,0.5572,0.5386,0.5396,0.5406,0.542,0.5366,0.3313,0.1212,-0.0871,-0.2421,-0.3979,1.9545,0.0,0.0,0.0,0.0,0.0,0.0,0.0,0.0,0.0,0.0,0.0,0.0,0.0,1.3007,0.0,0.0,0.0,0.0,0.0,0.0,0.0,0.0,0.0,0.0,0.0,0.0,0.0,0.0,0.8133,0.8165,0.8324,0.7828,0.6546,0.6387,0.5714,0.4519,0.4519,0.4519,0.4519,0.4519,0.4519,0.4519,0.4473,0.4252,0.3858,0.313,0.297,0.3261,0.3261,0.2585,0.1572,0.1572,0.1572,0.1572,0.1572,0.1572,0.1797,0.2986,0.3872,0.4519,0.4519,0.4519,0.4519,0.4519,0.4519,0.4519,0.4519,0.4519,0.468,0.5324,0.5027,0.4801,0.5991,0.5395,0.4632,0.5148,0.5207,0.5207,0.5207,0.5207,0.5207,0.5207,0.4805,0.486,0.5899,0.5148,0.4688,0.5148,0.4802,0.4519,0.4574,0.4519,0.4584,0.4755,0.484,0.5243,0.6077,0.627,0.6086,0.5449,0.5386,0.5396,0.5413,0.4456,0.3919,0.3931,0.0269,-0.2831,-0.5413,-0.5413,-0.541,0.0,0.0,0.0,1.8542,0.0,0.0,0.0,0.0,1.5071,0.0,0.0,0.0,0.0,1.3047,1.2736,1.211,0.0,0.0,0.0,0.0,0.0,0.0,0.0,0.0,0.0,0.0,0.0,0.0,0.0,0.0,0.7506,0.7419,0.6985,0.6252,0.5766,0.5218,0.4519,0.4519,0.4519,0.4519,0.4519,0.4519,0.4519,0.4473,0.3688,0.2343,0.3822,0.2807,0.0168,0.0168,0.0112,0.0056,0.0056,0.0056,0.0056,0.0056,0.0056,0.0505,0.3442,0.4501,0.4519,0.4519,0.4519,0.4519,0.4519,0.4519,0.4519,0.4519,0.4519,0.468,0.5324,0.4999,0.4677,0.5378,0.5003,0.4519,0.4519,0.4519,0.4519,0.4519,0.4519,0.4519,0.4519,0.4519,0.4519,0.4574,0.4519,0.4519,0.4519,0.4519,0.4574,0.4688,0.4574,0.4601,0.4862,0.492,0.505,0.5418,0.5442,0.5449,0.5393,0.5406,0.5413,0.5413,0.1954,0.0202,0.0135,-0.3437,-0.5276,-0.5413,-0.5413,-0.5399,0.0,0.0,1.8238,1.8201,0.0,0.0,0.0,0.0,0.0,0.0,0.0,0.0,0.0,0.0,1.2742,1.2503,1.2106,1.178,0.0,0.0,0.0,0.0,0.0,0.0,0.0,0.0,0.0,0.0,0.7031,0.0,0.7493,0.7352,0.6974,0.6242,0.5761,0.5164,0.4519,0.4519,0.4519,0.4519,0.4519,0.4519,0.4519,0.4484,0.3638,0.2176,0.1736,0.0953,-0.0,-0.0,-0.0,-0.0,-0.0,-0.0,-0.0,-0.0,-0.0,0.028,0.2296,0.3633,0.4519,0.4519,0.4519,0.4519,0.4519,0.4519,0.4519,0.4519,0.4519,0.457,0.4787,0.468,0.457,0.4787,0.468,0.4519,0.4519,0.4519,0.4519,0.4519,0.4519,0.4519,0.4519,0.4519,0.4519,0.4519,0.4519,0.4519,0.4519,0.4519,0.4519,0.4574,0.4519,0.4546,0.4615,0.4755,0.5016,0.5365,0.4287,0.4148,0.5336,0.541,0.4252,0.1885,-0.1748,-0.3574,-0.3574,-0.3632,-0.4233,-0.5389,-0.5389,-0.5386,1.8577,1.8173,0.0,1.7774,1.7037,0.0,1.583,0.0,0.0,0.0,0.0,0.0,0.0,0.0,0.0,1.2649,1.196,1.1367,0.0,1.0447,0.0,0.0,0.0,0.0,0.0,0.0,0.0,0.5387,0.6086,0.0,0.0,0.0,0.6526,0.5826,0.5601,0.5164,0.4519,0.4519,0.4519,0.4519,0.4519,0.4519,0.4525,0.4487,0.3984,0.291,0.0896,-0.0,-0.0,-0.0,-0.0,-0.0,-0.0,-0.0,-0.0,-0.0,-0.0,0.0112,0.1062,0.279,0.4473,0.4473,0.4525,0.4519,0.4519,0.4519,0.4519,0.4519,0.4519,0.4519,0.4519,0.4519,0.4519,0.4519,0.4519,0.4519,0.4519,0.4519,0.4519,0.4519,0.4519,0.4519,0.4519,0.4519,0.4519,0.4519,0.4519,0.4519,0.4519,0.4519,0.4519,0.4519,0.4519,0.4543,0.4601,0.4177,0.433,0.5367,0.4305,0.2998,0.1607,0.1542,0.0741,-0.1091,-0.3313,-0.4745,-0.542,-0.4252,-0.4292,-0.5379,-0.5376,-0.5372]},{"header":{"parameterUnit":"m.s-1","parameterCategory":1,"la1":30.6,"la2":29.2853,"lo1":-89.7004,"lo2":-87.6739,"dy":0.0162,"dx":0.0183,"nx":112,"ny":82,"refTime":"2023-05-20T12:00:00:Z","depth":0,"parameterNumber":3,"parameterNumberName":"V-component_of_WINDS"},"data":[0.0,0.0,0.0,0.0,0.0,0.0,0.0,0.0,0.0,0.0,0.0,0.0,0.0,0.0,0.0,0.0,0.0,0.0,0.0,0.0,0.0,0.0,0.0,0.0,0.0,0.0,0.0,0.0,0.0,0.0,0.0,0.0,0.0,0.0,0.0,0.0,0.0,0.0,0.0,0.0,0.0,0.0,0.0,0.0,0.0,0.0,0.0,0.0,0.0,0.0,0.0,0.0,0.0,0.0,0.0,0.0,0.0,0.0,0.0,0.0,0.0,0.0,0.0,0.0,0.0,0.0,0.0,0.0,0.0,0.0,0.0,0.0,0.0,0.0,0.0,0.0,0.0,0.0,0.0,0.0,0.0,0.0,0.0,0.0,0.0,0.0,0.0,0.0,0.0,0.0,0.0,1.87,1.9949,2.0932,2.15,2.144,2.07,1.9063,0.0,0.0,0.0,0.0,0.0,0.0,0.0,0.0,0.0,0.0,0.0,0.0,0.0,0.0,0.0,0.0,0.0,0.0,0.0,0.0,0.0,0.0,0.0,0.0,0.0,0.0,0.0,0.0,0.0,0.0,0.0,0.0,0.0,0.0,0.0,0.0,0.0,0.0,0.0,0.0,0.0,0.0,0.0,0.0,0.0,0.0,0.0,0.0,0.0,0.0,0.0,0.0,0.0,0.0,0.0,0.0,0.0,0.0,0.0,0.0,0.0,0.0,0.0,0.0,0.0,0.0,0.0,0.0,0.0,0.0,0.0,0.0,0.0,0.0,0.0,0.0,0.0,0.0,0.0,0.0,0.0,0.0,0.0,0.0,0.0,0.0,0.0,0.0,0.0,0.0,0.0,0.0,0.0,0.0,0.0,0.0,0.0,0.0,0.0,0.0,0.0,0.0,0.0,0.0,1.8059,1.9409,2.0257,2.0752,2.0857,2.0333,1.9908,1.9671,0.0,0.0,0.0,0.0,0.0,0.0,0.0,0.0,0.0,0.0,0.0,0.0,0.0,0.0,0.0,0.0,0.0,0.0,0.0,0.0,0.0,0.0,0.0,0.0,0.0,0.0,0.0,0.0,0.0,0.0,0.0,0.0,0.0,0.0,0.0,0.0,0.0,0.0,0.0,0.0,0.0,0.0,0.0,0.0,0.0,0.0,0.0,0.0,0.0,0.0,0.0,0.0,0.0,0.0,0.0,0.0,0.0,0.0,0.0,0.0,0.0,0.0,0.0,0.0,0.0,0.0,0.0,0.0,0.0,0.0,0.0,0.0,0.0,0.0,0.0,0.0,0.0,0.0,0.0,0.0,0.0,0.0,0.0,0.0,0.0,0.0,0.0,0.0,0.0,0.0,0.0,0.0,0.0,0.0,0.0,0.0,0.0,0.0,0.0,0.0,0.0,0.0,0.0,1.8139,1.8765,2.0107,2.0183,2.0303,2.0677,1.975,1.9159,1.9137,1.8861,0.0,0.0,0.0,0.0,0.0,0.0,0.0,0.0,0.0,0.0,0.0,0.0,0.0,0.0,0.0,0.0,0.0,0.0,0.0,0.0,0.0,0.0,0.0,0.0,0.0,0.0,0.0,0.0,0.0,0.0,0.0,0.0,0.0,0.0,0.0,0.0,0.0,0.0,0.0,0.0,0.0,0.0,0.0,0.0,0.0,0.0,0.0,0.0,0.0,0.0,0.0,0.0,0.0,0.0,0.0,0.0,0.0,0.0,0.0,0.0,0.0,0.0,0.0,0.0,0.0,0.0,0.0,0.0,0.0,0.0,0.0,0.0,0.0,0.0,0.0,0.0,0.0,0.0,0.0,0.0,0.0,0.0,0.0,0.0,0.0,0.0,0.0,0.0,0.0,0.0,0.0,0.0,0.0,0.0,0.0,0.0,0.0,0.0,0.0,0.0,0.0,0.0,1.8573,1.8978,2.031,2.0004,1.9899,2.0423,1.939,1.867,1.8621,1.8,0.0,0.0,0.0,0.0,0.0,0.0,0.0,0.0,0.0,0.0,0.0,0.0,0.0,0.0,0.0,0.0,0.0,0.0,0.0,0.0,0.0,0.0,0.0,0.0,0.0,0.0,0.0,0.0,0.0,0.0,0.0,0.0,0.0,0.0,0.0,0.0,0.0,0.0,0.0,0.0,0.0,0.0,0.0,0.0,0.0,0.0,0.0,0.0,0.0,0.0,0.0,0.0,0.0,0.0,0.0,0.0,0.0,0.0,0.0,0.0,0.0,0.0,0.0,0.0,0.0,0.0,0.0,0.0,0.0,0.0,0.0,0.0,0.0,0.0,0.0,0.0,0.0,0.0,0.0,0.0,0.0,0.0,0.0,0.0,0.0,0.0,0.0,0.0,0.0,0.0,0.0,0.0,0.0,0.0,0.0,0.0,0.0,0.0,0.0,0.0,0.0,0.0,1.8114,1.8272,1.9615,1.972,1.9705,1.975,1.9106,1.8718,1.868,1.8058,0.0,0.0,0.0,0.0,0.0,0.0,0.0,0.0,0.0,0.0,0.0,0.0,0.0,0.0,0.0,0.0,0.0,0.0,0.0,0.0,0.0,0.0,0.0,0.0,0.0,0.0,0.0,0.0,0.0,0.0,0.0,0.0,0.0,0.0,0.0,0.0,0.0,0.0,0.0,0.0,0.0,0.0,0.0,0.0,0.0,0.0,0.0,0.0,0.0,0.0,0.0,0.0,0.0,0.0,0.0,0.0,0.0,0.0,0.0,0.0,0.0,0.0,0.0,0.0,0.0,0.0,0.0,0.0,0.0,0.0,0.0,0.0,0.0,0.0,0.0,0.0,0.0,0.0,0.0,0.0,0.0,0.0,0.0,0.0,0.0,0.0,0.0,0.0,0.0,0.0,0.0,0.0,0.0,0.0,0.0,0.0,0.0,0.0,0.0,0.0,0.0,0.0,1.771,1.785,0.0,1.8702,1.8627,1.9031,1.8089,1.7821,1.8706,0.0,0.0,0.0,0.0,0.0,0.0,0.0,0.0,0.0,0.0,0.0,0.0,0.0,0.0,0.0,0.0,0.0,0.0,0.0,0.0,0.0,0.0,0.0,0.0,0.0,0.0,0.0,0.0,0.0,0.0,0.0,0.0,0.0,0.0,0.0,0.0,0.0,0.0,0.0,0.0,0.0,0.0,0.0,0.0,0.0,0.0,0.0,0.0,0.0,0.0,0.0,0.0,0.0,0.0,0.0,0.0,0.0,0.0,0.0,0.0,0.0,0.0,0.0,0.0,0.0,0.0,0.0,0.0,0.0,0.0,0.0,0.0,0.0,0.0,0.0,0.0,0.0,0.0,0.0,0.0,0.0,0.0,0.0,0.0,0.0,0.0,0.0,0.0,0.0,0.0,0.0,0.0,0.0,0.0,0.0,0.0,0.0,0.0,0.0,0.0,0.0,0.0,1.8039,1.7519,1.7425,0.0,1.7951,1.7876,1.8343,1.7354,1.7182,1.8371,0.0,0.0,0.0,0.0,0.0,0.0,0.0,0.0,0.0,0.0,0.0,0.0,0.0,0.0,0.0,0.0,0.0,0.0,0.0,0.0,0.0,0.0,0.0,0.0,0.0,0.0,0.0,0.0,0.0,0.0,0.0,0.0,0.0,0.0,0.0,0.0,0.0,0.0,0.0,0.0,0.0,0.0,0.0,0.0,0.0,0.0,0.0,0.0,0.0,0.0,0.0,0.0,0.0,0.0,0.0,0.0,0.0,0.0,0.0,0.0,0.0,0.0,0.0,0.0,0.0,0.0,0.0,0.0,0.0,0.0,0.0,0.0,0.0,0.0,0.0,0.0,0.0,0.0,0.0,0.0,0.0,0.0,0.0,0.0,0.0,0.0,0.0,0.0,0.0,0.0,0.0,0.0,0.0,0.0,0.0,0.0,0.0,0.0,0.0,0.0,0.0,0.0,1.8683,1.7562,1.695,1.7608,1.7667,1.7667,1.7682,1.707,1.6984,0.0,0.0,0.0,0.0,0.0,0.0,0.0,0.0,0.0,0.0,0.0,0.0,0.0,0.0,0.0,0.0,0.0,0.0,0.0,0.0,0.0,0.0,0.0,0.0,0.0,0.0,0.0,0.0,0.0,0.0,0.0,0.0,0.0,0.0,0.0,0.0,0.0,0.0,0.0,0.0,0.0,0.0,0.0,0.0,0.0,0.0,0.0,0.0,0.0,0.0,0.0,0.0,0.0,0.0,0.0,0.0,0.0,0.0,0.0,0.0,0.0,0.0,0.0,0.0,0.0,0.0,0.0,0.0,0.0,0.0,0.0,0.0,0.0,0.0,0.0,0.0,0.0,0.0,0.0,0.0,0.0,0.0,0.0,0.0,0.0,0.0,0.0,0.0,0.0,0.0,0.0,0.0,0.0,0.0,0.0,0.0,0.0,0.0,0.0,0.0,0.0,0.0,0.0,1.7508,1.6648,1.6308,1.6936,1.6623,1.6533,1.6965,1.6428,1.6556,1.7686,0.0,0.0,0.0,0.0,0.0,0.0,0.0,0.0,0.0,0.0,0.0,0.0,0.0,0.0,0.0,0.0,0.0,0.0,0.0,0.0,0.0,0.0,0.0,0.0,0.0,0.0,0.0,0.0,0.0,0.0,0.0,0.0,0.0,0.0,0.0,0.0,0.0,0.0,0.0,0.0,0.0,0.0,0.0,0.0,0.0,0.0,0.0,0.0,0.0,0.0,0.0,0.0,0.0,0.0,0.0,0.0,0.0,0.0,0.0,0.0,0.0,0.0,0.0,0.0,0.0,0.0,0.0,0.0,0.0,0.0,0.0,0.0,0.0,0.0,0.0,0.0,0.0,0.0,0.0,0.0,0.0,0.0,0.0,0.0,0.0,0.0,0.0,0.0,0.0,0.0,0.0,0.0,0.0,0.0,0.0,0.0,0.0,0.0,0.0,0.0,0.0,0.0,1.7876,1.6639,1.5948,1.6308,1.6009,1.5963,1.6323,1.5994,1.63,1.7506,0.0,0.0,0.0,0.0,0.0,0.0,0.0,0.0,0.0,0.0,0.0,0.0,0.0,0.0,0.0,0.0,0.0,0.0,0.0,0.0,0.0,0.0,0.0,0.0,0.0,0.0,0.0,0.0,0.0,0.0,0.0,0.0,0.0,0.0,0.0,0.0,0.0,0.0,0.0,0.0,0.0,0.0,0.0,0.0,0.0,0.0,0.0,0.0,0.0,0.0,0.0,0.0,0.0,0.0,0.0,0.0,0.0,0.0,0.0,0.0,0.0,0.0,0.0,0.0,0.0,0.0,0.0,0.0,0.0,0.0,0.0,0.0,0.0,0.0,0.0,0.0,0.0,0.0,0.0,0.0,0.0,0.0,0.0,0.0,0.0,0.0,0.0,0.0,0.0,0.0,0.0,0.0,0.0,0.0,0.0,0.0,0.0,0.0,0.0,0.0,0.0,0.0,1.9127,1.7158,1.5799,1.5799,1.5799,1.5799,1.5799,1.5858,1.626,1.7133,0.0,0.0,0.0,0.0,0.0,0.0,0.0,0.0,0.0,0.0,0.0,0.0,0.0,0.0,0.0,0.0,0.0,0.0,0.0,0.0,0.0,0.0,0.0,0.0,0.0,0.0,0.0,0.0,0.0,0.0,0.0,0.0,0.0,0.0,0.0,0.0,0.0,0.0,0.0,0.0,0.0,0.0,0.0,0.0,0.0,0.0,0.0,0.0,0.0,0.0,0.0,0.0,0.0,0.0,0.0,0.0,0.0,0.0,0.0,0.0,0.7536,0.0,0.0,0.0,0.0,0.0,0.0,0.0,0.0,0.0,0.0,0.0,0.0,0.0,0.0,0.0,0.0,0.0,0.0,0.0,0.0,0.0,0.0,0.0,0.0,0.0,0.0,0.0,0.0,0.0,0.0,0.0,0.0,0.0,0.0,0.0,0.0,0.0,0.0,0.0,0.0,0.0,1.8467,1.6889,1.5799,1.5799,1.5799,1.5799,1.5799,1.6248,1.6713,1.7163,1.7651,0.0,0.0,0.0,0.0,0.0,0.0,0.0,0.0,0.0,0.0,0.0,0.0,0.0,0.0,0.0,0.0,0.0,0.0,0.0,0.0,0.0,0.0,0.0,0.0,0.0,0.0,0.0,0.0,0.0,0.0,0.0,0.0,0.0,0.0,0.0,0.0,0.0,0.0,0.0,0.0,0.0,0.0,0.0,0.0,0.0,0.0,0.0,0.0,0.0,0.0,0.0,0.0,0.0,0.0,0.0,0.0,0.0,0.0,0.0,0.0,0.6925,0.0,0.0,0.0,0.0,0.0,0.0,0.0,0.0,0.0,0.0,0.0,0.0,0.0,0.0,0.0,0.0,0.0,0.0,0.0,0.0,0.0,0.0,0.0,0.0,0.0,0.0,0.0,0.0,0.0,0.0,0.0,0.0,0.0,0.0,0.0,0.0,0.0,0.0,0.0,0.0,1.8808,1.7027,1.5799,1.5799,1.5799,1.5933,1.6219,1.6517,1.7043,1.7879,1.8098,0.0,0.0,0.0,0.0,0.0,0.0,0.0,0.0,0.0,0.0,0.0,0.0,0.0,0.0,0.0,0.0,0.0,0.0,0.0,0.0,0.0,0.0,0.0,0.0,0.0,0.0,0.0,0.0,0.0,0.0,0.0,0.0,0.0,0.0,0.0,0.0,0.0,0.0,0.0,0.0,0.0,0.0,0.0,0.0,0.0,0.0,0.0,0.0,0.0,0.0,0.0,0.0,0.0,0.4839,0.4692,0.4521,0.4811,0.4965,0.4924,0.4755,0.5205,0.6118,0.0,0.0,0.0,0.0,0.0,0.0,0.0,0.0,0.0,0.0,0.0,0.0,0.0,0.0,0.0,0.0,0.0,0.0,0.0,0.0,0.0,0.0,0.0,0.0,0.0,1.2177,1.1853,0.0,0.0,0.0,0.0,0.0,0.0,0.0,0.0,0.0,0.0,0.0,0.0,1.8985,1.7055,1.5712,1.5799,1.5903,1.6159,1.6667,1.6921,1.7518,1.8627,1.8531,1.8566,0.0,0.0,0.0,0.0,0.0,0.0,0.0,0.0,0.0,0.0,0.0,0.0,0.0,0.0,0.0,0.0,0.0,0.0,0.0,0.0,0.0,0.0,0.0,0.0,0.0,0.0,0.0,0.0,0.0,0.0,0.0,0.0,0.4694,0.6586,0.0,0.0,0.0,0.0,0.0,0.0,0.0,0.0,0.0,0.0,0.0,0.0,0.0,0.5502,0.5467,0.8249,0.8927,0.7382,0.6489,0.5114,0.3396,0.4922,0.5669,0.5611,0.5542,0.0,0.6405,0.6217,0.0,0.0,0.0,0.0,0.0,0.0,0.0,0.0,0.0,0.0,0.0,0.0,0.0,0.0,0.0,0.0,0.0,0.0,0.0,0.0,0.0,0.0,0.9438,0.9219,0.9177,0.9422,0.0,1.3369,1.6163,1.7143,1.7419,0.0,0.0,0.0,0.0,0.0,0.0,0.0,1.7457,1.6055,1.5359,1.577,1.6278,1.6622,1.6697,1.7757,1.8523,1.8687,1.9186,1.9301,1.8906,1.8616,0.0,0.0,0.0,0.0,0.0,0.0,0.0,0.0,0.0,0.0,0.0,0.0,0.0,0.0,0.0,0.0,0.0,0.0,0.0,0.0,0.0,0.0,0.0,0.0,0.0,0.0,0.0,0.0,0.0,0.5225,0.5579,0.7165,0.6844,0.71,0.0,0.0,0.0,0.0,0.0,0.0,0.0,0.0,0.0,0.9551,0.7624,0.5133,0.2117,0.4646,0.628,0.7015,0.6547,0.5779,0.4775,0.556,0.5842,0.5759,0.5759,0.5837,0.5917,0.6066,0.652,0.7187,0.0,0.0,0.0,0.0,0.9375,0.9619,0.8055,0.7566,0.0,0.929,0.0,0.0,0.0,0.0,0.0,0.0,0.0,0.0,0.0,0.0,1.019,0.892,0.8711,0.8956,0.9666,1.1505,1.3468,0.0,1.6404,1.7875,1.9772,0.0,0.0,0.0,0.0,0.0,1.7623,1.6699,1.6186,1.6393,1.6912,1.7413,1.7772,1.8373,1.8867,1.9226,1.9525,1.9591,1.9361,1.8966,1.8534,0.0,0.0,0.0,0.0,0.0,0.0,0.0,0.0,0.0,0.0,0.0,0.0,0.0,0.0,0.0,0.0,0.0,0.0,0.0,0.0,0.0,0.0,0.0,0.0,0.0,0.0,0.0,0.0,0.5692,0.6393,0.6916,0.6379,0.6761,0.0,0.0,0.0,0.0,0.0,0.0,0.9032,0.6806,0.6487,0.869,0.7371,0.5042,0.165,0.2622,0.4204,0.6332,0.6294,0.6216,0.6082,0.6082,0.6002,0.5918,0.5918,0.5772,0.5562,0.5952,0.6075,0.6118,0.7063,0.7784,0.8248,0.8085,0.8247,0.838,0.6732,0.6274,0.6504,0.7536,0.0,0.9033,1.0156,0.0,0.0,0.0,0.0,1.2146,1.045,1.0491,1.0681,0.9183,0.8804,0.8956,0.9413,1.0367,1.1572,0.0,1.4938,1.6757,1.8548,0.0,0.0,0.0,0.0,1.7512,1.7391,1.6874,1.6578,1.6697,1.7335,1.7948,1.8436,1.8783,1.9166,1.966,1.969,1.969,1.969,1.9261,1.8951,1.882,0.0,0.0,0.0,0.0,0.0,0.0,0.0,0.0,0.0,0.0,0.0,0.0,0.0,0.0,0.0,0.0,0.0,0.0,0.0,0.0,0.0,0.0,0.0,0.0,0.0,0.0,0.0,0.0,0.0,0.4732,0.6958,0.0,0.0,0.0,0.0,0.4872,0.4642,0.5851,0.8667,0.788,0.7082,0.6476,0.4402,0.4172,0.5981,0.4087,0.4206,0.6336,0.6332,0.6321,0.6314,0.6314,0.6314,0.6237,0.6237,0.6146,0.5962,0.5579,0.575,0.6289,0.6328,0.7442,0.8857,0.7087,0.6999,0.7564,0.5493,0.4782,0.5167,0.7422,0.9784,1.1247,0.894,0.9963,0.0,0.0,1.0458,1.0302,0.9155,0.8896,0.8949,0.8804,0.8804,0.8811,0.8857,1.0516,1.2016,0.0,1.257,1.3648,1.5238,0.0,1.579,1.646,1.6518,1.6257,1.57,1.5597,1.5731,1.6082,1.7184,1.7913,1.7957,1.9007,1.9645,1.969,1.969,1.969,1.969,1.966,1.9381,1.8801,1.8482,0.0,0.0,0.0,0.0,0.0,0.0,0.0,0.0,0.0,0.0,0.0,0.0,0.0,0.0,0.0,0.0,0.0,0.0,0.0,0.0,0.0,0.0,0.0,0.0,0.0,0.0,0.0,0.0,0.3709,0.6685,0.0,0.0,0.7197,0.756,0.6489,0.464,0.3462,0.3162,0.4129,0.5167,0.6236,0.5547,0.5532,0.6294,0.5549,0.5564,0.6276,0.6321,0.6264,0.6338,0.6338,0.6338,0.6338,0.6338,0.6173,0.601,0.5749,0.5663,0.5682,0.5462,0.5827,0.6319,0.5657,0.5688,0.5916,0.5118,0.4897,0.5074,0.5817,0.662,0.7115,0.6211,0.6539,0.7171,0.6711,0.7015,0.7329,0.681,0.7391,0.8103,0.8103,0.848,0.8804,0.8804,0.9746,1.0605,1.0551,1.2233,1.4011,1.516,1.4808,1.4952,1.6705,1.6327,1.5965,1.6125,1.6425,1.6692,1.685,1.7573,1.8172,1.851,1.895,1.9332,1.969,1.969,1.969,1.969,1.969,1.9606,1.9381,1.9291,1.9191,0.0,0.0,0.0,0.0,0.0,0.0,0.0,0.0,0.0,0.0,0.0,0.0,0.0,0.0,0.0,0.0,0.0,0.0,0.0,0.0,0.0,0.0,0.0,0.0,0.0,0.0,0.4831,0.354,0.483,0.5834,0.5863,0.53,0.5549,0.6969,0.5265,0.3613,0.2181,0.3399,0.4819,0.6235,0.6311,0.6278,0.6285,0.6268,0.6264,0.6274,0.6264,0.6338,0.6338,0.6338,0.6338,0.6338,0.6338,0.6203,0.6095,0.5942,0.5732,0.5474,0.5125,0.4989,0.4989,0.4989,0.5084,0.5196,0.5101,0.5128,0.5182,0.5036,0.4891,0.4758,0.4707,0.4691,0.4714,0.4834,0.5293,0.5787,0.5868,0.6578,0.7343,0.7343,0.7883,0.8427,0.8427,0.8995,0.9517,0.9762,1.1523,1.3243,1.407,1.36,1.4003,1.6632,1.6028,1.574,1.6944,1.7079,1.7034,1.7034,1.7504,1.7987,1.8341,1.8788,1.9177,1.9406,1.9696,1.9818,1.9711,1.9726,1.9726,1.9726,1.9726,1.9889,2.0258,0.0,0.0,0.0,0.0,0.0,0.0,0.0,0.0,0.0,0.0,0.0,0.0,0.0,0.0,0.0,0.0,0.0,0.0,0.0,0.0,0.0,0.0,0.0,0.4348,0.4704,0.4847,0.3975,0.1571,0.2236,0.7947,0.3437,0.1775,0.5888,0.6277,0.6336,0.6329,0.6298,0.6278,0.6278,0.6268,0.6338,0.6338,0.6338,0.6338,0.6338,0.6338,0.6338,0.6338,0.6338,0.6338,0.6338,0.6338,0.6338,0.6247,0.6088,0.5939,0.5766,0.5318,0.5142,0.5138,0.5138,0.5233,0.5428,0.5428,0.5428,0.5338,0.5186,0.504,0.4897,0.4748,0.4704,0.4843,0.5337,0.5638,0.591,0.638,0.6539,0.6588,0.6588,0.7128,0.7723,0.7723,0.8262,0.9008,0.9666,1.0312,1.0965,1.1665,1.1814,1.2847,1.5882,1.5385,0.0,1.7882,1.7165,1.6466,1.6509,1.698,1.734,1.734,1.8631,1.9244,1.893,1.9702,2.005,1.9711,1.9762,1.9797,1.9797,1.9762,2.0311,2.157,0.0,0.0,0.0,0.0,0.0,0.0,0.0,0.0,0.0,0.0,0.0,0.0,0.0,0.0,0.0,0.0,0.0,0.0,0.0,0.0,0.0,0.0,0.5177,0.4953,0.2945,0.1362,0.1165,0.0477,0.0641,0.2293,0.2522,0.3081,0.4223,0.5656,0.6396,0.6291,0.6335,0.6271,0.6278,0.6268,0.6338,0.6338,0.6338,0.6338,0.6338,0.6338,0.6338,0.6338,0.6338,0.6338,0.6338,0.6338,0.6338,0.624,0.5973,0.5905,0.5932,0.5596,0.5396,0.5298,0.5298,0.5325,0.5428,0.5428,0.5428,0.5422,0.5311,0.5196,0.5064,0.5023,0.5009,0.4979,0.5068,0.5117,0.5173,0.5182,0.5485,0.5819,0.5819,0.6794,0.7723,0.7723,0.8262,0.8857,0.9061,0.9211,0.9865,1.1516,1.1814,1.2415,1.4233,1.4264,0.0,1.5525,1.5772,1.6139,1.6993,1.7544,1.806,1.8508,1.9221,1.9411,1.893,1.95,1.9782,1.9711,1.9726,1.9726,1.9726,2.0,2.0364,0.0,0.0,0.0,0.0,0.0,0.0,0.0,0.0,0.0,0.0,0.0,0.0,0.0,0.0,0.0,0.0,0.0,0.0,0.0,0.0,0.0,0.0,0.4168,0.4193,0.3181,0.1324,0.0,0.0,0.0,0.0,0.0,0.126,0.2827,0.4618,0.5878,0.6471,0.6331,0.6315,0.6264,0.6271,0.6264,0.6338,0.6338,0.6338,0.6338,0.6338,0.6338,0.6338,0.6257,0.6193,0.62,0.0,0.6193,0.6166,0.6156,0.604,0.5969,0.0,0.0,0.0,0.0,0.0,0.5428,0.5428,0.5428,0.5428,0.5428,0.5428,0.5257,0.5131,0.5131,0.5131,0.5087,0.488,0.487,0.487,0.4653,0.486,0.5058,0.5058,0.5923,0.6848,0.7182,0.783,0.8427,0.8752,0.8804,0.0,1.0712,1.0965,1.1644,1.3758,1.37,1.3882,1.5222,1.5283,1.5572,1.6468,1.6894,1.7289,1.7903,1.8726,0.0,0.0,0.0,1.9854,1.9762,1.9726,0.0,0.0,0.0,2.0398,2.1023,0.0,0.0,0.0,2.1599,2.1363,0.0,0.0,0.0,0.0,0.0,0.0,0.0,0.0,0.0,0.0,0.0,0.0,0.0,0.0,0.0,0.0,0.4184,0.3081,0.0336,0.0,0.0,0.0,0.0,0.0,0.0,0.0,0.1631,0.5641,0.6437,0.6621,0.6308,0.0,0.0,0.0,0.0,0.6338,0.6338,0.6338,0.6338,0.6338,0.6338,0.6338,0.6254,0.6118,0.6122,0.623,0.6108,0.6047,0.604,0.6176,0.6054,0.5752,0.5491,0.546,0.5549,0.5413,0.5428,0.5428,0.5428,0.0,0.0,0.5428,0.527,0.5155,0.5155,0.5155,0.5098,0.4819,0.4826,0.4853,0.4562,0.4529,0.4519,0.4519,0.5003,0.5706,0.6312,0.7074,0.7777,0.8427,0.8646,0.885,0.9451,0.971,1.0797,1.3749,1.331,1.3518,1.5696,1.5189,1.4869,1.5496,0.0,0.0,1.6557,1.7865,1.8503,1.8131,1.9383,2.005,1.9797,1.9797,1.9995,2.0413,2.0065,2.0379,2.1444,2.115,2.1415,2.2209,2.1903,2.1827,0.0,0.0,0.0,0.0,0.0,0.0,0.0,0.0,0.0,0.0,0.0,0.0,0.0,0.0,0.0,0.4652,0.2442,0.0686,0.0088,0.0,0.0,0.0,0.0,0.0,0.0,0.0,0.1003,0.3513,0.5537,0.6568,0.6437,0.6325,0.0,0.6338,0.6338,0.6338,0.6338,0.6338,0.6338,0.6338,0.0,0.0,0.6335,0.623,0.6166,0.6078,0.6176,0.6146,0.603,0.6061,0.5901,0.5627,0.5569,0.5488,0.547,0.5439,0.5428,0.5428,0.5428,0.5428,0.5428,0.5428,0.5342,0.5318,0.5318,0.5318,0.0,0.5098,0.4986,0.4877,0.4694,0.4555,0.4519,0.4519,0.5003,0.5542,0.5706,0.6308,0.6858,0.702,0.7503,0.7937,0.809,0.9033,1.0391,1.2048,1.2153,1.2385,1.3423,1.3794,1.4369,1.5329,1.6325,1.6967,1.7116,1.8184,1.8627,1.8131,1.9155,1.9782,1.9726,1.9726,1.9747,1.9854,2.007,2.0314,2.0534,2.0846,2.1244,2.1718,2.2049,2.218,0.0,0.0,0.0,0.0,0.0,0.0,0.0,0.0,0.0,0.0,0.0,0.2708,0.0,0.0,0.4351,0.2538,0.0945,0.0,0.0,0.0,0.0,0.0,0.0,0.0,0.0,0.0,0.0421,0.1462,0.4632,0.6408,0.639,0.6312,0.6274,0.6278,0.6268,0.6264,0.6271,0.6264,0.6338,0.6338,0.6338,0.6338,0.6257,0.6179,0.6146,0.6142,0.6064,0.5986,0.5911,0.5847,0.5728,0.5593,0.5672,0.5579,0.5369,0.5369,0.5372,0.5379,0.5379,0.5379,0.5379,0.5379,0.5379,0.5379,0.5379,0.5394,0.5366,0.528,0.5064,0.4848,0.4633,0.4538,0.448,0.448,0.475,0.5014,0.4988,0.5311,0.5756,0.6475,0.6912,0.7289,0.7616,0.8296,0.9235,1.061,1.0813,1.1174,1.2246,1.2618,1.326,1.4474,1.5385,1.607,1.641,1.7451,1.809,1.8092,1.8855,1.9281,1.9281,1.9566,1.969,1.969,1.9909,2.0227,2.0649,2.0894,2.1323,2.1957,2.1957,2.2077,0.0,0.0,0.0,0.0,0.0,0.0,0.0,0.0,0.2582,0.1667,0.1472,0.1753,0.2754,0.2887,0.2302,0.0347,0.0,0.0,0.0,0.0,0.0,0.0,0.0,0.0,0.0,0.0,0.0,0.0,0.3164,0.5248,0.5662,0.5646,0.5883,0.6295,0.5879,0.587,0.6281,0.6274,0.6268,0.6268,0.6268,0.6268,0.6264,0.6139,0.6132,0.6283,0.5925,0.5823,0.5771,0.5779,0.5501,0.5139,0.5627,0.5665,0.5386,0.5036,0.4906,0.4846,0.4846,0.4846,0.4846,0.4846,0.4846,0.4846,0.4846,0.4885,0.4874,0.4869,0.466,0.4391,0.4132,0.4039,0.4039,0.4039,0.4039,0.4086,0.4161,0.4378,0.4824,0.5987,0.6317,0.6583,0.7176,0.7396,0.8031,0.9555,0.9814,1.0269,1.1466,1.1715,1.2199,1.3283,1.4179,1.4971,1.572,1.6714,1.7463,1.7907,1.8458,1.8779,1.8893,1.9332,1.9603,1.969,1.969,2.005,2.0731,2.0731,2.1197,2.2049,2.1675,2.1764,0.258,0.2534,0.2427,0.1537,0.1601,0.1942,0.0,0.0,0.189,0.0457,0.024,0.0246,0.0404,0.0424,0.0355,0.0,0.0,0.0,0.0,0.0,0.0,0.0,0.0,0.0,0.0,0.0,0.0,0.0,0.0401,0.1525,0.3363,0.3437,0.4304,0.6217,0.446,0.438,0.6291,0.6291,0.6291,0.6291,0.6291,0.6291,0.6291,0.6274,0.6273,0.6293,0.5954,0.5822,0.5809,0.594,0.4922,0.3536,0.5173,0.5607,0.5202,0.3623,0.3013,0.3013,0.3013,0.3013,0.3013,0.3013,0.3013,0.3013,0.3013,0.3019,0.2997,0.2979,0.2949,0.2855,0.2535,0.2456,0.2456,0.2456,0.2456,0.2565,0.306,0.3849,0.4525,0.4684,0.5222,0.5651,0.576,0.6308,0.7439,0.9496,0.9814,1.0064,1.0813,1.1408,1.1864,1.2012,1.3643,1.5152,1.6293,1.6938,1.7353,1.7394,1.7907,1.8419,1.8893,1.8968,1.9207,1.969,1.969,1.9747,1.9854,1.9854,2.0277,2.1134,2.1086,2.1524,0.306,0.2554,0.0,0.0,0.1262,0.097,0.1678,0.189,0.1606,0.0249,0.0,0.0,0.0,0.0,0.0,0.0,0.0,0.0,0.0,0.0,0.0,0.0,0.0,0.0,0.0,0.0,0.0,0.0,0.0,0.0396,0.1254,0.133,0.1721,0.2586,0.2971,0.2969,0.2662,0.3834,0.4462,0.4462,0.4462,0.4462,0.446,0.478,0.5256,0.5864,0.4708,0.4751,0.5604,0.561,0.4522,0.3049,0.5046,0.5616,0.5276,0.4582,0.2958,0.1141,0.1141,0.1141,0.1141,0.1141,0.1141,0.1138,0.112,0.1104,0.1147,0.1155,0.1128,0.1108,0.0959,0.0895,0.0895,0.0895,0.0895,0.1006,0.1227,0.2963,0.4497,0.4484,0.4698,0.4908,0.4944,0.5152,0.5846,0.7287,0.7788,0.833,0.9459,0.9813,1.062,1.219,1.311,1.4111,1.5332,1.5676,1.5784,1.5784,1.6634,1.7328,1.7892,1.8559,1.9169,1.969,1.969,1.9818,2.007,2.007,2.0364,2.0991,2.0991,2.1323,0.2922,0.0,0.0,0.1982,0.1053,0.0237,0.1077,0.1284,0.1052,0.0178,0.0,0.0,0.0,0.0,0.0,0.0,0.0,0.0,0.0,0.0,0.0,0.0,0.0,0.0,0.0,0.0,0.0,0.0,0.0,0.0,0.0,0.0,0.0,0.0,0.1492,0.1486,0.0,0.1486,0.2267,0.2267,0.2267,0.2267,0.2266,0.3685,0.423,0.4104,0.3418,0.3436,0.4016,0.4987,0.4019,0.2101,0.3594,0.4678,0.5279,0.4284,0.2274,0.0,0.0,0.0,0.0,0.0,0.0,0.0,0.0,0.0,0.0,0.0,0.0,0.0,0.0,0.0,-0.0224,-0.1065,-0.1233,-0.1064,-0.0558,0.1282,0.291,0.3183,0.3236,0.3231,0.3269,0.3487,0.3923,0.4576,0.5425,0.6588,0.8218,0.8744,0.9959,1.2522,1.2822,1.3301,1.4606,1.4698,1.4789,1.4926,1.5696,1.6506,1.7205,1.8157,1.893,1.9479,1.9603,1.9839,2.0124,2.0124,2.0416,2.0991,2.0862,2.1086,0.0,0.0,0.1033,0.1682,0.0893,0.0,0.0089,0.0092,0.0,0.0,0.0,0.0,0.0,0.0,0.0,0.0,0.0,0.0,0.0,0.0,0.0,0.0,0.0,0.0,0.0,0.0,0.0,0.0,0.0,0.0,0.0,0.0,0.0,0.0,0.0079,0.0079,0.0,0.0079,0.0079,0.0079,0.0079,0.0079,0.0236,0.3773,0.3442,0.0291,0.2235,0.1979,0.0421,0.393,0.3297,0.007,0.0136,0.2297,0.4947,0.1438,0.0066,0.0,0.0,0.0,0.0,0.0,0.0,0.0,0.0,0.0,0.0,0.0,0.0,0.0,0.0,0.0,-0.0728,-0.3658,-0.4343,-0.3822,-0.189,-0.1387,-0.1053,-0.0055,0.011,0.011,0.011,0.0941,0.1609,0.1608,0.3292,0.5309,0.7456,0.8922,1.0559,1.257,1.2822,1.3301,1.4606,1.4698,1.4971,1.5543,1.5632,1.6145,1.7271,1.7827,1.838,1.8893,1.9442,1.9726,1.9711,1.9711,2.0139,2.0991,2.0516,2.0765,0.1578,0.0,0.1333,0.0773,0.0269,0.0,0.0,0.0,0.0,0.0,-0.0275,-0.0442,-0.0083,0.0,0.0,0.0,0.0,0.0,0.0,0.0,0.0,0.0,0.0,0.0,0.0,0.0,0.0,0.0,0.0,0.0,0.0,0.0,0.0,0.0,0.0,0.0,0.0,0.0,0.0,0.0,0.0,0.0,0.0075,0.1292,0.244,0.347,0.1809,0.0645,0.0068,0.1323,0.1111,0.0,0.0,0.0742,0.1684,0.0467,0.0,0.0,0.0,0.0,0.0,0.0,0.0,0.0,0.0,0.0,-0.0422,-0.2427,-0.3278,-0.3282,-0.2093,-0.1819,-0.2016,-0.2789,-0.3768,-0.433,-0.3655,-0.3466,-0.3408,-0.3067,-0.301,-0.301,-0.301,-0.161,-0.0277,0.0387,0.2768,0.5003,0.6332,0.7176,0.8317,0.9893,1.0097,1.0655,1.1975,1.2531,1.286,1.309,1.3914,1.4926,1.604,1.6663,1.7423,1.8341,1.8893,1.9169,1.9169,1.9808,2.0261,2.055,2.0975,2.1321,0.1011,0.1346,0.1205,0.0279,0.0,0.0,0.0,0.0,0.0,0.0,-0.0689,-0.106,-0.0459,-0.015,-0.0,-0.0151,-0.0078,0.0,0.0,0.0,0.0,0.0,0.0,0.0,0.0,0.0,0.0,0.0,0.0,0.0,0.0,0.0,0.0,0.0,0.0,0.0,0.0,0.0,0.0,0.0,0.0,0.0,0.0,0.0,0.1246,0.3336,0.1005,0.0,0.0,0.0,0.0,0.0,0.0,0.0,0.0,0.0,0.0,0.0,0.0,0.0,0.0,0.0,0.0,-0.0181,-0.1286,-0.1777,-0.2228,-0.347,-0.4529,-0.5125,-0.469,-0.461,-0.4588,-0.448,-0.5082,-0.567,-0.5482,-0.5349,-0.525,-0.525,-0.525,-0.525,-0.525,-0.4048,-0.2925,-0.2422,0.0055,0.2583,0.4594,0.5873,0.6897,0.7629,0.8016,0.8822,1.0273,1.078,1.1232,1.1738,1.2831,1.395,1.5126,1.5966,1.6928,1.8066,1.8612,1.9006,1.9207,1.9773,2.0261,2.055,2.0959,2.129,0.0,0.043,0.0733,0.0097,0.0,0.0,0.0,0.0,-0.0,-0.0084,-0.0949,-0.1554,0.0,0.0,-0.0136,-0.0348,-0.0211,-0.0,-0.0,0.0,0.0,0.0,0.0,0.0,0.0,0.0,0.0,0.0,0.0,0.0,0.0,0.0,0.0,0.0,0.0,0.0,0.0,0.0,0.0,0.0,0.0,0.0,0.0,0.0,0.0,0.0,0.0,0.0,0.0,0.0,0.0,0.0,0.0,0.0,0.0,0.0,0.0,-0.0,-0.0195,-0.0126,-0.0,-0.0179,-0.0235,-0.0759,-0.3586,-0.4862,-0.5042,-0.335,-0.3917,-0.5456,-0.7441,-0.7957,-0.8083,-0.8389,-0.8172,-0.7738,-0.7213,-0.6854,-0.6637,-0.6637,-0.6637,-0.6637,-0.6637,-0.6288,-0.6126,-0.6652,-0.4685,-0.1753,0.2086,0.4743,0.6126,0.5761,0.6605,0.7805,0.9364,0.957,1.0132,1.1396,1.226,1.3212,1.4381,1.5636,1.6844,1.7933,1.8574,1.9132,1.9603,1.9675,2.0154,2.0959,2.055,2.0797,0.0,0.0092,0.0193,0.0,0.0,0.0,0.0,0.0,-0.0334,-0.1432,-0.1337,-0.1251,0.0,0.0,0.0,-0.0135,-0.043,0.0,-0.0079,0.0,0.0,0.0,0.0,0.0,0.0,0.0,0.0,0.0,0.0,0.0,0.0,0.0,0.0,0.0,0.0,0.0,0.0,0.0,0.0,0.0,0.0,0.0,0.0,0.0,0.0,0.0,0.0,0.0,0.0,0.0,0.0,0.0,0.0,0.0,0.0,0.0,0.0,-0.0325,-0.2591,-0.1864,-0.0368,-0.2623,-0.3369,-0.331,-0.3182,-0.4042,-0.5082,-0.5281,-0.592,-0.6706,-0.732,-0.7768,-0.798,-0.7912,-0.7691,-0.7417,-0.7125,-0.7219,-0.7351,-0.7351,-0.7351,-0.7351,-0.7351,-0.7239,-0.7388,-0.8069,-0.71,-0.5081,-0.1863,0.0384,0.2199,0.3507,0.389,0.4819,0.6732,0.7541,0.8174,0.8632,1.0319,1.1666,1.2397,1.4174,1.5487,1.6219,1.7585,1.838,1.8496,1.96,2.0246,2.0483,2.1039,2.1383,0.0,0.0,0.0,0.0,0.0,-0.0189,-0.0988,-0.1082,-0.1141,-0.1657,-0.1599,0.0,0.0,0.0,0.0,0.0,0.0,0.0,-0.0374,-0.0157,0.0,0.0,0.0,0.0,0.0,0.0,0.0,0.0,0.0,0.0,0.0,0.0,0.0,0.0,0.0,0.0,0.0,0.0,0.0,0.0,0.0,0.0,0.0,0.0,0.0,0.0,0.0,0.0,0.0,0.0,0.0,0.0,0.0,0.0,0.0,0.0,-0.086,-0.2187,-0.3882,-0.3371,-0.2164,-0.3145,-0.3937,-0.4416,-0.3785,-0.4627,-0.5842,-0.6198,-0.6865,-0.759,-0.8062,-0.8274,-0.8436,-0.8874,-0.8993,-0.8964,-0.8744,-0.8869,-0.9023,-0.9023,-0.9023,-0.9023,-0.9023,-0.9023,-0.912,-0.9578,-0.8958,-0.7676,-0.5726,-0.34,-0.1377,0.0164,0.0714,0.1925,0.4399,0.5101,0.586,0.6801,0.7961,0.9424,1.1169,1.2618,1.4082,1.554,1.6747,1.7464,1.7706,1.9059,1.9778,2.0024,2.0699,2.1134,0.0,0.0,0.0,0.0,0.0,-0.0451,-0.237,-0.2513,-0.2116,-0.1668,0.0,-0.2237,-0.2171,0.0,-0.1813,-0.1486,0.0,-0.0192,-0.0683,-0.0366,0.0,0.0,0.0,0.0,0.0,0.0,0.0,0.0,0.0,0.0,0.0,0.0,0.0,0.0,0.0,0.0,0.0,0.0,0.0,0.0,0.0,0.0,0.0,0.0,0.0,0.0,0.0,0.0,0.0,0.0,0.0,-0.0067,-0.0541,-0.0744,-0.0674,-0.0471,-0.1989,-0.4277,-0.4454,-0.4562,-0.4305,-0.2941,-0.3413,-0.4577,-0.4836,-0.5758,-0.6713,-0.6648,-0.7341,-0.8297,-0.911,-0.9237,-0.937,-1.0425,-1.1048,-1.1293,-1.0966,-1.1072,-1.1166,-1.1175,-1.1091,-1.1057,-1.0965,-1.1015,-1.1065,-1.1074,-1.0519,-0.9834,-0.9186,-0.6742,-0.4634,-0.3572,-0.2536,-0.0881,0.1752,0.2307,0.3301,0.5179,0.5569,0.6954,0.9779,1.0905,1.2569,1.4969,1.5656,1.6358,1.7096,1.8182,1.8962,1.9513,1.9989,2.0449,0.0,0.0,0.0,0.0,0.0,-0.0605,-0.2908,-0.3035,0.0,0.0,0.0,-0.2611,-0.2537,-0.2533,0.0,-0.1187,0.0,0.0,0.0,0.0,0.0,0.0,0.0,0.0,0.0,0.0,0.0,0.0,0.0,0.0,0.0,0.0,0.0,0.0,0.0,0.0,0.0,0.0,0.0,0.0,0.0,0.0,0.0,0.0,0.0,0.0,0.0,0.0,0.0,0.0,0.0,-0.027,-0.3318,-0.4477,-0.4252,-0.2751,-0.2539,-0.3173,-0.4338,-0.4738,-0.467,-0.4223,-0.4255,-0.4619,-0.5388,-0.5965,-0.6501,-0.7407,-0.8142,-0.8819,-0.9471,-1.0219,-1.0866,-1.1008,-1.1418,-1.182,-1.1901,-1.2588,-1.319,-1.3123,-1.2761,-1.2288,-1.1706,-1.2092,-1.2444,-1.251,-1.2346,-1.1889,-1.1098,-0.9233,-0.7617,-0.662,-0.5023,-0.371,-0.3096,-0.0879,0.0998,0.2213,0.3839,0.5011,0.5575,0.8649,1.0997,1.234,1.3372,1.4775,1.6549,1.7179,1.7997,1.9029,1.9513,1.9974,0.0,0.0,0.0,0.0,0.0,-0.0503,-0.2466,0.0,0.0,0.0,0.0,-0.3,-0.3115,0.0,0.0,0.0,0.0,0.0,0.0,0.0,0.0,0.0,0.0,0.0,0.0,0.0,0.0,0.0,0.0,0.0,0.0,0.0,0.0,0.0,0.0,0.0,0.0,0.0,0.0,0.0,0.0,0.0,0.0,0.0,0.0,-0.0073,-0.1959,0.0,-0.2765,-0.1773,-0.1427,-0.1546,-0.3341,-0.4566,-0.5266,-0.4439,-0.3954,-0.39,-0.4544,-0.4939,-0.517,-0.5064,-0.5011,-0.5223,-0.6289,-0.7252,-0.8212,-0.8762,-0.9722,-1.0656,-1.0703,-1.1256,-1.1744,-1.176,-1.2577,-1.3542,-1.4234,-1.4747,-1.4991,-1.4676,-1.4386,-1.401,-1.3389,-1.3402,-1.3476,-1.3507,-1.3091,-1.2644,-1.2272,-1.1447,-1.0549,-0.9569,-0.8065,-0.6408,-0.457,-0.3118,-0.1484,0.0609,0.1599,0.2518,0.3253,0.625,0.8597,1.0132,1.21,1.3543,1.4506,1.6071,1.7068,1.7612,1.8722,1.9346,0.0,0.0,0.0,0.0,0.0,-0.0405,-0.177,-0.2925,0.0,0.0,-0.3504,-0.3412,-0.3674,0.0,0.0,0.0,0.0,0.0,0.0,0.0,0.0,0.0,0.0,0.0,0.0,0.0,0.0,0.0,0.0,0.0,0.0,0.0,0.0,0.0,0.0,0.0,0.0,0.0,0.0,0.0,0.0,-0.0471,-0.1333,-0.1218,-0.0965,-0.0726,-0.3596,0.0,0.0,-0.3894,-0.3284,-0.3284,-0.3282,-0.4146,-0.5342,-0.5536,-0.5353,-0.5104,-0.5189,-0.5521,-0.5868,-0.6091,-0.6072,-0.6132,-0.726,-0.8655,-0.9881,-1.0003,-1.1053,-1.211,-1.1845,-1.2203,-1.2734,-1.3279,-1.4332,-1.5552,-1.6554,-1.6781,-1.6657,-1.615,-1.5873,-1.5493,-1.4911,-1.4505,-1.4224,-1.4222,-1.3909,-1.3493,-1.2959,-1.3366,-1.3372,-1.2641,-1.1216,-0.9198,-0.6523,-0.521,-0.349,-0.1099,-0.0941,-0.0166,0.1627,0.3582,0.5845,0.8365,1.0322,1.1822,1.2822,1.4563,1.5755,1.6421,1.7746,1.8559,0.0,0.0,0.0,0.0,0.0,-0.031,-0.1573,0.0,0.0,-0.3974,-0.3846,-0.3837,-0.4122,0.0,0.0,0.0,0.0,-0.2926,0.0,0.0,0.0,0.0,0.0,0.0,0.0,0.0,0.0,0.0,0.0,0.0,0.0,0.0,0.0,0.0,0.0,0.0,0.0,0.0,0.0,0.0,0.0,-0.2043,-0.568,-0.5184,-0.4021,-0.2462,-0.2821,0.0,0.0,-0.5189,-0.5122,-0.5119,-0.5176,-0.516,-0.5233,-0.5911,-0.6034,-0.5972,-0.649,-0.6739,-0.6951,-0.8074,-0.7929,-0.7564,-0.8315,-0.93,-1.0225,-1.0621,-1.1044,-1.1502,-1.2009,-1.3069,-1.4457,-1.6191,-1.6814,-1.7199,-1.785,-1.7983,-1.7981,-1.7891,-1.7038,-1.6045,-1.5292,-1.4879,-1.4631,-1.4653,-1.5494,-1.5389,-1.318,-1.4801,-1.6146,-1.6032,-1.3989,-1.248,-1.2147,-0.7419,-0.4398,-0.41,-0.4094,-0.2781,0.011,0.0442,0.2745,0.7441,0.6887,0.8617,1.2822,1.2339,1.3615,1.6378,1.6549,1.745,0.0,0.0,0.0,0.0,-0.1624,-0.3006,-0.2208,0.0,-0.4317,-0.4301,-0.4242,-0.4294,-0.446,0.0,0.0,0.0,0.0,0.0,0.0,0.0,0.0,0.0,0.0,0.0,0.0,0.0,0.0,0.0,0.0,0.0,0.0,0.0,0.0,0.0,0.0,0.0,0.0,-0.2507,-0.3786,-0.3777,-0.2507,-0.2642,-0.4146,-0.5202,-0.5144,-0.4331,-0.43,0.0,0.0,-0.5379,-0.5321,-0.5233,-0.5739,-0.5765,-0.574,-0.6459,-0.6913,-0.7161,-0.7413,-0.8152,-0.9037,-0.9225,-0.9881,-1.0527,-1.0332,-1.0849,-1.1616,-1.2133,-1.3157,-1.4081,-1.3756,-1.4545,-1.5872,-1.7629,-1.8095,-1.8322,-1.9002,-1.9171,-1.9152,-1.9139,-1.8772,-1.7931,-1.6275,-1.5881,-1.5768,-1.5776,-1.6176,-1.6132,-1.5186,-1.5923,-1.6497,-1.6485,-1.5645,-1.4482,-1.3017,-1.0831,-0.8101,-0.4722,-0.6147,-0.5769,-0.2837,-0.0989,0.132,0.4222,0.6513,0.8266,0.9533,1.1442,1.3002,1.4277,1.5736,1.6915,-0.0176,0.0,0.0,0.0,-0.2559,-0.4646,0.0,0.0,-0.4423,-0.4512,-0.4519,-0.4629,-0.4853,-0.4959,-0.5011,-0.512,-0.5073,-0.5009,0.0,0.0,0.0,0.0,0.0,0.0,0.0,0.0,0.0,0.0,0.0,0.0,0.0,-0.1199,-0.1865,-0.1836,-0.1835,-0.1553,-0.0941,-0.3834,-0.5592,-0.6099,-0.4658,-0.3821,-0.3655,-0.5032,-0.5573,-0.5461,-0.5443,0.0,0.0,-0.569,-0.5654,-0.5505,-0.6253,-0.6476,-0.6379,-0.731,-0.7886,-0.819,-0.8626,-0.9542,-1.0527,-1.0576,-1.1505,-1.2554,-1.2364,-1.2526,-1.295,-1.3511,-1.4712,-1.5822,-1.5553,-1.6266,-1.7444,-1.8973,-1.9389,-1.9545,-2.0092,-1.9984,-1.9885,-2.03,-2.0053,-1.9319,-1.7725,-1.6913,-1.6481,-1.6481,-1.6517,-1.6723,-1.7358,-1.7461,-1.7205,-1.6579,-1.6479,-1.5796,-1.4131,-1.3319,-1.1228,-0.7222,-0.8915,-0.8545,-0.5268,-0.2667,-0.044,0.1503,0.4606,0.6737,0.7836,1.0089,1.1742,1.286,1.4552,1.6016,-0.0457,0.0,0.0,0.0,-0.2197,-0.4439,0.0,0.0,-0.4194,-0.4436,-0.4632,-0.4802,-0.5242,-0.5297,-0.5352,-0.5567,-0.5567,0.0,0.0,0.0,0.0,0.0,0.0,0.0,0.0,0.0,0.0,0.0,0.0,0.0,0.0,-0.3965,-0.6228,-0.6228,-0.6228,-0.5242,-0.3124,-0.3124,-0.4024,-0.5777,-0.5777,-0.5767,-0.5682,-0.5463,-0.5461,0.0,0.0,0.0,0.0,-0.633,-0.6479,-0.6249,-0.7125,-0.7235,-0.7074,-0.8466,-0.8836,-0.8894,-1.0297,-1.0771,-1.1015,-1.2327,-1.2773,-1.3014,-1.4272,-1.4247,-1.392,-1.4525,-1.5107,-1.5849,-1.6991,-1.8197,-1.9377,-2.0518,-2.0917,-2.1077,-2.1077,-2.0422,-2.0159,-2.1431,-2.0661,-1.9809,-1.975,-1.7938,-1.6507,-1.6507,-1.6478,-1.7262,-1.9412,-1.9674,-1.8857,-1.6736,-1.6507,-1.649,-1.6465,-1.4283,-1.2881,-1.2831,-1.2849,-1.0954,-0.6739,-0.5206,-0.3035,-0.0057,0.0056,0.2956,0.8799,0.7907,0.9291,1.2822,1.2812,1.4416,-0.2671,-0.2201,-0.2199,-0.2164,-0.3715,-0.5237,-0.5405,0.0,-0.4641,-0.4906,-0.5047,-0.5198,-0.5437,-0.5727,-0.5941,-0.5996,-0.5991,0.0,0.0,0.0,0.0,0.0,0.0,0.0,0.0,0.0,0.0,0.0,0.0,0.0,0.0,-0.5546,-0.6284,-0.6306,-0.6278,-0.5902,-0.498,-0.5045,-0.5286,-0.5762,-0.5749,-0.5738,-0.5661,-0.5973,-0.6156,0.0,0.0,0.0,0.0,-0.6954,-0.6833,-0.6817,-0.8028,-0.8385,-0.8284,-0.9716,-1.0368,-1.0705,-1.1115,-1.171,-1.2407,-1.3354,-1.4361,-1.5126,-1.5279,-1.5074,-1.5187,-1.6931,-1.7455,-1.7797,-1.9307,-2.0033,-2.0443,-2.0894,-2.1023,-2.0948,-2.0334,-2.0014,-2.0438,-2.2598,-2.2655,-2.2425,-2.2425,-2.1821,-2.0743,-1.8953,-1.8668,-1.8928,-1.9631,-1.9723,-1.9447,-1.8747,-1.7356,-1.6477,-1.651,-1.5816,-1.4638,-1.299,-1.289,-1.1906,-0.9626,-0.8578,-0.689,-0.45,-0.1945,0.0283,0.2156,0.6347,0.99,1.2812,1.3182,1.4303,0.0,-0.4356,-0.4449,-0.4489,-0.5108,0.0,0.0,0.0,-0.5043,-0.493,-0.5229,-0.5523,-0.5592,-0.6054,-0.6426,-0.6534,-0.6593,0.0,0.0,0.0,0.0,0.0,0.0,0.0,0.0,0.0,0.0,0.0,0.0,0.0,0.0,-0.5842,-0.6247,-0.6202,-0.6237,-0.6167,-0.5993,-0.5999,-0.5892,-0.5748,-0.6029,-0.6091,-0.5874,-0.6481,-0.6834,0.0,0.0,0.0,0.0,-0.7535,-0.7623,-0.7796,-0.902,-0.9489,-0.9614,-1.0746,-1.1539,-1.2015,-1.226,-1.288,-1.3714,-1.4441,-1.5544,-1.6581,-1.6337,-1.6163,-1.6365,-1.7751,-1.8385,-1.8895,-2.0153,-2.0859,-2.133,-2.1521,-2.1846,-2.1882,-2.1366,-2.1238,-2.1715,-2.3303,-2.3611,-2.3593,-2.3586,-2.3595,-2.2948,-2.1001,-2.0676,-2.0677,-2.0701,-2.0314,-1.9939,-1.9631,-1.85,-1.7606,-1.7193,-1.672,-1.5926,-1.4712,-1.437,-1.36,-1.2184,-1.144,-1.0024,-0.7881,-0.5173,-0.284,-0.0872,0.5642,0.9465,1.0802,1.2493,1.3693,0.0,-0.6318,0.0,0.0,0.0,0.0,0.0,0.0,0.0,-0.4702,-0.5229,-0.5831,-0.5794,-0.6337,-0.6815,-0.7085,-0.7252,0.0,0.0,0.0,0.0,0.0,0.0,0.0,0.0,0.0,0.0,0.0,0.0,0.0,0.0,-0.5251,-0.6207,-0.5976,-0.6186,-0.6244,-0.6213,-0.6071,-0.5922,-0.5837,-0.6587,-0.6659,-0.6312,-0.7173,-0.7431,0.0,0.0,0.0,0.0,-0.8194,-0.8726,-0.9207,-1.0046,-1.0656,-1.1007,-1.1715,-1.2337,-1.3004,-1.3674,-1.4294,-1.4949,-1.5543,-1.6489,-1.7353,-1.7353,-1.7353,-1.7366,-1.7446,-1.8385,-1.9447,-2.0088,-2.1183,-2.2206,-2.2408,-2.3062,-2.3625,-2.3787,-2.3833,-2.3794,-2.3621,-2.3606,-2.3573,-2.3575,-2.3721,-2.3561,-2.2726,-2.2444,-2.231,-2.2361,-2.134,-2.0388,-1.9707,-1.9815,-1.9539,-1.8545,-1.7318,-1.6846,-1.746,-1.6822,-1.5822,-1.44,-1.3685,-1.2385,-1.0328,-0.9132,-0.5986,-0.0897,0.5274,0.8015,0.7616,1.0937,1.2425,-0.6881,0.0,-0.6957,-0.6752,-0.6667,-0.6568,0.0,0.0,0.0,0.0,0.0,-0.6464,-0.6646,-0.7029,-0.7354,-0.7413,0.0,0.0,0.0,0.0,0.0,0.0,0.0,0.0,0.0,0.0,0.0,0.0,0.0,0.0,0.0,-0.6018,-0.6203,-0.6037,-0.6067,-0.5979,-0.5752,-0.5711,-0.5956,-0.6522,-0.6676,-0.6923,-0.7245,-0.787,-0.8173,0.0,0.0,0.0,-0.9563,-0.9491,-0.982,-1.0466,-1.1192,-1.1787,-1.2434,-1.3082,-1.3554,-1.3921,-1.4684,-1.5428,-1.6183,-1.6884,-1.7462,-1.7907,-1.7907,-1.7907,-1.8085,-1.9014,-2.0231,-2.1585,-2.3113,-2.3878,-2.4131,-2.3483,-2.3449,-2.4053,-2.5641,-2.5954,-2.5502,-2.3912,-2.3609,-2.3579,-2.3626,-2.4902,-2.5912,-2.5709,-2.3753,-2.2399,-2.2731,-2.1854,-2.1119,-2.089,-2.0565,-2.0494,-2.0825,-1.9382,-1.8152,-1.7376,-1.7181,-1.6637,-1.5529,-1.473,-1.3979,-1.3203,-1.0248,-0.6121,-0.0897,0.1953,0.5261,0.8946,0.9015,0.9651,-0.7314,-0.7291,-0.7271,-0.7024,-0.7103,-0.7176,-0.6986,0.0,0.0,0.0,0.0,-0.7055,-0.7136,-0.7315,0.0,0.0,0.0,0.0,0.0,0.0,0.0,0.0,0.0,0.0,0.0,0.0,0.0,0.0,0.0,0.0,0.0,-0.6247,-0.6091,-0.5928,-0.6216,-0.6343,-0.6316,-0.6237,-0.6515,-0.7181,-0.7632,-0.7797,-0.7736,-0.8884,-0.9315,0.0,0.0,0.0,-1.0535,-1.034,-1.0855,-1.1747,-1.2101,-1.2822,-1.3737,-1.4086,-1.4631,-1.5215,-1.5635,-1.6411,-1.7303,-1.7679,-1.8277,-1.8855,-1.9181,-1.9581,-1.9975,-2.0208,-2.1395,-2.2806,-2.379,-2.4461,-2.4639,-2.3795,-2.3595,-2.4169,-2.6261,-2.671,-2.6356,-2.5239,-2.5022,-2.4729,-2.3763,-2.5325,-2.6703,-2.669,-2.4946,-2.3625,-2.3625,-2.2675,-2.2132,-2.2465,-2.1807,-2.1542,-2.2014,-2.0983,-1.99,-1.898,-1.8598,-1.8052,-1.7207,-1.6438,-1.5439,-1.4204,-1.1172,-0.7807,-0.4136,-0.1031,0.2055,0.5132,0.757,0.8965,-0.7814,-0.7702,-0.7612,-0.7392,-0.759,-0.773,-0.7404,0.0,0.0,0.0,0.0,0.0,0.0,0.0,0.0,0.0,0.0,0.0,0.0,0.0,0.0,0.0,0.0,0.0,0.0,0.0,0.0,0.0,0.0,0.0,0.0,-0.6081,-0.5998,-0.5983,-0.6513,-0.7027,-0.7368,-0.7133,-0.7304,-0.7847,-0.8717,-0.8835,-0.8317,-0.9911,-1.0389,-1.0012,0.0,0.0,-1.1107,-1.1199,-1.1984,-1.311,-1.311,-1.3867,-1.496,-1.496,-1.5696,-1.6676,-1.6747,-1.7544,-1.8492,-1.8556,-1.9286,-2.0263,-2.0877,-2.1757,-2.2337,-2.1564,-2.2423,-2.3678,-2.3899,-2.4559,-2.5067,-2.483,-2.4405,-2.4566,-2.6337,-2.6689,-2.6714,-2.6683,-2.6687,-2.6122,-2.4376,-2.5428,-2.653,-2.6669,-2.5866,-2.511,-2.4729,-2.3675,-2.324,-2.3951,-2.3155,-2.2594,-2.2636,-2.2159,-2.154,-2.086,-2.0143,-1.9475,-1.8715,-1.8015,-1.6599,-1.4433,-1.2202,-1.0241,-0.8359,-0.4072,-0.1293,0.0127,0.5628,0.817,-0.8513,-0.8514,-0.8332,-0.7664,-0.7977,-0.8378,-0.8024,0.0,0.0,0.0,0.0,0.0,0.0,0.0,0.0,0.0,0.0,0.0,0.0,0.0,0.0,0.0,0.0,0.0,0.0,0.0,0.0,0.0,0.0,0.0,0.0,-0.5918,-0.6118,-0.6712,-0.6534,-0.7154,-0.8532,-0.7802,-0.7834,-0.8601,-0.8578,-0.9054,-0.9919,-1.025,-1.0485,-1.0661,0.0,-1.1917,-1.2522,-1.3032,-1.3716,-1.4411,-1.4411,-1.5118,-1.612,-1.612,-1.6873,-1.788,-1.8296,-1.9266,-2.0356,-2.0685,-2.1655,-2.2662,-2.2773,-2.3543,-2.4378,-2.4374,-2.4402,-2.4834,-2.6265,-2.6874,-2.7649,-2.9553,-2.8066,-2.632,-2.6642,-2.6687,-2.6708,-2.6681,-2.6708,-2.6584,-2.6277,-2.5773,-2.5711,-2.6557,-2.6051,-2.5509,-2.5456,-2.4732,-2.434,-2.461,-2.4164,-2.3658,-2.3273,-2.2818,-2.2041,-2.0882,-2.0174,-1.9475,-1.8715,-1.8015,-1.6813,-1.5139,-1.4064,-1.2382,-1.0229,-0.797,-0.4504,0.0,0.1032,0.3003,-0.8756,-0.8952,-0.9036,-0.819,-0.8352,-0.8673,0.0,0.0,0.0,0.0,0.0,0.0,0.0,0.0,0.0,0.0,0.0,0.0,0.0,0.0,0.0,0.0,0.0,0.0,0.0,0.0,0.0,0.0,0.0,0.0,0.0,0.0,-0.6433,-0.6593,-0.7311,-0.8156,-0.9116,-0.9026,-0.9189,-0.9599,-0.9626,-0.9953,-1.0617,-1.1133,-1.1576,-1.1944,0.0,-1.3195,-1.3831,-1.4111,-1.4619,-1.5231,-1.5531,-1.6133,-1.6983,-1.7812,-1.845,-1.9008,-1.9753,-2.0366,-2.0886,-2.1075,-2.1953,-2.2949,-2.2949,-2.3915,-2.5028,-2.5101,-2.5396,-2.5848,-2.6708,-2.7012,-2.74,-2.8508,-2.7708,-2.6708,-2.6705,-2.7361,-2.7698,-2.6857,-2.6708,-2.6707,-2.6714,-2.6332,-2.6166,-2.6643,-2.6403,-2.6184,-2.6184,-2.5909,-2.5725,-2.5832,-2.5018,-2.458,-2.4783,-2.3788,-2.2476,-2.088,-2.0489,-1.9825,-1.8768,-1.8732,-1.8066,-1.6578,-1.5311,-1.4196,-1.3176,-1.0622,-0.8159,-0.5709,-0.5712,-0.2799,-0.9088,-0.9317,-0.9476,-0.8905,-0.889,0.0,0.0,0.0,0.0,0.0,0.0,0.0,0.0,0.0,0.0,0.0,0.0,0.0,0.0,0.0,0.0,0.0,0.0,0.0,0.0,0.0,0.0,0.0,0.0,0.0,0.0,0.0,-0.6741,-0.6848,-0.8131,-0.9107,-0.9576,-1.0126,-1.0447,-1.0524,-1.0644,-1.0923,-1.1266,-1.2097,-1.2717,-1.3301,-1.3935,-1.4457,-1.4926,-1.5186,-1.5576,-1.6058,-1.6693,-1.7396,-1.8154,-1.9447,-1.9939,-2.0028,-2.0878,-2.1263,-2.1423,-2.1613,-2.2399,-2.3257,-2.3348,-2.431,-2.538,-2.5305,-2.5976,-2.6696,-2.669,-2.6399,-2.6045,-2.5732,-2.5687,-2.568,-2.567,-2.6827,-2.7747,-2.7309,-2.6953,-2.6709,-2.669,-2.6691,-2.669,-2.6701,-2.6707,-2.6691,-2.6691,-2.6706,-2.6721,-2.6708,-2.5729,-2.5228,-2.5603,-2.4172,-2.2658,-2.128,-2.093,-2.0232,-1.898,-1.9438,-1.9242,-1.815,-1.6978,-1.6042,-1.538,-1.2934,-1.1363,-1.0613,-1.0617,-0.7683,-0.9813,-0.963,-0.9414,-0.9801,-0.9771,0.0,-0.9397,-0.9507,0.0,-0.9818,0.0,0.0,0.0,0.0,0.0,0.0,0.0,0.0,0.0,0.0,0.0,0.0,0.0,0.0,0.0,0.0,0.0,0.0,0.0,0.0,0.0,0.0,0.0,-0.8232,-0.8726,-0.9411,-1.0235,-1.0577,-1.0924,-1.1198,-1.0941,-1.146,-1.2677,-1.2706,-1.3426,-1.4606,-1.5231,-1.5499,-1.5632,-1.6659,-1.7133,-1.7244,-1.8257,-1.9207,-2.007,-2.0684,-2.0894,-2.0959,-2.1399,-2.2009,-2.2694,-2.3443,-2.4229,-2.489,-2.5207,-2.561,-2.5864,-2.557,-2.6381,-2.726,-2.6817,-2.5557,-2.4085,-2.2911,-2.2637,-2.2625,-2.2625,-2.363,-2.5412,-2.8272,-2.767,-2.6697,-2.6716,-2.6686,-2.6691,-2.6691,-2.6708,-2.6691,-2.6691,-2.6708,-2.6708,-2.6691,-2.6247,-2.5512,-2.4576,-2.3325,-2.2479,-2.2281,-2.1363,-2.0497,-1.9747,-1.9747,-1.9756,-1.9633,-1.9514,-1.8132,-1.538,-1.5148,-1.351,-1.0602,-1.0613,-1.0321,-1.0049,-1.0257,-1.0401,-1.0176,-1.042,0.0,0.0,-0.9901,-1.0004,-1.0339,0.0,0.0,0.0,0.0,0.0,0.0,0.0,0.0,0.0,0.0,0.0,0.0,0.0,0.0,0.0,0.0,0.0,0.0,0.0,0.0,0.0,0.0,0.0,-0.8739,-0.9418,-1.0234,-1.1038,-1.1156,-1.1859,-1.3017,-1.2372,-1.2715,-1.3982,-1.3982,-1.4435,-1.5276,-1.5499,-1.6015,-1.6701,-1.7133,-1.7679,-1.8349,-1.9279,-2.0085,-2.0749,-2.1197,-2.1368,-2.146,-2.2057,-2.2483,-2.2788,-2.3301,-2.3954,-2.4498,-2.4176,-2.4676,-2.5224,-2.448,-2.4806,-2.5447,-2.5584,-2.566,-2.5333,-2.3833,-2.3477,-2.3495,-2.3468,-2.3856,-2.4563,-2.5793,-2.7169,-2.7814,-2.687,-2.6705,-2.6717,-2.6691,-2.6691,-2.6488,-2.5848,-2.6303,-2.6522,-2.6065,-2.6286,-2.6139,-2.5449,-2.4641,-2.386,-2.3086,-2.2241,-2.1424,-2.062,-2.0837,-2.0885,-2.0629,-2.0085,-1.9263,-1.8132,-1.6291,-1.4751,-1.356,-1.2887,-1.1902,-1.0439,-1.089,-1.1303,-1.0868,0.0,0.0,-1.0716,-1.0382,-1.029,-1.0394,0.0,0.0,0.0,0.0,0.0,0.0,0.0,0.0,0.0,0.0,0.0,0.0,0.0,0.0,0.0,0.0,0.0,0.0,0.0,0.0,0.0,0.0,-0.8701,-0.9221,-1.0234,-1.1028,-1.1483,-1.1773,-1.272,-1.4286,-1.3683,-1.3971,-1.4971,-1.4971,-1.541,-1.6145,-1.6145,-1.6701,-1.7585,-1.788,-1.8679,-1.9743,-2.0374,-2.0959,-2.1446,-2.1735,-2.1849,-2.2017,-2.2521,-2.2772,-2.2923,-2.3236,-2.3702,-2.4058,-2.3638,-2.4104,-2.461,-2.3912,-2.3955,-2.4279,-2.4638,-2.5281,-2.5546,-2.446,-2.4205,-2.4194,-2.4197,-2.4212,-2.4194,-2.4193,-2.6814,-2.8641,-2.7611,-2.7039,-2.6699,-2.67,-2.6707,-2.6286,-2.5126,-2.5982,-2.6505,-2.5998,-2.6404,-2.6505,-2.6049,-2.5619,-2.4818,-2.3551,-2.3023,-2.2322,-2.1324,-2.1162,-2.1138,-2.1304,-2.031,-1.9818,-1.98,-1.7778,-1.6327,-1.5379,-1.4647,-1.3252,-1.1114,-1.1452,-1.1846,0.0,0.0,0.0,-1.1647,-1.1036,-1.0419,-0.985,0.0,0.0,0.0,0.0,0.0,0.0,0.0,0.0,0.0,0.0,0.0,0.0,0.0,0.0,0.0,0.0,0.0,0.0,0.0,0.0,0.0,-0.8376,-0.9058,-0.9814,-1.1116,-1.1715,-1.1508,-1.2444,-1.3531,-1.4729,-1.4728,-1.5018,-1.5632,-1.5632,-1.6232,-1.7299,-1.7312,-1.7626,-1.821,-1.9207,-2.0387,-2.1582,-2.1612,-2.1899,-2.231,-2.231,-2.2463,-2.2695,-2.2721,-2.2923,-2.3259,-2.3606,-2.3692,-2.3774,-2.4094,-2.419,-2.419,-2.419,-2.419,-2.419,-2.419,-2.419,-2.4207,-2.4202,-2.4205,-2.4207,-2.42,-2.4218,-2.4231,-2.4201,-2.6786,-2.8985,-2.8961,-2.7698,-2.674,-2.6692,-2.6698,-2.6151,-2.471,-2.5798,-2.6674,-2.6691,-2.6691,-2.6505,-2.6049,-2.5809,-2.5123,-2.3707,-2.3638,-2.3046,-2.1794,-2.0505,-2.0416,-2.1683,-2.0479,-1.9799,-1.9799,-1.9788,-1.8294,-1.5459,-1.5426,-1.4538,-1.1448,-1.1714,0.0,0.0,0.0,0.0,0.0,-1.1072,0.0,0.0,0.0,0.0,0.0,0.0,0.0,0.0,0.0,0.0,0.0,0.0,0.0,0.0,0.0,0.0,0.0,0.0,0.0,0.0,0.0,0.0,0.0,-0.9791,-1.0493,-1.1166,-1.2043,-1.2503,-1.2492,-1.3602,-1.4789,-1.5985,-1.5984,-1.6082,-1.6262,-1.6747,-1.7195,-1.7544,-1.7773,-1.8352,-1.9229,-2.0487,-2.1243,-2.1628,-2.1957,-2.218,-2.2321,-2.25,-2.2634,-2.2772,-2.3236,-2.3459,-2.3628,-2.3937,-2.4054,-2.4074,-2.417,-2.419,-2.419,-2.419,-2.419,-2.419,-2.419,-2.419,-2.4208,-2.4188,-2.4189,-2.4207,-2.42,-2.5087,-2.5546,-2.4422,-2.6808,-2.8265,-2.602,-2.712,-2.7939,-2.6852,-2.6433,-2.5962,-2.5357,-2.5205,-2.5541,-2.6573,-2.6691,-2.6657,-2.6505,-2.6158,-2.5848,-2.5808,-2.5337,-2.5121,-2.5226,-2.3468,-2.2659,-2.3025,-2.2662,-2.1605,-1.9787,-1.9805,-1.9359,-1.8468,-1.7115,-1.5846,-1.1964,0.0,0.0,0.0,0.0,0.0,0.0,0.0,0.0,0.0,0.0,0.0,0.0,0.0,0.0,0.0,0.0,0.0,0.0,0.0,0.0,0.0,0.0,0.0,0.0,0.0,0.0,0.0,0.0,0.0,0.0,-1.057,-1.1206,-1.2132,-1.289,-1.3392,-1.3623,-1.4339,-1.5302,-1.6491,-1.6499,-1.693,-1.7765,-1.7795,-1.7791,-1.7852,-1.8475,-1.9265,-2.0213,-2.1131,-2.1655,-2.1899,-2.218,-2.2377,-2.249,-2.2634,-2.2873,-2.3165,-2.3566,-2.3795,-2.3917,-2.4133,-2.419,-2.419,-2.419,-2.419,-2.419,-2.419,-2.419,-2.419,-2.419,-2.419,-2.419,-2.419,-2.419,-2.4207,-2.42,-2.4957,-2.536,-2.4393,-2.6289,-2.7629,-2.6317,-2.7188,-2.7954,-2.7662,-2.637,-2.5446,-2.5573,-2.4949,-2.5082,-2.6539,-2.6691,-2.6691,-2.6691,-2.6436,-2.6401,-2.6691,-2.6318,-2.6274,-2.67,-2.5486,-2.458,-2.4051,-2.3671,-2.2625,-2.0806,-2.0161,-1.9775,-1.9773,-1.861,-1.7082,-1.2509,0.0,0.0,0.0,0.0,0.0,0.0,0.0,0.0,0.0,0.0,0.0,0.0,0.0,0.0,0.0,0.0,0.0,0.0,0.0,0.0,0.0,0.0,0.0,0.0,0.0,0.0,0.0,0.0,0.0,0.0,-1.0939,-1.1496,-1.2676,-1.3674,-1.4288,-1.4516,-1.4759,-1.5531,-1.6792,-1.6792,-1.7808,-1.9671,-1.8669,-1.8285,-1.8429,-1.9395,-2.0256,-2.1038,-2.1354,-2.1816,-2.2287,-2.2287,-2.2439,-2.2677,-2.2737,-2.3147,-2.3674,-2.3735,-2.3955,-2.419,-2.419,-2.419,-2.419,-2.419,-2.419,-2.419,-2.419,-2.419,-2.419,-2.419,-2.419,-2.419,-2.419,-2.419,-2.4207,-2.42,-2.4273,-2.4326,-2.4218,-2.5468,-2.696,-2.8334,-2.7419,-2.7001,-2.8379,-2.6295,-2.4792,-2.5404,-2.4929,-2.5113,-2.6539,-2.6758,-2.6791,-2.6691,-2.6725,-2.6758,-2.6691,-2.6691,-2.6691,-2.6691,-2.6651,-2.6064,-2.4883,-2.3861,-2.3054,-2.2489,-2.0708,-1.98,-1.9804,-1.9813,-1.8597,0.0,-1.302,0.0,0.0,0.0,0.0,0.0,0.0,0.0,0.0,0.0,0.0,0.0,0.0,0.0,0.0,0.0,0.0,0.0,0.0,0.0,0.0,0.0,0.0,0.0,0.0,0.0,0.0,0.0,0.0,-1.1566,-1.2117,-1.2578,-1.2855,-1.3952,-1.4161,-1.3324,-1.5145,-1.7075,0.0,-1.9009,-1.9245,-1.9668,-1.9476,-1.973,-2.0396,-2.0621,-2.0835,-2.1068,-2.1795,-2.218,-2.2306,-2.2306,-2.2331,-2.2452,-2.3097,-2.3418,-2.3605,-2.3959,-2.4151,-2.419,-2.419,-2.419,-2.419,-2.419,-2.419,-2.419,-2.419,-2.419,-2.419,-2.419,-2.419,-2.419,-2.419,-2.419,-2.4207,-2.42,-2.4866,-2.5214,-2.4348,-2.5163,-2.5819,-2.5324,-2.5646,-2.5837,-2.5464,-2.5147,-2.4902,-2.4757,-2.4863,-2.5416,-2.6572,-2.7272,-2.7396,-2.6758,-2.7004,-2.7036,-2.6725,-2.6691,-2.6691,-2.6691,-2.6177,-2.6045,-2.6273,-2.4482,-2.3448,-2.3348,-2.0971,-1.9812,-1.9812,-1.9804,-2.1427,0.0,0.0,0.0,0.0,0.0,0.0,0.0,0.0,0.0,0.0,0.0,0.0,0.0,0.0,0.0,0.0,0.0,0.0,0.0,0.0,0.0,0.0,0.0,0.0,0.0,0.0,0.0,0.0,0.0,-1.0936,-1.2242,-1.3768,-1.4633,-1.463,-1.5588,-1.5844,-1.5398,-1.7076,-1.8736,-2.0324,-2.0744,-2.0935,-2.0959,-2.0943,-2.1197,-2.1612,-2.1623,-2.1619,-2.1664,-2.2125,-2.2306,-2.2335,-2.2611,-2.2788,-2.2941,-2.3354,-2.3629,-2.3864,-2.4133,-2.419,-2.419,-2.419,-2.419,-2.419,-2.419,-2.419,-2.419,-2.419,-2.419,-2.419,-2.419,-2.419,-2.419,-2.419,-2.419,-2.4189,-2.4205,-2.4629,-2.4869,-2.431,-2.4641,-2.4974,-2.4791,-2.5871,-2.6275,-2.4849,-2.5047,-2.5195,-2.4773,-2.479,-2.5356,-2.6833,-2.7348,-2.75,-2.7286,-2.7303,-2.721,-2.6987,-2.6825,-2.6691,-2.6691,-2.6539,-2.6386,-2.6234,-2.5474,-2.461,-2.359,-2.3285,-2.3082,-2.3092,-2.3111,-2.4388,0.0,0.0,0.0,0.0,0.0,0.0,0.0,0.0,0.0,0.0,0.0,0.0,0.0,0.0,0.0,0.0,0.0,0.0,0.0,0.0,0.0,0.0,0.0,0.0,0.0,0.0,0.0,0.0,0.0,-1.0717,-1.3071,-1.515,-1.6344,-1.6497,-1.7282,-1.7999,-1.8574,-1.939,-2.0243,-2.1233,-2.1956,-2.2363,-2.2463,-2.2367,-2.2298,-2.233,-2.2531,-2.2635,-2.2635,-2.2635,-2.2623,-2.267,-2.3188,-2.3482,-2.3629,-2.3629,-2.3864,-2.419,-2.419,-2.419,-2.419,-2.419,-2.4228,-2.4247,-2.4209,-2.4228,-2.4247,-2.4209,-2.419,-2.419,-2.419,-2.419,-2.419,-2.419,-2.419,-2.419,-2.419,-2.419,-2.419,-2.419,-2.419,-2.441,-2.509,-2.6392,-2.6765,-2.4946,-2.5082,-2.5288,-2.5027,-2.4761,-2.5312,-2.7099,-2.7409,-2.7619,-2.7869,-2.7589,-2.7378,-2.7286,-2.6939,-2.6691,-2.6691,-2.71,-2.694,-2.608,-2.6623,-2.5983,-2.4159,-2.5881,-2.6692,-2.6689,-2.669,-2.6707,0.0,0.0,0.0,0.0,0.0,0.0,0.0,0.0,0.0,0.0,0.0,0.0,0.0,0.0,0.0,0.0,0.0,0.0,0.0,0.0,0.0,0.0,0.0,0.0,0.0,0.0,0.0,0.0,-1.3464,-1.3716,-1.4435,-1.5096,-1.5744,-1.6386,-1.7479,-1.8843,-2.0591,-2.0742,-2.1245,-2.2125,-2.2254,-2.2558,-2.3067,-2.2548,-2.2288,-2.2367,-2.3481,-2.3963,-2.3952,-2.3952,-2.3943,-2.3963,-2.4017,-2.4076,-2.4095,-2.4095,-2.4152,-2.419,-2.419,-2.419,-2.419,-2.419,-2.4321,-2.4445,-2.4247,-2.4321,-2.4409,-2.4247,-2.419,-2.419,-2.419,-2.419,-2.419,-2.419,-2.419,-2.419,-2.419,-2.419,-2.419,-2.419,-2.419,-2.4226,-2.4337,-2.5107,-2.5301,-2.4042,-2.4254,-2.468,-2.4975,-2.5005,-2.5623,-2.713,-2.7872,-2.8156,-2.7926,-2.784,-2.7648,-2.7334,-2.6939,-2.6691,-2.6691,-2.7201,-2.7509,-2.7601,-2.7701,-2.7252,-2.63,-2.6568,-2.67,-2.6693,-2.6702,-2.6705,0.0,0.0,0.0,0.0,0.0,0.0,0.0,0.0,0.0,0.0,0.0,0.0,0.0,0.0,0.0,0.0,0.0,0.0,0.0,0.0,0.0,0.0,0.0,0.0,0.0,0.0,0.0,0.0,-1.5084,-1.5786,-1.6547,-1.6579,-1.6829,-1.7354,-1.8397,-1.9545,-2.0747,-2.114,-2.1738,-2.2535,-2.2603,-2.2773,-2.3032,-2.3259,-2.3348,-2.3407,-2.397,-2.4198,-2.42,-2.42,-2.4187,-2.4198,-2.4198,-2.4203,-2.419,-2.419,-2.419,-2.419,-2.419,-2.4266,-2.4357,-2.4357,-2.4512,-2.4623,-2.4445,-2.4426,-2.4461,-2.4266,-2.419,-2.419,-2.419,-2.419,-2.419,-2.419,-2.419,-2.419,-2.419,-2.419,-2.419,-2.419,-2.419,-2.419,-2.419,-2.5236,-2.5599,-2.4178,-2.4761,-2.533,-2.5287,-2.5304,-2.591,-2.7461,-2.8084,-2.842,-2.8507,-2.8308,-2.8084,-2.7946,-2.7361,-2.7063,-2.7161,-2.7512,-2.7975,-2.8524,-2.8532,-2.8335,-2.7987,-2.5473,-2.4242,-2.4223,-2.4223,-2.4233,0.0,0.0,0.0,0.0,0.0,0.0,0.0,0.0,0.0,0.0,0.0,0.0,0.0,0.0,0.0,0.0,0.0,0.0,0.0,0.0,0.0,0.0,0.0,0.0,0.0,0.0,0.0,0.0,-1.6275,-1.7194,-1.8051,-1.7847,-1.795,-1.8482,-1.9207,-1.999,-2.0871,-2.1544,-2.2158,-2.2695,-2.291,-2.3021,-2.3122,-2.3754,-2.4085,-2.4205,-2.4205,-2.4196,-2.419,-2.421,-2.4211,-2.4192,-2.4192,-2.4265,-2.4339,-2.4302,-2.4321,-2.4339,-2.4339,-2.4444,-2.4594,-2.4594,-2.4697,-2.4814,-2.4639,-2.4594,-2.4526,-2.4321,-2.4247,-2.419,-2.419,-2.419,-2.419,-2.419,-2.419,-2.419,-2.419,-2.419,-2.419,-2.419,-2.419,-2.419,-2.419,-2.5364,-2.5823,-2.441,-2.5117,-2.5697,-2.5354,-2.5445,-2.6065,-2.7575,-2.8138,-2.8565,-2.897,-2.8633,-2.8394,-2.8394,-2.7805,-2.749,-2.7593,-2.7893,-2.8264,-2.8797,-2.8918,-2.8981,-2.899,-2.5223,-2.3436,-2.3431,-2.406,-2.436,0.0,0.0,0.0,0.0,0.0,0.0,0.0,0.0,0.0,0.0,0.0,0.0,0.0,0.0,0.0,0.0,0.0,0.0,0.0,0.0,0.0,0.0,0.0,0.0,0.0,0.0,0.0,0.0,-1.7488,-1.771,-1.8082,-1.8094,-1.8521,-1.9498,-1.957,-2.0234,-2.1554,-2.2347,-2.2704,-2.2695,-2.3021,-2.3346,-2.3653,-2.3563,-2.3785,-2.4189,-2.4189,-2.4208,-2.419,-2.4207,-2.42,-2.4199,-2.4204,-2.4425,-2.4756,-2.4628,-2.4666,-2.4775,-2.4775,-2.4775,-2.479,-2.479,-2.4877,-2.4962,-2.4828,-2.479,-2.4746,-2.4545,-2.4358,-2.419,-2.419,-2.419,-2.419,-2.419,-2.419,-2.419,-2.419,-2.419,-2.419,-2.419,-2.419,-2.419,-2.419,-2.4887,-2.5182,-2.4318,-2.4644,-2.4933,-2.4846,-2.5216,-2.5956,-2.7101,-2.7926,-2.8565,-2.897,-2.8633,-2.8394,-2.8394,-2.8075,-2.7851,-2.788,-2.821,-2.834,-2.825,-2.8731,-2.8991,-2.9004,-2.7301,-2.6453,-2.6527,-2.8894,-2.9982,0.0,0.0,0.0,0.0,0.0,0.0,0.0,0.0,0.0,0.0,0.0,0.0,0.0,0.0,0.0,0.0,0.0,0.0,0.0,0.0,0.0,0.0,0.0,0.0,0.0,0.0,0.0,0.0,0.0,-1.8256,-1.9037,-1.9059,-1.9498,-2.0467,-2.0749,-2.1348,-2.2296,-2.2797,-2.3159,-2.3346,-2.3459,-2.3692,-2.4016,-2.3979,-2.4037,-2.4209,-2.4394,-2.4355,-2.419,-2.4202,-2.4484,-2.4904,-2.4922,-2.4988,-2.5083,-2.4861,-2.4823,-2.4861,-2.4804,-2.4855,-2.4943,-2.4943,-2.5041,-2.5152,-2.4981,-2.4892,-2.482,-2.4572,-2.4352,-2.4191,-2.4191,-2.419,-2.419,-2.419,-2.419,-2.419,-2.419,-2.419,-2.419,-2.419,-2.419,-2.419,-2.419,-2.4444,-2.4534,-2.4245,-2.5228,-2.5881,-2.5618,-2.6398,-2.7218,-2.7897,-2.8451,-2.8839,-2.8994,-2.8863,-2.8791,-2.8791,-2.8438,-2.8334,-2.8601,-2.8489,-2.8496,-2.8718,-2.9115,-2.9233,-2.9007,-2.8443,-2.8498,-2.9101,-3.0001,-3.04,-1.5334,0.0,0.0,0.0,0.0,0.0,0.0,0.0,0.0,0.0,0.0,0.0,0.0,0.0,0.0,0.0,0.0,0.0,0.0,0.0,0.0,0.0,0.0,0.0,0.0,0.0,0.0,0.0,0.0,0.0,-2.0008,-2.0078,-2.0469,-2.1336,-2.1757,-2.2252,-2.2873,-2.3189,-2.3477,-2.3692,-2.3816,-2.3996,-2.419,-2.4266,-2.4303,-2.4321,-2.4566,-2.4487,-2.4234,-2.4454,-2.4865,-2.5308,-2.5304,-2.5298,-2.5279,-2.5095,-2.5038,-2.5038,-2.4981,-2.5037,-2.5099,-2.5099,-2.5203,-2.5274,-2.5152,-2.4991,-2.4834,-2.4651,-2.4402,-2.4209,-2.4191,-2.419,-2.419,-2.419,-2.419,-2.419,-2.419,-2.419,-2.419,-2.419,-2.419,-2.419,-2.419,-2.4426,-2.4516,-2.4245,-2.5566,-2.6399,-2.5873,-2.6721,-2.7588,-2.8143,-2.8438,-2.8723,-2.8975,-2.8994,-2.8994,-2.8994,-2.8749,-2.8725,-2.8994,-2.8749,-2.8755,-2.9134,-2.9347,-2.9412,-2.9301,-2.9433,-2.9795,-3.0395,-3.0402,-3.0395,0.0,0.0,0.0,0.0,0.0,0.0,0.0,0.0,0.0,0.0,0.0,0.0,0.0,0.0,0.0,0.0,0.0,0.0,0.0,0.0,0.0,0.0,0.0,0.0,0.0,0.0,0.0,0.0,-1.9641,-2.0028,-2.0959,-2.1023,-2.1397,-2.2096,-2.2521,-2.2898,-2.3212,-2.3544,-2.3714,-2.3714,-2.4036,-2.419,-2.4209,-2.441,-2.4512,-2.4528,-2.4716,-2.4572,-2.4267,-2.4985,-2.529,-2.5313,-2.5301,-2.5303,-2.5303,-2.5303,-2.5303,-2.5303,-2.5303,-2.5303,-2.5303,-2.5303,-2.5303,-2.5303,-2.5303,-2.508,-2.4818,-2.4804,-2.451,-2.4209,-2.4209,-2.419,-2.419,-2.419,-2.419,-2.419,-2.419,-2.419,-2.419,-2.419,-2.419,-2.419,-2.419,-2.4832,-2.5127,-2.4355,-2.5548,-2.6264,-2.5531,-2.6117,-2.6906,-2.7714,-2.7787,-2.8136,-2.892,-2.8994,-2.8994,-2.8994,-2.8994,-2.8994,-2.8994,-2.9017,-2.9134,-2.9392,-2.9394,-2.957,-2.9904,-3.0223,-3.039,-3.039,-3.0394,-3.041,-1.5724,0.0,0.0,0.0,0.0,0.0,0.0,0.0,0.0,0.0,0.0,0.0,0.0,0.0,0.0,0.0,0.0,0.0,0.0,0.0,0.0,0.0,0.0,0.0,0.0,0.0,0.0,0.0,-2.0434,-2.083,-2.1399,-2.1943,-2.2317,-2.2521,-2.3117,-2.3459,-2.3566,-2.3896,-2.4074,-2.4074,-2.4151,-2.4266,-2.4428,-2.4478,-2.4575,-2.4731,-2.4877,-2.4835,-2.465,-2.4847,-2.5088,-2.5301,-2.5293,-2.5303,-2.5303,-2.5303,-2.5303,-2.5303,-2.5303,-2.5303,-2.5303,-2.5303,-2.5303,-2.5303,-2.5303,-2.5233,-2.5115,-2.4931,-2.454,-2.4199,-2.42,-2.4211,-2.419,-2.419,-2.419,-2.419,-2.419,-2.419,-2.419,-2.419,-2.419,-2.419,-2.419,-2.4373,-2.4723,-2.5276,-2.5067,-2.5191,-2.6153,-2.6465,-2.6906,-2.7714,-2.7787,-2.8136,-2.892,-2.8994,-2.8994,-2.8994,-2.8994,-2.8994,-2.8994,-2.92,-2.933,-2.9412,-2.9678,-2.9874,-2.9961,-3.0018,-3.0161,-3.0394,-3.0405,-3.0539,0.0,0.0,0.0,0.0,0.0,0.0,-1.7543,-1.7447,0.0,0.0,0.0,0.0,0.0,0.0,0.0,0.0,0.0,0.0,0.0,0.0,0.0,0.0,0.0,0.0,0.0,-2.0354,-2.0749,-2.0775,-2.1055,-2.1475,-2.2017,-2.2485,-2.2822,-2.3117,-2.35,-2.3774,-2.3917,-2.4191,-2.4339,-2.4339,-2.441,-2.4512,-2.4623,-2.4678,-2.478,-2.4891,-2.5053,-2.5072,-2.5015,-2.5015,-2.5126,-2.5303,-2.5303,-2.5303,-2.5303,-2.5303,-2.5303,-2.5303,-2.5303,-2.5303,-2.5303,-2.5303,-2.5303,-2.5303,-2.5303,-2.5234,-2.513,-2.4949,-2.4555,-2.419,-2.4184,-2.4192,-2.4211,-2.419,-2.419,-2.419,-2.419,-2.419,-2.419,-2.419,-2.419,-2.419,-2.419,-2.419,-2.441,-2.5032,-2.4902,-2.4917,-2.5515,-2.5892,-2.641,-2.7218,-2.7291,-2.7647,-2.855,-2.8864,-2.9044,-2.9156,-2.9044,-2.9044,-2.9178,-2.931,-2.9493,-2.9643,-2.9877,-3.0061,-3.0182,-3.0144,-3.0235,-3.0487,-3.0564,-3.0672,0.0,0.0,0.0,0.0,0.0,0.0,-1.776,-1.7882,-1.7988,0.0,0.0,0.0,0.0,0.0,0.0,0.0,0.0,0.0,0.0,0.0,0.0,0.0,0.0,0.0,-1.9839,-2.0509,-2.1071,-2.1375,-2.1603,-2.2017,-2.2721,-2.2797,-2.3093,-2.3692,-2.3756,-2.3919,-2.4228,-2.4426,-2.4545,-2.4545,-2.4716,-2.4818,-2.4832,-2.4937,-2.501,-2.5034,-2.5224,-2.5303,-2.5303,-2.5303,-2.5303,-2.5303,-2.5303,-2.5303,-2.5303,-2.5303,-2.5303,-2.5303,-2.5303,-2.5303,-2.5303,-2.5303,-2.5303,-2.5303,-2.5303,-2.5192,-2.5015,-2.4958,-2.4587,-2.4223,-2.4302,-2.4264,-2.4206,-2.421,-2.419,-2.419,-2.419,-2.419,-2.419,-2.419,-2.419,-2.419,-2.419,-2.419,-2.4207,-2.42,-2.4977,-2.5252,-2.4481,-2.4897,-2.5586,-2.6415,-2.6581,-2.7036,-2.8054,-2.8706,-2.916,-2.9392,-2.9178,-2.9156,-2.9392,-2.9414,-2.9626,-2.9999,-3.0047,-3.0169,-3.0398,-3.0398,-3.0479,-3.059,-3.0794,-3.0786,0.0,0.0,0.0,0.0,0.0,0.0,-1.7828,-1.7733,-1.7707,0.0,0.0,0.0,0.0,0.0,0.0,0.0,0.0,0.0,0.0,0.0,0.0,0.0,0.0,0.0,-2.075,-2.0686,-2.09,-2.1348,-2.2068,-2.2652,-2.3069,-2.3369,-2.3566,-2.3692,-2.4117,-2.4373,-2.4426,-2.4639,-2.4746,-2.4746,-2.4775,-2.4855,-2.4962,-2.4998,-2.5088,-2.5234,-2.5274,-2.5303,-2.5303,-2.5303,-2.5303,-2.5303,-2.5303,-2.5303,-2.5303,-2.5303,-2.5303,-2.5303,-2.5303,-2.5303,-2.5303,-2.5303,-2.5303,-2.5303,-2.5303,-2.5274,-2.5234,-2.5234,-2.472,-2.4337,-2.4929,-2.4627,-2.4192,-2.4209,-2.419,-2.419,-2.419,-2.419,-2.419,-2.419,-2.419,-2.419,-2.419,-2.419,-2.4207,-2.42,-2.5444,-2.6149,-2.5568,-2.4869,-2.48,-2.5783,-2.6451,-2.7252,-2.8253,-2.91,-2.9514,-2.9412,-2.9351,-2.9351,-2.9392,-2.957,-2.9746,-2.9999,-3.0266,-3.0432,-3.0487,-3.0487,-3.053,-3.0593,-3.069,-3.0784,0.0,0.0,0.0,-1.7434,0.0,0.0,0.0,-1.8002,-1.7946,0.0,0.0,0.0,0.0,0.0,0.0,0.0,0.0,0.0,0.0,0.0,0.0,0.0,0.0,0.0,-2.1652,-2.1523,-2.1646,-2.2116,-2.2643,-2.3093,-2.3414,-2.361,-2.3819,-2.4098,-2.4355,-2.4561,-2.4654,-2.4828,-2.4904,-2.4904,-2.5,-2.5084,-2.5152,-2.5152,-2.5203,-2.5303,-2.5303,-2.5322,-2.5341,-2.5303,-2.5341,-2.539,-2.5322,-2.5303,-2.5303,-2.5303,-2.5303,-2.5303,-2.5303,-2.5303,-2.5303,-2.5303,-2.5303,-2.5303,-2.5303,-2.5303,-2.5293,-2.5288,-2.5018,-2.4742,-2.4738,-2.4489,-2.419,-2.4211,-2.421,-2.4202,-2.4209,-2.4192,-2.4192,-2.4192,-2.4192,-2.4192,-2.419,-2.4191,-2.4207,-2.4203,-2.4893,-2.5388,-2.5319,-2.478,-2.4622,-2.5204,-2.5972,-2.686,-2.7911,-2.865,-2.9191,-2.9533,-2.9533,-2.9533,-2.9533,-2.9729,-2.9992,-3.0234,-3.04,-3.0516,-3.0557,-3.0574,-3.0623,-3.0653,-3.074,-3.0847,0.0,0.0,0.0,0.0,0.0,-1.7639,0.0,0.0,0.0,-1.7896,0.0,0.0,0.0,0.0,0.0,0.0,0.0,0.0,0.0,0.0,0.0,0.0,0.0,0.0,0.0,-2.1379,-2.1544,-2.2641,-2.2758,-2.3039,-2.3539,-2.3767,-2.4059,-2.4495,-2.4559,-2.4666,-2.4842,-2.4974,-2.5065,-2.5046,-2.5224,-2.5303,-2.5303,-2.5303,-2.5303,-2.5322,-2.5322,-2.537,-2.5428,-2.536,-2.5397,-2.5493,-2.5351,-2.5303,-2.5303,-2.5303,-2.5303,-2.5303,-2.5303,-2.5303,-2.5303,-2.5303,-2.5303,-2.5303,-2.5303,-2.5303,-2.5302,-2.5302,-2.5267,-2.5091,-2.4463,-2.4289,-2.4306,-2.4393,-2.436,-2.4335,-2.4407,-2.4412,-2.4358,-2.4228,-2.4188,-2.4248,-2.4377,-2.4284,-2.4245,-2.4395,-2.4302,-2.4366,-2.4847,-2.4748,-2.4766,-2.5106,-2.5683,-2.6546,-2.7778,-2.8289,-2.8888,-2.9708,-2.9765,-2.9765,-2.9765,-2.9973,-3.0221,-3.0494,-3.0525,-3.0558,-3.0613,-3.0703,-3.0717,-3.0691,-3.0833,-3.0896,0.0,0.0,0.0,0.0,-1.7516,0.0,0.0,0.0,-1.726,-1.7641,0.0,-1.6141,-1.6167,0.0,0.0,0.0,0.0,0.0,0.0,0.0,0.0,0.0,0.0,0.0,0.0,-1.8111,-1.8183,-2.1754,-2.1646,-2.1922,-2.3014,-2.3914,-2.4444,-2.4495,-2.479,-2.4943,-2.4974,-2.5163,-2.5264,-2.5264,-2.5303,-2.5303,-2.5303,-2.5303,-2.5322,-2.539,-2.539,-2.5428,-2.5486,-2.5486,-2.5488,-2.549,-2.5357,-2.5303,-2.5303,-2.5303,-2.5303,-2.5303,-2.5303,-2.5303,-2.5303,-2.5303,-2.5303,-2.5303,-2.5303,-2.5303,-2.5303,-2.5312,-2.5133,-2.491,-2.4776,-2.4639,-2.4647,-2.5082,-2.4955,-2.4808,-2.511,-2.5167,-2.4982,-2.4317,-2.4198,-2.4401,-2.5064,-2.4636,-2.4421,-2.5081,-2.4628,-2.444,-2.5148,-2.5016,-2.5253,-2.6288,-2.632,-2.6995,-2.8779,-2.8991,-2.9289,-2.9927,-2.9969,-2.9969,-2.9969,-3.0266,-3.0463,-3.0506,-3.0621,-3.0683,-3.0698,-3.0818,-3.0814,-3.0691,-3.0833,-3.0829,0.0,0.0,0.0,0.0,0.0,0.0,0.0,0.0,-1.6728,0.0,0.0,0.0,0.0,0.0,0.0,0.0,0.0,0.0,0.0,0.0,0.0,0.0,0.0,0.0,0.0,0.0,0.0,0.0,-2.0968,-2.2482,-2.296,-2.3824,-2.4426,-2.467,-2.4814,-2.4968,-2.5163,-2.5264,-2.5303,-2.5303,-2.5303,-2.5303,-2.5303,-2.5341,-2.537,-2.5399,-2.5434,-2.5495,-2.5553,-2.5556,-2.5583,-2.5605,-2.5557,-2.5524,-2.5524,-2.5524,-2.5524,-2.5524,-2.5538,-2.5425,-2.5303,-2.5303,-2.5303,-2.5303,-2.5303,-2.5303,-2.5303,-2.5303,-2.5224,-2.5091,-2.4949,-2.4847,-2.4809,-2.5005,-2.5086,-2.5125,-2.526,-2.5304,-2.5209,-2.4898,-2.4835,-2.4943,-2.5262,-2.5051,-2.4936,-2.5258,-2.5038,-2.4941,-2.526,-2.5196,-2.5317,-2.5795,-2.5757,-2.625,-2.7544,-2.8102,-2.8648,-2.927,-2.9732,-3.0095,-3.0279,-3.0432,-3.0544,-3.0602,-3.066,-3.0737,-3.0825,-3.0877,-3.0836,-3.071,-3.0764,-3.074,-1.6693,0.0,0.0,0.0,0.0,0.0,0.0,0.0,0.0,0.0,0.0,0.0,0.0,0.0,-1.5779,0.0,0.0,0.0,0.0,0.0,0.0,0.0,0.0,0.0,0.0,0.0,0.0,0.0,0.0,-2.1752,-2.2282,-2.3345,-2.4092,-2.4431,-2.4695,-2.5,-2.5303,-2.5303,-2.5303,-2.5303,-2.5303,-2.5303,-2.5303,-2.537,-2.5408,-2.5432,-2.5492,-2.557,-2.5633,-2.5633,-2.5671,-2.5694,-2.5694,-2.5694,-2.5694,-2.5694,-2.5694,-2.5699,-2.5706,-2.5528,-2.5303,-2.5303,-2.5303,-2.5303,-2.5303,-2.5303,-2.5303,-2.5303,-2.5303,-2.5253,-2.5046,-2.4988,-2.4992,-2.4955,-2.5111,-2.5302,-2.5302,-2.531,-2.531,-2.531,-2.531,-2.531,-2.531,-2.531,-2.5299,-2.5298,-2.5302,-2.5292,-2.5302,-2.529,-2.5303,-2.5293,-2.5303,-2.5668,-2.6629,-2.7448,-2.8288,-2.9218,-2.9817,-3.0253,-3.0513,-3.0544,-3.0602,-3.0698,-3.0733,-3.0806,-3.0903,-3.0858,-3.0808,-3.0698,-3.0698,-3.0679,0.0,0.0,0.0,-1.7828,0.0,0.0,0.0,0.0,-1.5882,0.0,0.0,0.0,0.0,-1.5898,-1.5798,-1.5224,0.0,0.0,0.0,0.0,0.0,0.0,0.0,0.0,0.0,0.0,0.0,0.0,0.0,0.0,-2.0484,-2.2335,-2.3393,-2.3539,-2.4487,-2.5088,-2.5303,-2.5303,-2.5303,-2.5303,-2.5303,-2.5303,-2.5303,-2.537,-2.5437,-2.5498,-2.5575,-2.5628,-2.5703,-2.5703,-2.5703,-2.5703,-2.5703,-2.5703,-2.5703,-2.5703,-2.5703,-2.5698,-2.5708,-2.5524,-2.5303,-2.5303,-2.5303,-2.5303,-2.5303,-2.5303,-2.5303,-2.5303,-2.5303,-2.5253,-2.5046,-2.5133,-2.5234,-2.5034,-2.5152,-2.5303,-2.5303,-2.5303,-2.5303,-2.5303,-2.5303,-2.5303,-2.5303,-2.5303,-2.5303,-2.5293,-2.5303,-2.5303,-2.5303,-2.5303,-2.5293,-2.5292,-2.5293,-2.5764,-2.6888,-2.7552,-2.864,-3.034,-3.0475,-3.0513,-3.0583,-3.066,-3.0698,-3.0698,-3.0837,-3.0898,-3.0898,-3.0766,-3.0702,-3.0698,-3.0698,-3.0621,0.0,0.0,-1.8001,-1.8121,0.0,0.0,0.0,0.0,0.0,0.0,0.0,0.0,0.0,0.0,-1.6019,-1.586,-1.636,-1.6668,0.0,0.0,0.0,0.0,0.0,0.0,0.0,0.0,0.0,0.0,-1.8932,0.0,-2.0448,-2.2296,-2.3356,-2.3501,-2.4468,-2.5099,-2.5303,-2.5303,-2.5303,-2.5303,-2.5303,-2.5303,-2.5303,-2.5428,-2.5484,-2.5513,-2.5625,-2.5685,-2.5703,-2.5703,-2.5703,-2.5703,-2.5703,-2.5703,-2.5703,-2.5703,-2.5703,-2.5682,-2.56,-2.5445,-2.5303,-2.5303,-2.5303,-2.5303,-2.5303,-2.5303,-2.5303,-2.5303,-2.5303,-2.5274,-2.5214,-2.5253,-2.5274,-2.5214,-2.5253,-2.5303,-2.5303,-2.5303,-2.5303,-2.5303,-2.5303,-2.5303,-2.5303,-2.5303,-2.5303,-2.5303,-2.5303,-2.5303,-2.5303,-2.5303,-2.5303,-2.5293,-2.5303,-2.5457,-2.5841,-2.6629,-2.8091,-3.0429,-3.0027,-2.9988,-3.0652,-3.0679,-3.0742,-3.0821,-3.079,-3.077,-3.077,-3.0684,-3.0607,-3.0564,-3.0564,-3.0544,-1.7707,-1.8094,0.0,-1.8486,-1.827,0.0,-1.7125,0.0,0.0,0.0,0.0,0.0,0.0,0.0,0.0,-1.6709,-1.6923,-1.7093,0.0,-1.7647,0.0,0.0,0.0,0.0,0.0,0.0,0.0,-1.6218,-1.8189,0.0,0.0,0.0,-2.314,-2.3588,-2.4505,-2.5099,-2.5303,-2.5303,-2.5303,-2.5303,-2.5303,-2.5303,-2.5341,-2.5447,-2.5511,-2.5538,-2.5648,-2.5703,-2.5703,-2.5703,-2.5703,-2.5703,-2.5703,-2.5703,-2.5703,-2.5703,-2.5703,-2.5683,-2.5603,-2.5473,-2.537,-2.537,-2.5341,-2.5303,-2.5303,-2.5303,-2.5303,-2.5303,-2.5303,-2.5303,-2.5303,-2.5303,-2.5303,-2.5303,-2.5303,-2.5303,-2.5303,-2.5303,-2.5303,-2.5303,-2.5303,-2.5303,-2.5303,-2.5303,-2.5303,-2.5303,-2.5303,-2.5303,-2.5303,-2.5303,-2.5303,-2.5303,-2.5303,-2.5437,-2.5764,-2.637,-2.773,-3.0052,-2.9689,-2.9771,-3.0661,-3.0703,-3.087,-3.125,-3.0877,-3.0828,-3.1133,-3.0742,-3.054,-3.0506,-3.0487,-3.0467]}]]